<?xml version="1.0" encoding="UTF-8" standalone="no" ?>
<gpx xmlns="http://www.topografix.com/GPX/1/1" xmlns:xsi="http://www.w3.org/2001/XMLSchema-instance" xsi:schemaLocation="http://www.topografix.com/GPX/1/1 http://www.topografix.com/GPX/1/1/gpx.xsd" version="1.1" creator="VisuGPX - https://www.visugpx.com">
  <metadata>
    <name>La Cance</name>
    <desc><![CDATA[La vallée de La Cance]]></desc>
  </metadata>
  <trk>
    <name><![CDATA[La Cance]]></name>
    <cmt><![CDATA[Bruno, Thierry 1 & 2, PAscal, JAcques, Edouard]]></cmt>
    <trkseg>
      <trkpt lat="45.1157" lon="4.96428">
        <ele>222.88200378418</ele>
        <time>2010-01-02T12:17:26Z</time>
      </trkpt>
      <trkpt lat="45.11581" lon="4.96434">
        <ele>222.20599365234</ele>
        <time>2010-01-02T12:17:32Z</time>
      </trkpt>
      <trkpt lat="45.11581" lon="4.96438">
        <ele>221.72300720215</ele>
        <time>2010-01-02T12:17:34Z</time>
      </trkpt>
      <trkpt lat="45.11581" lon="4.96452">
        <ele>221.7200012207</ele>
        <time>2010-01-02T12:17:38Z</time>
      </trkpt>
      <trkpt lat="45.11583" lon="4.96389">
        <ele>222.25</ele>
        <time>2010-01-02T12:17:42Z</time>
      </trkpt>
      <trkpt lat="45.11581" lon="4.96454">
        <ele>221.64799499512</ele>
        <time>2010-01-02T12:17:45Z</time>
      </trkpt>
      <trkpt lat="45.1158" lon="4.96458">
        <ele>221.80599975586</ele>
        <time>2010-01-02T12:17:48Z</time>
      </trkpt>
      <trkpt lat="45.1158" lon="4.96475">
        <ele>221.62100219727</ele>
        <time>2010-01-02T12:17:53Z</time>
      </trkpt>
      <trkpt lat="45.11579" lon="4.96503">
        <ele>220.4640045166</ele>
        <time>2010-01-02T12:17:58Z</time>
      </trkpt>
      <trkpt lat="45.11588" lon="4.96527">
        <ele>220.14500427246</ele>
        <time>2010-01-02T12:18:02Z</time>
      </trkpt>
      <trkpt lat="45.11606" lon="4.96568">
        <ele>220.01100158691</ele>
        <time>2010-01-02T12:18:09Z</time>
      </trkpt>
      <trkpt lat="45.11621" lon="4.96603">
        <ele>219.84800720215</ele>
        <time>2010-01-02T12:18:19Z</time>
      </trkpt>
      <trkpt lat="45.11655" lon="4.96692">
        <ele>220.25999450684</ele>
        <time>2010-01-02T12:18:29Z</time>
      </trkpt>
      <trkpt lat="45.11677" lon="4.96745">
        <ele>220.72900390625</ele>
        <time>2010-01-02T12:18:38Z</time>
      </trkpt>
      <trkpt lat="45.11713" lon="4.96803">
        <ele>220.73899841309</ele>
        <time>2010-01-02T12:18:49Z</time>
      </trkpt>
      <trkpt lat="45.11728" lon="4.9682">
        <ele>220.83799743652</ele>
        <time>2010-01-02T12:18:53Z</time>
      </trkpt>
      <trkpt lat="45.11737" lon="4.96831">
        <ele>220.19500732422</ele>
        <time>2010-01-02T12:18:57Z</time>
      </trkpt>
      <trkpt lat="45.11744" lon="4.96868">
        <ele>220.55700683594</ele>
        <time>2010-01-02T12:19:01Z</time>
      </trkpt>
      <trkpt lat="45.11752" lon="4.96868">
        <ele>220.43699645996</ele>
        <time>2010-01-02T12:19:04Z</time>
      </trkpt>
      <trkpt lat="45.11786" lon="4.96919">
        <ele>220.71699523926</ele>
        <time>2010-01-02T12:19:12Z</time>
      </trkpt>
      <trkpt lat="45.11816" lon="4.96965">
        <ele>221.29699707031</ele>
        <time>2010-01-02T12:19:21Z</time>
      </trkpt>
      <trkpt lat="45.11858" lon="4.97026">
        <ele>222.28399658203</ele>
        <time>2010-01-02T12:19:33Z</time>
      </trkpt>
      <trkpt lat="45.11873" lon="4.97047">
        <ele>222.82299804688</ele>
        <time>2010-01-02T12:19:37Z</time>
      </trkpt>
      <trkpt lat="45.11883" lon="4.97063">
        <ele>220.62399291992</ele>
        <time>2010-01-02T12:19:41Z</time>
      </trkpt>
      <trkpt lat="45.11883" lon="4.97093">
        <ele>220.33000183106</ele>
        <time>2010-01-02T12:19:43Z</time>
      </trkpt>
      <trkpt lat="45.11879" lon="4.97124">
        <ele>219.85299682617</ele>
        <time>2010-01-02T12:19:47Z</time>
      </trkpt>
      <trkpt lat="45.11879" lon="4.97157">
        <ele>219.31199645996</ele>
        <time>2010-01-02T12:19:51Z</time>
      </trkpt>
      <trkpt lat="45.1189" lon="4.97241">
        <ele>219.02400207519</ele>
        <time>2010-01-02T12:20:01Z</time>
      </trkpt>
      <trkpt lat="45.11903" lon="4.97317">
        <ele>218.86999511719</ele>
        <time>2010-01-02T12:20:10Z</time>
      </trkpt>
      <trkpt lat="45.11917" lon="4.97394">
        <ele>218.33299255371</ele>
        <time>2010-01-02T12:20:20Z</time>
      </trkpt>
      <trkpt lat="45.1193" lon="4.97463">
        <ele>218.69999694824</ele>
        <time>2010-01-02T12:20:29Z</time>
      </trkpt>
      <trkpt lat="45.11938" lon="4.97508">
        <ele>220.30400085449</ele>
        <time>2010-01-02T12:20:35Z</time>
      </trkpt>
      <trkpt lat="45.1195" lon="4.97572">
        <ele>219.99499511719</ele>
        <time>2010-01-02T12:20:44Z</time>
      </trkpt>
      <trkpt lat="45.11956" lon="4.97608">
        <ele>220.87399291992</ele>
        <time>2010-01-02T12:20:49Z</time>
      </trkpt>
      <trkpt lat="45.11958" lon="4.97622">
        <ele>220.50799560547</ele>
        <time>2010-01-02T12:20:51Z</time>
      </trkpt>
      <trkpt lat="45.11971" lon="4.97699">
        <ele>220.61099243164</ele>
        <time>2010-01-02T12:21:01Z</time>
      </trkpt>
      <trkpt lat="45.11982" lon="4.97754">
        <ele>220.40600585938</ele>
        <time>2010-01-02T12:21:08Z</time>
      </trkpt>
      <trkpt lat="45.11994" lon="4.97821">
        <ele>220.44799804688</ele>
        <time>2010-01-02T12:21:17Z</time>
      </trkpt>
      <trkpt lat="45.12004" lon="4.97871">
        <ele>221.05700683594</ele>
        <time>2010-01-02T12:21:24Z</time>
      </trkpt>
      <trkpt lat="45.12016" lon="4.97934">
        <ele>221.28999328613</ele>
        <time>2010-01-02T12:21:33Z</time>
      </trkpt>
      <trkpt lat="45.1203" lon="4.98005">
        <ele>222.42300415039</ele>
        <time>2010-01-02T12:21:43Z</time>
      </trkpt>
      <trkpt lat="45.12047" lon="4.98083">
        <ele>224.01800537109</ele>
        <time>2010-01-02T12:21:54Z</time>
      </trkpt>
      <trkpt lat="45.12053" lon="4.98109">
        <ele>222.30200195312</ele>
        <time>2010-01-02T12:21:58Z</time>
      </trkpt>
      <trkpt lat="45.12064" lon="4.98161">
        <ele>223.52600097656</ele>
        <time>2010-01-02T12:22:06Z</time>
      </trkpt>
      <trkpt lat="45.12068" lon="4.98219">
        <ele>224.37300109863</ele>
        <time>2010-01-02T12:22:14Z</time>
      </trkpt>
      <trkpt lat="45.12061" lon="4.98279">
        <ele>224.01699829102</ele>
        <time>2010-01-02T12:22:22Z</time>
      </trkpt>
      <trkpt lat="45.12053" lon="4.98341">
        <ele>224.95799255371</ele>
        <time>2010-01-02T12:22:30Z</time>
      </trkpt>
      <trkpt lat="45.12048" lon="4.98377">
        <ele>225.5059967041</ele>
        <time>2010-01-02T12:22:35Z</time>
      </trkpt>
      <trkpt lat="45.12046" lon="4.98389">
        <ele>225.48699951172</ele>
        <time>2010-01-02T12:22:40Z</time>
      </trkpt>
      <trkpt lat="45.12014" lon="4.98403">
        <ele>224.15299987793</ele>
        <time>2010-01-02T12:22:43Z</time>
      </trkpt>
      <trkpt lat="45.12008" lon="4.984">
        <ele>224.32699584961</ele>
        <time>2010-01-02T12:22:44Z</time>
      </trkpt>
      <trkpt lat="45.11984" lon="4.98388">
        <ele>224.01300048828</ele>
        <time>2010-01-02T12:22:48Z</time>
      </trkpt>
      <trkpt lat="45.11978" lon="4.98412">
        <ele>223.93499755859</ele>
        <time>2010-01-02T12:22:50Z</time>
      </trkpt>
      <trkpt lat="45.11978" lon="4.9844">
        <ele>224.87100219727</ele>
        <time>2010-01-02T12:22:55Z</time>
      </trkpt>
      <trkpt lat="45.12004" lon="4.98398">
        <ele>224.94400024414</ele>
        <time>2010-01-02T12:22:57Z</time>
      </trkpt>
      <trkpt lat="45.1202" lon="4.98462">
        <ele>223.03199768066</ele>
        <time>2010-01-02T12:22:59Z</time>
      </trkpt>
      <trkpt lat="45.11978" lon="4.98435">
        <ele>219.74099731445</ele>
        <time>2010-01-02T12:34:05Z</time>
      </trkpt>
      <trkpt lat="45.11998" lon="4.98395">
        <ele>219.71800231934</ele>
        <time>2010-01-02T12:34:08Z</time>
      </trkpt>
      <trkpt lat="45.11994" lon="4.98393">
        <ele>219.08700561523</ele>
        <time>2010-01-02T12:34:11Z</time>
      </trkpt>
      <trkpt lat="45.1199" lon="4.9839">
        <ele>218.96899414062</ele>
        <time>2010-01-02T12:34:13Z</time>
      </trkpt>
      <trkpt lat="45.11978" lon="4.98413">
        <ele>219.14399719238</ele>
        <time>2010-01-02T12:34:17Z</time>
      </trkpt>
      <trkpt lat="45.11978" lon="4.98399">
        <ele>218.90600585938</ele>
        <time>2010-01-02T12:34:20Z</time>
      </trkpt>
      <trkpt lat="45.11991" lon="4.98391">
        <ele>218.67100524902</ele>
        <time>2010-01-02T12:34:23Z</time>
      </trkpt>
      <trkpt lat="45.11995" lon="4.98393">
        <ele>218.5299987793</ele>
        <time>2010-01-02T12:34:24Z</time>
      </trkpt>
      <trkpt lat="45.12023" lon="4.98407">
        <ele>219.78700256348</ele>
        <time>2010-01-02T12:34:32Z</time>
      </trkpt>
      <trkpt lat="45.12029" lon="4.9841">
        <ele>220.1190032959</ele>
        <time>2010-01-02T12:34:36Z</time>
      </trkpt>
      <trkpt lat="45.12029" lon="4.98423">
        <ele>219.82000732422</ele>
        <time>2010-01-02T12:34:39Z</time>
      </trkpt>
      <trkpt lat="45.1204" lon="4.98434">
        <ele>220.19700622559</ele>
        <time>2010-01-02T12:34:43Z</time>
      </trkpt>
      <trkpt lat="45.1205" lon="4.98432">
        <ele>220.80900573731</ele>
        <time>2010-01-02T12:34:46Z</time>
      </trkpt>
      <trkpt lat="45.12058" lon="4.98414">
        <ele>220.56700134277</ele>
        <time>2010-01-02T12:34:50Z</time>
      </trkpt>
      <trkpt lat="45.12055" lon="4.98393">
        <ele>220.53300476074</ele>
        <time>2010-01-02T12:34:54Z</time>
      </trkpt>
      <trkpt lat="45.12063" lon="4.98375">
        <ele>220.16000366211</ele>
        <time>2010-01-02T12:34:56Z</time>
      </trkpt>
      <trkpt lat="45.12054" lon="4.9832">
        <ele>219.67199707031</ele>
        <time>2010-01-02T12:35:04Z</time>
      </trkpt>
      <trkpt lat="45.12065" lon="4.98247">
        <ele>218.19000244141</ele>
        <time>2010-01-02T12:35:12Z</time>
      </trkpt>
      <trkpt lat="45.12065" lon="4.98184">
        <ele>217.63600158691</ele>
        <time>2010-01-02T12:35:20Z</time>
      </trkpt>
      <trkpt lat="45.1206" lon="4.98145">
        <ele>219.36700439453</ele>
        <time>2010-01-02T12:35:25Z</time>
      </trkpt>
      <trkpt lat="45.12053" lon="4.98111">
        <ele>216.60899353027</ele>
        <time>2010-01-02T12:35:29Z</time>
      </trkpt>
      <trkpt lat="45.12032" lon="4.98013">
        <ele>215.69299316406</ele>
        <time>2010-01-02T12:35:40Z</time>
      </trkpt>
      <trkpt lat="45.12011" lon="4.97911">
        <ele>215.33000183106</ele>
        <time>2010-01-02T12:35:51Z</time>
      </trkpt>
      <trkpt lat="45.11992" lon="4.9781">
        <ele>214.42599487305</ele>
        <time>2010-01-02T12:36:02Z</time>
      </trkpt>
      <trkpt lat="45.11973" lon="4.97708">
        <ele>213.38800048828</ele>
        <time>2010-01-02T12:36:13Z</time>
      </trkpt>
      <trkpt lat="45.11959" lon="4.97627">
        <ele>213.53199768066</ele>
        <time>2010-01-02T12:36:22Z</time>
      </trkpt>
      <trkpt lat="45.11956" lon="4.97609">
        <ele>213.22300720215</ele>
        <time>2010-01-02T12:36:24Z</time>
      </trkpt>
      <trkpt lat="45.11945" lon="4.97547">
        <ele>212.67300415039</ele>
        <time>2010-01-02T12:36:31Z</time>
      </trkpt>
      <trkpt lat="45.11926" lon="4.97441">
        <ele>211.81100463867</ele>
        <time>2010-01-02T12:36:42Z</time>
      </trkpt>
      <trkpt lat="45.11919" lon="4.97405">
        <ele>212.56199645996</ele>
        <time>2010-01-02T12:36:46Z</time>
      </trkpt>
      <trkpt lat="45.11905" lon="4.97323">
        <ele>211.64999389648</ele>
        <time>2010-01-02T12:36:55Z</time>
      </trkpt>
      <trkpt lat="45.11901" lon="4.97305">
        <ele>210.83299255371</ele>
        <time>2010-01-02T12:36:57Z</time>
      </trkpt>
      <trkpt lat="45.11889" lon="4.97233">
        <ele>211.53900146484</ele>
        <time>2010-01-02T12:37:05Z</time>
      </trkpt>
      <trkpt lat="45.11879" lon="4.97162">
        <ele>210.90899658203</ele>
        <time>2010-01-02T12:37:13Z</time>
      </trkpt>
      <trkpt lat="45.1188" lon="4.97119">
        <ele>212.54899597168</ele>
        <time>2010-01-02T12:37:18Z</time>
      </trkpt>
      <trkpt lat="45.11896" lon="4.97097">
        <ele>214.16999816894</ele>
        <time>2010-01-02T12:37:21Z</time>
      </trkpt>
      <trkpt lat="45.11905" lon="4.9708">
        <ele>213.77000427246</ele>
        <time>2010-01-02T12:37:25Z</time>
      </trkpt>
      <trkpt lat="45.11902" lon="4.97061">
        <ele>213.16600036621</ele>
        <time>2010-01-02T12:37:28Z</time>
      </trkpt>
      <trkpt lat="45.11863" lon="4.97034">
        <ele>212.26800537109</ele>
        <time>2010-01-02T12:37:35Z</time>
      </trkpt>
      <trkpt lat="45.11818" lon="4.96968">
        <ele>212.2140045166</ele>
        <time>2010-01-02T12:37:45Z</time>
      </trkpt>
      <trkpt lat="45.11779" lon="4.96905">
        <ele>211.85200500488</ele>
        <time>2010-01-02T12:37:54Z</time>
      </trkpt>
      <trkpt lat="45.11775" lon="4.96898">
        <ele>211.81700134277</ele>
        <time>2010-01-02T12:37:55Z</time>
      </trkpt>
      <trkpt lat="45.1176" lon="4.96869">
        <ele>213.23199462891</ele>
        <time>2010-01-02T12:37:59Z</time>
      </trkpt>
      <trkpt lat="45.11763" lon="4.96844">
        <ele>212.07400512695</ele>
        <time>2010-01-02T12:38:01Z</time>
      </trkpt>
      <trkpt lat="45.11756" lon="4.96828">
        <ele>213.44099426269</ele>
        <time>2010-01-02T12:38:04Z</time>
      </trkpt>
      <trkpt lat="45.11753" lon="4.96802">
        <ele>212.83200073242</ele>
        <time>2010-01-02T12:38:06Z</time>
      </trkpt>
      <trkpt lat="45.11768" lon="4.96781">
        <ele>212.27099609375</ele>
        <time>2010-01-02T12:38:09Z</time>
      </trkpt>
      <trkpt lat="45.11802" lon="4.96752">
        <ele>213.94799804688</ele>
        <time>2010-01-02T12:38:16Z</time>
      </trkpt>
      <trkpt lat="45.11824" lon="4.96724">
        <ele>213.52099609375</ele>
        <time>2010-01-02T12:38:22Z</time>
      </trkpt>
      <trkpt lat="45.11841" lon="4.96682">
        <ele>215.22300720215</ele>
        <time>2010-01-02T12:38:29Z</time>
      </trkpt>
      <trkpt lat="45.11856" lon="4.96634">
        <ele>216.42900085449</ele>
        <time>2010-01-02T12:38:37Z</time>
      </trkpt>
      <trkpt lat="45.11868" lon="4.96594">
        <ele>216.93699645996</ele>
        <time>2010-01-02T12:38:44Z</time>
      </trkpt>
      <trkpt lat="45.11875" lon="4.96548">
        <ele>216.31399536133</ele>
        <time>2010-01-02T12:38:51Z</time>
      </trkpt>
      <trkpt lat="45.11879" lon="4.96526">
        <ele>216.27200317383</ele>
        <time>2010-01-02T12:38:54Z</time>
      </trkpt>
      <trkpt lat="45.11883" lon="4.96491">
        <ele>217.10600280762</ele>
        <time>2010-01-02T12:38:59Z</time>
      </trkpt>
      <trkpt lat="45.11877" lon="4.9647">
        <ele>217.79400634766</ele>
        <time>2010-01-02T12:39:03Z</time>
      </trkpt>
      <trkpt lat="45.11848" lon="4.96413">
        <ele>220.1369934082</ele>
        <time>2010-01-02T12:39:14Z</time>
      </trkpt>
      <trkpt lat="45.11837" lon="4.9637">
        <ele>222.38600158691</ele>
        <time>2010-01-02T12:39:22Z</time>
      </trkpt>
      <trkpt lat="45.11833" lon="4.9634">
        <ele>223.99299621582</ele>
        <time>2010-01-02T12:39:28Z</time>
      </trkpt>
      <trkpt lat="45.11829" lon="4.96302">
        <ele>225.32099914551</ele>
        <time>2010-01-02T12:39:36Z</time>
      </trkpt>
      <trkpt lat="45.11818" lon="4.96268">
        <ele>227.56199645996</ele>
        <time>2010-01-02T12:39:44Z</time>
      </trkpt>
      <trkpt lat="45.11812" lon="4.96235">
        <ele>229.46600341797</ele>
        <time>2010-01-02T12:39:51Z</time>
      </trkpt>
      <trkpt lat="45.11809" lon="4.96196">
        <ele>231.10400390625</ele>
        <time>2010-01-02T12:39:59Z</time>
      </trkpt>
      <trkpt lat="45.11805" lon="4.9615">
        <ele>233.64799499512</ele>
        <time>2010-01-02T12:40:09Z</time>
      </trkpt>
      <trkpt lat="45.118" lon="4.96111">
        <ele>235.42300415039</ele>
        <time>2010-01-02T12:40:18Z</time>
      </trkpt>
      <trkpt lat="45.11795" lon="4.9607">
        <ele>237.30099487305</ele>
        <time>2010-01-02T12:40:27Z</time>
      </trkpt>
      <trkpt lat="45.11789" lon="4.96027">
        <ele>239.72099304199</ele>
        <time>2010-01-02T12:40:36Z</time>
      </trkpt>
      <trkpt lat="45.11779" lon="4.95972">
        <ele>241.89300537109</ele>
        <time>2010-01-02T12:40:47Z</time>
      </trkpt>
      <trkpt lat="45.11771" lon="4.95922">
        <ele>244.76300048828</ele>
        <time>2010-01-02T12:40:57Z</time>
      </trkpt>
      <trkpt lat="45.11761" lon="4.95875">
        <ele>246.5950012207</ele>
        <time>2010-01-02T12:41:07Z</time>
      </trkpt>
      <trkpt lat="45.11755" lon="4.95846">
        <ele>247.66799926758</ele>
        <time>2010-01-02T12:41:13Z</time>
      </trkpt>
      <trkpt lat="45.11746" lon="4.958">
        <ele>248.2200012207</ele>
        <time>2010-01-02T12:41:22Z</time>
      </trkpt>
      <trkpt lat="45.11742" lon="4.95778">
        <ele>247.67700195312</ele>
        <time>2010-01-02T12:41:26Z</time>
      </trkpt>
      <trkpt lat="45.11743" lon="4.95739">
        <ele>245.75399780273</ele>
        <time>2010-01-02T12:41:32Z</time>
      </trkpt>
      <trkpt lat="45.11745" lon="4.95693">
        <ele>243.69200134277</ele>
        <time>2010-01-02T12:41:37Z</time>
      </trkpt>
      <trkpt lat="45.11745" lon="4.95682">
        <ele>242.88400268555</ele>
        <time>2010-01-02T12:41:38Z</time>
      </trkpt>
      <trkpt lat="45.11748" lon="4.9565">
        <ele>241.12199401856</ele>
        <time>2010-01-02T12:41:41Z</time>
      </trkpt>
      <trkpt lat="45.11766" lon="4.9563">
        <ele>239.26699829102</ele>
        <time>2010-01-02T12:41:44Z</time>
      </trkpt>
      <trkpt lat="45.11774" lon="4.95627">
        <ele>238.49600219727</ele>
        <time>2010-01-02T12:41:45Z</time>
      </trkpt>
      <trkpt lat="45.118" lon="4.9561">
        <ele>235.70799255371</ele>
        <time>2010-01-02T12:41:49Z</time>
      </trkpt>
      <trkpt lat="45.11801" lon="4.95592">
        <ele>234.62399291992</ele>
        <time>2010-01-02T12:41:51Z</time>
      </trkpt>
      <trkpt lat="45.118" lon="4.95548">
        <ele>231.42399597168</ele>
        <time>2010-01-02T12:41:55Z</time>
      </trkpt>
      <trkpt lat="45.11816" lon="4.95521">
        <ele>229.61799621582</ele>
        <time>2010-01-02T12:41:58Z</time>
      </trkpt>
      <trkpt lat="45.11827" lon="4.95501">
        <ele>229.71499633789</ele>
        <time>2010-01-02T12:42:00Z</time>
      </trkpt>
      <trkpt lat="45.11829" lon="4.95467">
        <ele>229.32000732422</ele>
        <time>2010-01-02T12:42:03Z</time>
      </trkpt>
      <trkpt lat="45.11814" lon="4.95446">
        <ele>229.54400634766</ele>
        <time>2010-01-02T12:42:06Z</time>
      </trkpt>
      <trkpt lat="45.1181" lon="4.95441">
        <ele>229.82299804688</ele>
        <time>2010-01-02T12:42:07Z</time>
      </trkpt>
      <trkpt lat="45.11791" lon="4.95432">
        <ele>230.80599975586</ele>
        <time>2010-01-02T12:42:11Z</time>
      </trkpt>
      <trkpt lat="45.1176" lon="4.95424">
        <ele>233.52299499512</ele>
        <time>2010-01-02T12:42:19Z</time>
      </trkpt>
      <trkpt lat="45.11736" lon="4.95415">
        <ele>236.17799377441</ele>
        <time>2010-01-02T12:42:26Z</time>
      </trkpt>
      <trkpt lat="45.1172" lon="4.95395">
        <ele>238.50500488281</ele>
        <time>2010-01-02T12:42:32Z</time>
      </trkpt>
      <trkpt lat="45.11716" lon="4.95368">
        <ele>239.73399353027</ele>
        <time>2010-01-02T12:42:37Z</time>
      </trkpt>
      <trkpt lat="45.11723" lon="4.95314">
        <ele>243.18800354004</ele>
        <time>2010-01-02T12:42:47Z</time>
      </trkpt>
      <trkpt lat="45.11722" lon="4.95289">
        <ele>244.1190032959</ele>
        <time>2010-01-02T12:42:52Z</time>
      </trkpt>
      <trkpt lat="45.11711" lon="4.9525">
        <ele>245.0890045166</ele>
        <time>2010-01-02T12:43:00Z</time>
      </trkpt>
      <trkpt lat="45.11693" lon="4.95212">
        <ele>245.44000244141</ele>
        <time>2010-01-02T12:43:08Z</time>
      </trkpt>
      <trkpt lat="45.11676" lon="4.95152">
        <ele>247.41799926758</ele>
        <time>2010-01-02T12:43:18Z</time>
      </trkpt>
      <trkpt lat="45.11659" lon="4.95098">
        <ele>248.42799377441</ele>
        <time>2010-01-02T12:43:27Z</time>
      </trkpt>
      <trkpt lat="45.11638" lon="4.95049">
        <ele>249.15600585938</ele>
        <time>2010-01-02T12:43:36Z</time>
      </trkpt>
      <trkpt lat="45.11615" lon="4.94996">
        <ele>250.32600402832</ele>
        <time>2010-01-02T12:43:45Z</time>
      </trkpt>
      <trkpt lat="45.11596" lon="4.94945">
        <ele>250.41799926758</ele>
        <time>2010-01-02T12:43:53Z</time>
      </trkpt>
      <trkpt lat="45.11584" lon="4.94894">
        <ele>250.32000732422</ele>
        <time>2010-01-02T12:44:00Z</time>
      </trkpt>
      <trkpt lat="45.11572" lon="4.94827">
        <ele>248.50500488281</ele>
        <time>2010-01-02T12:44:08Z</time>
      </trkpt>
      <trkpt lat="45.11559" lon="4.94753">
        <ele>247.2380065918</ele>
        <time>2010-01-02T12:44:16Z</time>
      </trkpt>
      <trkpt lat="45.11557" lon="4.94745">
        <ele>246.64999389648</ele>
        <time>2010-01-02T12:44:20Z</time>
      </trkpt>
      <trkpt lat="45.11557" lon="4.94659">
        <ele>245.68400573731</ele>
        <time>2010-01-02T12:44:26Z</time>
      </trkpt>
      <trkpt lat="45.11555" lon="4.94628">
        <ele>245.45799255371</ele>
        <time>2010-01-02T12:44:30Z</time>
      </trkpt>
      <trkpt lat="45.1156" lon="4.94562">
        <ele>244.73100280762</ele>
        <time>2010-01-02T12:44:38Z</time>
      </trkpt>
      <trkpt lat="45.11567" lon="4.94523">
        <ele>243.35499572754</ele>
        <time>2010-01-02T12:44:43Z</time>
      </trkpt>
      <trkpt lat="45.11575" lon="4.94508">
        <ele>243.15800476074</ele>
        <time>2010-01-02T12:44:45Z</time>
      </trkpt>
      <trkpt lat="45.11599" lon="4.94476">
        <ele>242.2619934082</ele>
        <time>2010-01-02T12:44:50Z</time>
      </trkpt>
      <trkpt lat="45.1163" lon="4.94449">
        <ele>238.17999267578</ele>
        <time>2010-01-02T12:44:55Z</time>
      </trkpt>
      <trkpt lat="45.11658" lon="4.94435">
        <ele>235.92199707031</ele>
        <time>2010-01-02T12:44:59Z</time>
      </trkpt>
      <trkpt lat="45.11665" lon="4.94431">
        <ele>236.08599853516</ele>
        <time>2010-01-02T12:45:00Z</time>
      </trkpt>
      <trkpt lat="45.11679" lon="4.94427">
        <ele>234.43200683594</ele>
        <time>2010-01-02T12:45:02Z</time>
      </trkpt>
      <trkpt lat="45.11703" lon="4.94421">
        <ele>232.32099914551</ele>
        <time>2010-01-02T12:45:05Z</time>
      </trkpt>
      <trkpt lat="45.11718" lon="4.94417">
        <ele>231.34100341797</ele>
        <time>2010-01-02T12:45:07Z</time>
      </trkpt>
      <trkpt lat="45.1175" lon="4.94385">
        <ele>230.72300720215</ele>
        <time>2010-01-02T12:45:12Z</time>
      </trkpt>
      <trkpt lat="45.11761" lon="4.9437">
        <ele>229.72599792481</ele>
        <time>2010-01-02T12:45:14Z</time>
      </trkpt>
      <trkpt lat="45.11776" lon="4.94338">
        <ele>229.49800109863</ele>
        <time>2010-01-02T12:45:18Z</time>
      </trkpt>
      <trkpt lat="45.1178" lon="4.9431">
        <ele>230.07800292969</ele>
        <time>2010-01-02T12:45:22Z</time>
      </trkpt>
      <trkpt lat="45.11785" lon="4.94238">
        <ele>229.2619934082</ele>
        <time>2010-01-02T12:45:30Z</time>
      </trkpt>
      <trkpt lat="45.11786" lon="4.94221">
        <ele>229.10400390625</ele>
        <time>2010-01-02T12:45:32Z</time>
      </trkpt>
      <trkpt lat="45.11795" lon="4.94155">
        <ele>232.10899353027</ele>
        <time>2010-01-02T12:45:40Z</time>
      </trkpt>
      <trkpt lat="45.1181" lon="4.94089">
        <ele>230.26100158691</ele>
        <time>2010-01-02T12:45:48Z</time>
      </trkpt>
      <trkpt lat="45.1181" lon="4.94084">
        <ele>232.58099365234</ele>
        <time>2010-01-02T12:45:51Z</time>
      </trkpt>
      <trkpt lat="45.1181" lon="4.94084">
        <ele>232.71299743652</ele>
        <time>2010-01-02T12:45:52Z</time>
      </trkpt>
      <trkpt lat="45.11823" lon="4.94033">
        <ele>231.46800231934</ele>
        <time>2010-01-02T12:45:59Z</time>
      </trkpt>
      <trkpt lat="45.11847" lon="4.93929">
        <ele>233.7799987793</ele>
        <time>2010-01-02T12:46:07Z</time>
      </trkpt>
      <trkpt lat="45.11869" lon="4.9389">
        <ele>234.03700256348</ele>
        <time>2010-01-02T12:46:13Z</time>
      </trkpt>
      <trkpt lat="45.11872" lon="4.93885">
        <ele>234.07099914551</ele>
        <time>2010-01-02T12:46:14Z</time>
      </trkpt>
      <trkpt lat="45.11911" lon="4.93835">
        <ele>234.28999328613</ele>
        <time>2010-01-02T12:46:24Z</time>
      </trkpt>
      <trkpt lat="45.11927" lon="4.93816">
        <ele>235.13800048828</ele>
        <time>2010-01-02T12:46:28Z</time>
      </trkpt>
      <trkpt lat="45.11948" lon="4.93788">
        <ele>234.61700439453</ele>
        <time>2010-01-02T12:46:38Z</time>
      </trkpt>
      <trkpt lat="45.11987" lon="4.93718">
        <ele>236.45899963379</ele>
        <time>2010-01-02T12:46:46Z</time>
      </trkpt>
      <trkpt lat="45.12012" lon="4.93668">
        <ele>236.88600158691</ele>
        <time>2010-01-02T12:46:54Z</time>
      </trkpt>
      <trkpt lat="45.12041" lon="4.93626">
        <ele>237.29200744629</ele>
        <time>2010-01-02T12:47:01Z</time>
      </trkpt>
      <trkpt lat="45.12089" lon="4.93583">
        <ele>234.82499694824</ele>
        <time>2010-01-02T12:47:10Z</time>
      </trkpt>
      <trkpt lat="45.12158" lon="4.93518">
        <ele>232.99899291992</ele>
        <time>2010-01-02T12:47:22Z</time>
      </trkpt>
      <trkpt lat="45.12189" lon="4.93476">
        <ele>231.57299804688</ele>
        <time>2010-01-02T12:47:28Z</time>
      </trkpt>
      <trkpt lat="45.12229" lon="4.93397">
        <ele>230.59599304199</ele>
        <time>2010-01-02T12:47:38Z</time>
      </trkpt>
      <trkpt lat="45.12273" lon="4.93309">
        <ele>229.72300720215</ele>
        <time>2010-01-02T12:47:49Z</time>
      </trkpt>
      <trkpt lat="45.12301" lon="4.93246">
        <ele>232.47700500488</ele>
        <time>2010-01-02T12:47:57Z</time>
      </trkpt>
      <trkpt lat="45.12337" lon="4.93159">
        <ele>231.62399291992</ele>
        <time>2010-01-02T12:48:08Z</time>
      </trkpt>
      <trkpt lat="45.1237" lon="4.93083">
        <ele>233.84599304199</ele>
        <time>2010-01-02T12:48:18Z</time>
      </trkpt>
      <trkpt lat="45.12401" lon="4.9302">
        <ele>233.58299255371</ele>
        <time>2010-01-02T12:48:27Z</time>
      </trkpt>
      <trkpt lat="45.12436" lon="4.92953">
        <ele>236.45799255371</ele>
        <time>2010-01-02T12:48:37Z</time>
      </trkpt>
      <trkpt lat="45.12463" lon="4.92902">
        <ele>237.64599609375</ele>
        <time>2010-01-02T12:48:45Z</time>
      </trkpt>
      <trkpt lat="45.12483" lon="4.92856">
        <ele>237.37899780273</ele>
        <time>2010-01-02T12:48:52Z</time>
      </trkpt>
      <trkpt lat="45.12503" lon="4.92804">
        <ele>236.68099975586</ele>
        <time>2010-01-02T12:48:59Z</time>
      </trkpt>
      <trkpt lat="45.12521" lon="4.92777">
        <ele>237.86999511719</ele>
        <time>2010-01-02T12:49:03Z</time>
      </trkpt>
      <trkpt lat="45.12531" lon="4.92764">
        <ele>236.63800048828</ele>
        <time>2010-01-02T12:49:05Z</time>
      </trkpt>
      <trkpt lat="45.12571" lon="4.92716">
        <ele>237.77600097656</ele>
        <time>2010-01-02T12:49:12Z</time>
      </trkpt>
      <trkpt lat="45.12619" lon="4.92662">
        <ele>233.06399536133</ele>
        <time>2010-01-02T12:49:20Z</time>
      </trkpt>
      <trkpt lat="45.12655" lon="4.92622">
        <ele>231.36799621582</ele>
        <time>2010-01-02T12:49:26Z</time>
      </trkpt>
      <trkpt lat="45.12708" lon="4.92564">
        <ele>231.83000183106</ele>
        <time>2010-01-02T12:49:35Z</time>
      </trkpt>
      <trkpt lat="45.1276" lon="4.92513">
        <ele>229.89700317383</ele>
        <time>2010-01-02T12:49:44Z</time>
      </trkpt>
      <trkpt lat="45.12822" lon="4.9245">
        <ele>231.20599365234</ele>
        <time>2010-01-02T12:49:55Z</time>
      </trkpt>
      <trkpt lat="45.12839" lon="4.92434">
        <ele>229.20500183106</ele>
        <time>2010-01-02T12:49:58Z</time>
      </trkpt>
      <trkpt lat="45.12896" lon="4.92377">
        <ele>230.38299560547</ele>
        <time>2010-01-02T12:50:09Z</time>
      </trkpt>
      <trkpt lat="45.12947" lon="4.92325">
        <ele>232.12300109863</ele>
        <time>2010-01-02T12:50:20Z</time>
      </trkpt>
      <trkpt lat="45.12978" lon="4.92295">
        <ele>232.88999938965</ele>
        <time>2010-01-02T12:50:29Z</time>
      </trkpt>
      <trkpt lat="45.13033" lon="4.92271">
        <ele>233.24600219727</ele>
        <time>2010-01-02T12:50:36Z</time>
      </trkpt>
      <trkpt lat="45.13085" lon="4.92256">
        <ele>234.58000183106</ele>
        <time>2010-01-02T12:50:45Z</time>
      </trkpt>
      <trkpt lat="45.13147" lon="4.92246">
        <ele>235.22099304199</ele>
        <time>2010-01-02T12:50:55Z</time>
      </trkpt>
      <trkpt lat="45.13209" lon="4.92239">
        <ele>235.81599426269</ele>
        <time>2010-01-02T12:51:05Z</time>
      </trkpt>
      <trkpt lat="45.13277" lon="4.92237">
        <ele>237.07699584961</ele>
        <time>2010-01-02T12:51:16Z</time>
      </trkpt>
      <trkpt lat="45.13324" lon="4.92229">
        <ele>238.22900390625</ele>
        <time>2010-01-02T12:51:24Z</time>
      </trkpt>
      <trkpt lat="45.13356" lon="4.92217">
        <ele>239.46200561523</ele>
        <time>2010-01-02T12:51:30Z</time>
      </trkpt>
      <trkpt lat="45.13399" lon="4.92178">
        <ele>239.90899658203</ele>
        <time>2010-01-02T12:51:39Z</time>
      </trkpt>
      <trkpt lat="45.13458" lon="4.92126">
        <ele>242.17999267578</ele>
        <time>2010-01-02T12:51:51Z</time>
      </trkpt>
      <trkpt lat="45.13512" lon="4.92081">
        <ele>242.33299255371</ele>
        <time>2010-01-02T12:52:02Z</time>
      </trkpt>
      <trkpt lat="45.13561" lon="4.92057">
        <ele>242.37300109863</ele>
        <time>2010-01-02T12:52:11Z</time>
      </trkpt>
      <trkpt lat="45.13621" lon="4.92031">
        <ele>241.89999389648</ele>
        <time>2010-01-02T12:52:22Z</time>
      </trkpt>
      <trkpt lat="45.13663" lon="4.92013">
        <ele>242.6549987793</ele>
        <time>2010-01-02T12:52:30Z</time>
      </trkpt>
      <trkpt lat="45.13711" lon="4.91994">
        <ele>242.54899597168</ele>
        <time>2010-01-02T12:52:39Z</time>
      </trkpt>
      <trkpt lat="45.13773" lon="4.91971">
        <ele>241.49000549316</ele>
        <time>2010-01-02T12:52:50Z</time>
      </trkpt>
      <trkpt lat="45.13831" lon="4.91949">
        <ele>240.97200012207</ele>
        <time>2010-01-02T12:53:00Z</time>
      </trkpt>
      <trkpt lat="45.13872" lon="4.91933">
        <ele>239.6190032959</ele>
        <time>2010-01-02T12:53:07Z</time>
      </trkpt>
      <trkpt lat="45.13923" lon="4.91902">
        <ele>239.75</ele>
        <time>2010-01-02T12:53:16Z</time>
      </trkpt>
      <trkpt lat="45.13952" lon="4.91874">
        <ele>238.41700744629</ele>
        <time>2010-01-02T12:53:25Z</time>
      </trkpt>
      <trkpt lat="45.13995" lon="4.91814">
        <ele>238.32099914551</ele>
        <time>2010-01-02T12:53:34Z</time>
      </trkpt>
      <trkpt lat="45.14033" lon="4.91744">
        <ele>238.95300292969</ele>
        <time>2010-01-02T12:53:41Z</time>
      </trkpt>
      <trkpt lat="45.14067" lon="4.91682">
        <ele>238.05400085449</ele>
        <time>2010-01-02T12:53:49Z</time>
      </trkpt>
      <trkpt lat="45.14108" lon="4.91607">
        <ele>238.03900146484</ele>
        <time>2010-01-02T12:53:59Z</time>
      </trkpt>
      <trkpt lat="45.14146" lon="4.91538">
        <ele>236.78399658203</ele>
        <time>2010-01-02T12:54:08Z</time>
      </trkpt>
      <trkpt lat="45.14167" lon="4.91499">
        <ele>234.46200561523</ele>
        <time>2010-01-02T12:54:13Z</time>
      </trkpt>
      <trkpt lat="45.14194" lon="4.91454">
        <ele>234.40800476074</ele>
        <time>2010-01-02T12:54:19Z</time>
      </trkpt>
      <trkpt lat="45.14205" lon="4.91443">
        <ele>234.58799743652</ele>
        <time>2010-01-02T12:54:21Z</time>
      </trkpt>
      <trkpt lat="45.14249" lon="4.91417">
        <ele>233.88200378418</ele>
        <time>2010-01-02T12:54:28Z</time>
      </trkpt>
      <trkpt lat="45.14296" lon="4.91408">
        <ele>232.85600280762</ele>
        <time>2010-01-02T12:54:35Z</time>
      </trkpt>
      <trkpt lat="45.14377" lon="4.91393">
        <ele>231.72200012207</ele>
        <time>2010-01-02T12:54:47Z</time>
      </trkpt>
      <trkpt lat="45.14446" lon="4.91381">
        <ele>230.20599365234</ele>
        <time>2010-01-02T12:54:57Z</time>
      </trkpt>
      <trkpt lat="45.14519" lon="4.91369">
        <ele>230.24499511719</ele>
        <time>2010-01-02T12:55:08Z</time>
      </trkpt>
      <trkpt lat="45.1456" lon="4.91362">
        <ele>230.54100036621</ele>
        <time>2010-01-02T12:55:15Z</time>
      </trkpt>
      <trkpt lat="45.14603" lon="4.91351">
        <ele>231.47500610352</ele>
        <time>2010-01-02T12:55:23Z</time>
      </trkpt>
      <trkpt lat="45.14646" lon="4.91336">
        <ele>232.10899353027</ele>
        <time>2010-01-02T12:55:31Z</time>
      </trkpt>
      <trkpt lat="45.1469" lon="4.91317">
        <ele>232.06399536133</ele>
        <time>2010-01-02T12:55:39Z</time>
      </trkpt>
      <trkpt lat="45.14748" lon="4.91292">
        <ele>232.60499572754</ele>
        <time>2010-01-02T12:55:49Z</time>
      </trkpt>
      <trkpt lat="45.14802" lon="4.91268">
        <ele>234.38200378418</ele>
        <time>2010-01-02T12:55:58Z</time>
      </trkpt>
      <trkpt lat="45.14843" lon="4.91256">
        <ele>234.53900146484</ele>
        <time>2010-01-02T12:56:05Z</time>
      </trkpt>
      <trkpt lat="45.14896" lon="4.91247">
        <ele>236.03700256348</ele>
        <time>2010-01-02T12:56:14Z</time>
      </trkpt>
      <trkpt lat="45.14962" lon="4.91236">
        <ele>236.95899963379</ele>
        <time>2010-01-02T12:56:26Z</time>
      </trkpt>
      <trkpt lat="45.15015" lon="4.91226">
        <ele>238.08299255371</ele>
        <time>2010-01-02T12:56:36Z</time>
      </trkpt>
      <trkpt lat="45.15056" lon="4.91219">
        <ele>239.64900207519</ele>
        <time>2010-01-02T12:56:44Z</time>
      </trkpt>
      <trkpt lat="45.15077" lon="4.91216">
        <ele>241.36000061035</ele>
        <time>2010-01-02T12:56:48Z</time>
      </trkpt>
      <trkpt lat="45.15122" lon="4.91208">
        <ele>242.39100646973</ele>
        <time>2010-01-02T12:56:57Z</time>
      </trkpt>
      <trkpt lat="45.15176" lon="4.91198">
        <ele>244.77499389648</ele>
        <time>2010-01-02T12:57:08Z</time>
      </trkpt>
      <trkpt lat="45.15199" lon="4.91194">
        <ele>245.70599365234</ele>
        <time>2010-01-02T12:57:13Z</time>
      </trkpt>
      <trkpt lat="45.15213" lon="4.91192">
        <ele>246.33399963379</ele>
        <time>2010-01-02T12:57:19Z</time>
      </trkpt>
      <trkpt lat="45.15287" lon="4.9123">
        <ele>247.43600463867</ele>
        <time>2010-01-02T12:57:32Z</time>
      </trkpt>
      <trkpt lat="45.15304" lon="4.91239">
        <ele>248.09700012207</ele>
        <time>2010-01-02T12:57:39Z</time>
      </trkpt>
      <trkpt lat="45.1536" lon="4.91275">
        <ele>249.72200012207</ele>
        <time>2010-01-02T12:57:48Z</time>
      </trkpt>
      <trkpt lat="45.15381" lon="4.91299">
        <ele>249.30000305176</ele>
        <time>2010-01-02T12:57:55Z</time>
      </trkpt>
      <trkpt lat="45.15381" lon="4.91299">
        <ele>250.05499267578</ele>
        <time>2010-01-02T12:57:57Z</time>
      </trkpt>
      <trkpt lat="45.15401" lon="4.91357">
        <ele>250.28700256348</ele>
        <time>2010-01-02T12:58:02Z</time>
      </trkpt>
      <trkpt lat="45.15409" lon="4.91384">
        <ele>249.82499694824</ele>
        <time>2010-01-02T12:58:06Z</time>
      </trkpt>
      <trkpt lat="45.15415" lon="4.91389">
        <ele>249.89199829102</ele>
        <time>2010-01-02T12:58:09Z</time>
      </trkpt>
      <trkpt lat="45.15425" lon="4.9143">
        <ele>250.54899597168</ele>
        <time>2010-01-02T12:58:13Z</time>
      </trkpt>
      <trkpt lat="45.15438" lon="4.91427">
        <ele>251.05400085449</ele>
        <time>2010-01-02T12:58:16Z</time>
      </trkpt>
      <trkpt lat="45.15442" lon="4.91419">
        <ele>250.35699462891</ele>
        <time>2010-01-02T12:58:18Z</time>
      </trkpt>
      <trkpt lat="45.15445" lon="4.91405">
        <ele>251.25399780273</ele>
        <time>2010-01-02T12:58:20Z</time>
      </trkpt>
      <trkpt lat="45.15451" lon="4.91378">
        <ele>252.77400207519</ele>
        <time>2010-01-02T12:58:23Z</time>
      </trkpt>
      <trkpt lat="45.15485" lon="4.91337">
        <ele>254.41900634766</ele>
        <time>2010-01-02T12:58:32Z</time>
      </trkpt>
      <trkpt lat="45.15517" lon="4.91299">
        <ele>256.38299560547</ele>
        <time>2010-01-02T12:58:41Z</time>
      </trkpt>
      <trkpt lat="45.15559" lon="4.91249">
        <ele>257.91598510742</ele>
        <time>2010-01-02T12:58:52Z</time>
      </trkpt>
      <trkpt lat="45.15598" lon="4.91204">
        <ele>257.71099853516</ele>
        <time>2010-01-02T12:59:01Z</time>
      </trkpt>
      <trkpt lat="45.15637" lon="4.91171">
        <ele>255.99800109863</ele>
        <time>2010-01-02T12:59:08Z</time>
      </trkpt>
      <trkpt lat="45.15648" lon="4.91161">
        <ele>255.03999328613</ele>
        <time>2010-01-02T12:59:10Z</time>
      </trkpt>
      <trkpt lat="45.15699" lon="4.91124">
        <ele>252.72099304199</ele>
        <time>2010-01-02T12:59:18Z</time>
      </trkpt>
      <trkpt lat="45.1576" lon="4.91083">
        <ele>250.2200012207</ele>
        <time>2010-01-02T12:59:27Z</time>
      </trkpt>
      <trkpt lat="45.15809" lon="4.9105">
        <ele>247.25</ele>
        <time>2010-01-02T12:59:34Z</time>
      </trkpt>
      <trkpt lat="45.15852" lon="4.91021">
        <ele>245.19900512695</ele>
        <time>2010-01-02T12:59:40Z</time>
      </trkpt>
      <trkpt lat="45.15891" lon="4.90989">
        <ele>244.92700195312</ele>
        <time>2010-01-02T12:59:46Z</time>
      </trkpt>
      <trkpt lat="45.15938" lon="4.90937">
        <ele>241.80599975586</ele>
        <time>2010-01-02T12:59:54Z</time>
      </trkpt>
      <trkpt lat="45.15956" lon="4.909">
        <ele>240.28100585938</ele>
        <time>2010-01-02T13:00:00Z</time>
      </trkpt>
      <trkpt lat="45.15995" lon="4.90799">
        <ele>238.73599243164</ele>
        <time>2010-01-02T13:00:09Z</time>
      </trkpt>
      <trkpt lat="45.16028" lon="4.90703">
        <ele>236.56199645996</ele>
        <time>2010-01-02T13:00:18Z</time>
      </trkpt>
      <trkpt lat="45.16057" lon="4.90618">
        <ele>235.01400756836</ele>
        <time>2010-01-02T13:00:26Z</time>
      </trkpt>
      <trkpt lat="45.16063" lon="4.90599">
        <ele>234.15800476074</ele>
        <time>2010-01-02T13:00:28Z</time>
      </trkpt>
      <trkpt lat="45.16087" lon="4.90525">
        <ele>232.46000671387</ele>
        <time>2010-01-02T13:00:35Z</time>
      </trkpt>
      <trkpt lat="45.16095" lon="4.90504">
        <ele>231.34700012207</ele>
        <time>2010-01-02T13:00:37Z</time>
      </trkpt>
      <trkpt lat="45.16118" lon="4.90452">
        <ele>229.43200683594</ele>
        <time>2010-01-02T13:00:42Z</time>
      </trkpt>
      <trkpt lat="45.16162" lon="4.90362">
        <ele>226.63900756836</ele>
        <time>2010-01-02T13:00:51Z</time>
      </trkpt>
      <trkpt lat="45.16205" lon="4.90274">
        <ele>224.43499755859</ele>
        <time>2010-01-02T13:01:00Z</time>
      </trkpt>
      <trkpt lat="45.16249" lon="4.90193">
        <ele>222.08399963379</ele>
        <time>2010-01-02T13:01:09Z</time>
      </trkpt>
      <trkpt lat="45.16306" lon="4.90098">
        <ele>219.88800048828</ele>
        <time>2010-01-02T13:01:20Z</time>
      </trkpt>
      <trkpt lat="45.16347" lon="4.90031">
        <ele>220.23199462891</ele>
        <time>2010-01-02T13:01:28Z</time>
      </trkpt>
      <trkpt lat="45.16372" lon="4.89971">
        <ele>220.46600341797</ele>
        <time>2010-01-02T13:01:35Z</time>
      </trkpt>
      <trkpt lat="45.164" lon="4.89899">
        <ele>220.10000610352</ele>
        <time>2010-01-02T13:01:44Z</time>
      </trkpt>
      <trkpt lat="45.1642" lon="4.89849">
        <ele>218.44099426269</ele>
        <time>2010-01-02T13:01:50Z</time>
      </trkpt>
      <trkpt lat="45.1642" lon="4.89849">
        <ele>217.16799926758</ele>
        <time>2010-01-02T13:01:53Z</time>
      </trkpt>
      <trkpt lat="45.16455" lon="4.89743">
        <ele>215.1549987793</ele>
        <time>2010-01-02T13:02:00Z</time>
      </trkpt>
      <trkpt lat="45.16477" lon="4.89651">
        <ele>211.68699645996</ele>
        <time>2010-01-02T13:02:08Z</time>
      </trkpt>
      <trkpt lat="45.16499" lon="4.89561">
        <ele>208.14700317383</ele>
        <time>2010-01-02T13:02:16Z</time>
      </trkpt>
      <trkpt lat="45.16515" lon="4.89496">
        <ele>204.94200134277</ele>
        <time>2010-01-02T13:02:21Z</time>
      </trkpt>
      <trkpt lat="45.16538" lon="4.89403">
        <ele>202.04400634766</ele>
        <time>2010-01-02T13:02:28Z</time>
      </trkpt>
      <trkpt lat="45.16542" lon="4.89391">
        <ele>201.44299316406</ele>
        <time>2010-01-02T13:02:29Z</time>
      </trkpt>
      <trkpt lat="45.1656" lon="4.89315">
        <ele>199.61199951172</ele>
        <time>2010-01-02T13:02:35Z</time>
      </trkpt>
      <trkpt lat="45.16579" lon="4.89261">
        <ele>200.24899291992</ele>
        <time>2010-01-02T13:02:40Z</time>
      </trkpt>
      <trkpt lat="45.16607" lon="4.89225">
        <ele>200.86599731445</ele>
        <time>2010-01-02T13:02:45Z</time>
      </trkpt>
      <trkpt lat="45.16626" lon="4.89209">
        <ele>200.92500305176</ele>
        <time>2010-01-02T13:02:50Z</time>
      </trkpt>
      <trkpt lat="45.16658" lon="4.89191">
        <ele>201.11599731445</ele>
        <time>2010-01-02T13:02:53Z</time>
      </trkpt>
      <trkpt lat="45.16714" lon="4.89173">
        <ele>200.80499267578</ele>
        <time>2010-01-02T13:03:01Z</time>
      </trkpt>
      <trkpt lat="45.16762" lon="4.89155">
        <ele>200.58799743652</ele>
        <time>2010-01-02T13:03:08Z</time>
      </trkpt>
      <trkpt lat="45.16796" lon="4.89128">
        <ele>200.42700195312</ele>
        <time>2010-01-02T13:03:14Z</time>
      </trkpt>
      <trkpt lat="45.16826" lon="4.89094">
        <ele>201.65299987793</ele>
        <time>2010-01-02T13:03:20Z</time>
      </trkpt>
      <trkpt lat="45.16837" lon="4.89073">
        <ele>201.63299560547</ele>
        <time>2010-01-02T13:03:23Z</time>
      </trkpt>
      <trkpt lat="45.16852" lon="4.89017">
        <ele>200.99499511719</ele>
        <time>2010-01-02T13:03:30Z</time>
      </trkpt>
      <trkpt lat="45.16869" lon="4.88921">
        <ele>199.94099426269</ele>
        <time>2010-01-02T13:03:40Z</time>
      </trkpt>
      <trkpt lat="45.16876" lon="4.8887">
        <ele>198.38900756836</ele>
        <time>2010-01-02T13:03:45Z</time>
      </trkpt>
      <trkpt lat="45.16886" lon="4.88818">
        <ele>196.375</ele>
        <time>2010-01-02T13:03:50Z</time>
      </trkpt>
      <trkpt lat="45.169" lon="4.88745">
        <ele>193.43099975586</ele>
        <time>2010-01-02T13:03:56Z</time>
      </trkpt>
      <trkpt lat="45.16903" lon="4.88732">
        <ele>193.18200683594</ele>
        <time>2010-01-02T13:03:57Z</time>
      </trkpt>
      <trkpt lat="45.16916" lon="4.88659">
        <ele>188.98599243164</ele>
        <time>2010-01-02T13:04:02Z</time>
      </trkpt>
      <trkpt lat="45.16922" lon="4.88628">
        <ele>188.17100524902</ele>
        <time>2010-01-02T13:04:04Z</time>
      </trkpt>
      <trkpt lat="45.16934" lon="4.88563">
        <ele>184.58000183106</ele>
        <time>2010-01-02T13:04:08Z</time>
      </trkpt>
      <trkpt lat="45.16946" lon="4.88499">
        <ele>183.00100708008</ele>
        <time>2010-01-02T13:04:12Z</time>
      </trkpt>
      <trkpt lat="45.16961" lon="4.88413">
        <ele>181.87899780273</ele>
        <time>2010-01-02T13:04:18Z</time>
      </trkpt>
      <trkpt lat="45.16976" lon="4.88327">
        <ele>182.51100158691</ele>
        <time>2010-01-02T13:04:25Z</time>
      </trkpt>
      <trkpt lat="45.16986" lon="4.88257">
        <ele>181.47099304199</ele>
        <time>2010-01-02T13:04:31Z</time>
      </trkpt>
      <trkpt lat="45.16989" lon="4.88209">
        <ele>180.76800537109</ele>
        <time>2010-01-02T13:04:35Z</time>
      </trkpt>
      <trkpt lat="45.16982" lon="4.88128">
        <ele>179.32899475098</ele>
        <time>2010-01-02T13:04:42Z</time>
      </trkpt>
      <trkpt lat="45.16974" lon="4.88053">
        <ele>178.04299926758</ele>
        <time>2010-01-02T13:04:48Z</time>
      </trkpt>
      <trkpt lat="45.16965" lon="4.87958">
        <ele>177.30799865723</ele>
        <time>2010-01-02T13:04:56Z</time>
      </trkpt>
      <trkpt lat="45.16973" lon="4.8789">
        <ele>177.48500061035</ele>
        <time>2010-01-02T13:05:02Z</time>
      </trkpt>
      <trkpt lat="45.16987" lon="4.87812">
        <ele>176.51400756836</ele>
        <time>2010-01-02T13:05:09Z</time>
      </trkpt>
      <trkpt lat="45.16993" lon="4.8778">
        <ele>176.70799255371</ele>
        <time>2010-01-02T13:05:12Z</time>
      </trkpt>
      <trkpt lat="45.16999" lon="4.8775">
        <ele>176.23100280762</ele>
        <time>2010-01-02T13:05:16Z</time>
      </trkpt>
      <trkpt lat="45.17017" lon="4.87663">
        <ele>175.55799865723</ele>
        <time>2010-01-02T13:05:23Z</time>
      </trkpt>
      <trkpt lat="45.17023" lon="4.87606">
        <ele>175.44599914551</ele>
        <time>2010-01-02T13:05:28Z</time>
      </trkpt>
      <trkpt lat="45.17022" lon="4.87535">
        <ele>175.22999572754</ele>
        <time>2010-01-02T13:05:35Z</time>
      </trkpt>
      <trkpt lat="45.17016" lon="4.87436">
        <ele>175.96899414062</ele>
        <time>2010-01-02T13:05:44Z</time>
      </trkpt>
      <trkpt lat="45.17011" lon="4.87385">
        <ele>176.30000305176</ele>
        <time>2010-01-02T13:05:49Z</time>
      </trkpt>
      <trkpt lat="45.17005" lon="4.87305">
        <ele>176.65600585938</ele>
        <time>2010-01-02T13:05:57Z</time>
      </trkpt>
      <trkpt lat="45.17001" lon="4.87246">
        <ele>177.23500061035</ele>
        <time>2010-01-02T13:06:03Z</time>
      </trkpt>
      <trkpt lat="45.16999" lon="4.87227">
        <ele>177.28199768066</ele>
        <time>2010-01-02T13:06:05Z</time>
      </trkpt>
      <trkpt lat="45.16999" lon="4.87222">
        <ele>177.53399658203</ele>
        <time>2010-01-02T13:06:09Z</time>
      </trkpt>
      <trkpt lat="45.1702" lon="4.87149">
        <ele>176.68299865723</ele>
        <time>2010-01-02T13:06:16Z</time>
      </trkpt>
      <trkpt lat="45.1705" lon="4.87071">
        <ele>176.07000732422</ele>
        <time>2010-01-02T13:06:24Z</time>
      </trkpt>
      <trkpt lat="45.17096" lon="4.86957">
        <ele>175.98699951172</ele>
        <time>2010-01-02T13:06:37Z</time>
      </trkpt>
      <trkpt lat="45.17135" lon="4.86867">
        <ele>176.45199584961</ele>
        <time>2010-01-02T13:06:48Z</time>
      </trkpt>
      <trkpt lat="45.17171" lon="4.86781">
        <ele>177.78399658203</ele>
        <time>2010-01-02T13:06:59Z</time>
      </trkpt>
      <trkpt lat="45.172" lon="4.86718">
        <ele>179.2799987793</ele>
        <time>2010-01-02T13:07:07Z</time>
      </trkpt>
      <trkpt lat="45.17236" lon="4.86641">
        <ele>177.17599487305</ele>
        <time>2010-01-02T13:07:16Z</time>
      </trkpt>
      <trkpt lat="45.17265" lon="4.86569">
        <ele>177.26600646973</ele>
        <time>2010-01-02T13:07:24Z</time>
      </trkpt>
      <trkpt lat="45.173" lon="4.86489">
        <ele>176.4940032959</ele>
        <time>2010-01-02T13:07:33Z</time>
      </trkpt>
      <trkpt lat="45.17334" lon="4.86409">
        <ele>176.33500671387</ele>
        <time>2010-01-02T13:07:42Z</time>
      </trkpt>
      <trkpt lat="45.17361" lon="4.8635">
        <ele>175.99699401856</ele>
        <time>2010-01-02T13:07:49Z</time>
      </trkpt>
      <trkpt lat="45.17404" lon="4.86244">
        <ele>175.69200134277</ele>
        <time>2010-01-02T13:08:01Z</time>
      </trkpt>
      <trkpt lat="45.17411" lon="4.86226">
        <ele>176.52200317383</ele>
        <time>2010-01-02T13:08:03Z</time>
      </trkpt>
      <trkpt lat="45.1743" lon="4.86174">
        <ele>175.16000366211</ele>
        <time>2010-01-02T13:08:09Z</time>
      </trkpt>
      <trkpt lat="45.17456" lon="4.86106">
        <ele>175.49200439453</ele>
        <time>2010-01-02T13:08:17Z</time>
      </trkpt>
      <trkpt lat="45.17472" lon="4.86062">
        <ele>176.85099792481</ele>
        <time>2010-01-02T13:08:22Z</time>
      </trkpt>
      <trkpt lat="45.17482" lon="4.86035">
        <ele>174.11399841309</ele>
        <time>2010-01-02T13:08:25Z</time>
      </trkpt>
      <trkpt lat="45.17518" lon="4.86012">
        <ele>172.74600219727</ele>
        <time>2010-01-02T13:08:29Z</time>
      </trkpt>
      <trkpt lat="45.17518" lon="4.86012">
        <ele>171.03199768066</ele>
        <time>2010-01-02T13:08:31Z</time>
      </trkpt>
      <trkpt lat="45.1757" lon="4.85909">
        <ele>170.31100463867</ele>
        <time>2010-01-02T13:08:41Z</time>
      </trkpt>
      <trkpt lat="45.17585" lon="4.8585">
        <ele>169.95399475098</ele>
        <time>2010-01-02T13:08:47Z</time>
      </trkpt>
      <trkpt lat="45.176" lon="4.85792">
        <ele>171.12199401856</ele>
        <time>2010-01-02T13:08:53Z</time>
      </trkpt>
      <trkpt lat="45.17627" lon="4.85759">
        <ele>171.96200561523</ele>
        <time>2010-01-02T13:08:58Z</time>
      </trkpt>
      <trkpt lat="45.17634" lon="4.85755">
        <ele>172.07800292969</ele>
        <time>2010-01-02T13:08:59Z</time>
      </trkpt>
      <trkpt lat="45.1767" lon="4.85731">
        <ele>173.26100158691</ele>
        <time>2010-01-02T13:09:05Z</time>
      </trkpt>
      <trkpt lat="45.17723" lon="4.85692">
        <ele>175.01699829102</ele>
        <time>2010-01-02T13:09:14Z</time>
      </trkpt>
      <trkpt lat="45.1778" lon="4.85638">
        <ele>175.35200500488</ele>
        <time>2010-01-02T13:09:24Z</time>
      </trkpt>
      <trkpt lat="45.17822" lon="4.85591">
        <ele>177.00999450684</ele>
        <time>2010-01-02T13:09:32Z</time>
      </trkpt>
      <trkpt lat="45.17853" lon="4.85542">
        <ele>178.4940032959</ele>
        <time>2010-01-02T13:09:39Z</time>
      </trkpt>
      <trkpt lat="45.17875" lon="4.85497">
        <ele>180.39300537109</ele>
        <time>2010-01-02T13:09:45Z</time>
      </trkpt>
      <trkpt lat="45.17878" lon="4.85489">
        <ele>180.85699462891</ele>
        <time>2010-01-02T13:09:46Z</time>
      </trkpt>
      <trkpt lat="45.17883" lon="4.8548">
        <ele>181.80099487305</ele>
        <time>2010-01-02T13:09:50Z</time>
      </trkpt>
      <trkpt lat="45.17875" lon="4.85381">
        <ele>181.87100219727</ele>
        <time>2010-01-02T13:09:59Z</time>
      </trkpt>
      <trkpt lat="45.1787" lon="4.85352">
        <ele>180.75</ele>
        <time>2010-01-02T13:10:02Z</time>
      </trkpt>
      <trkpt lat="45.17866" lon="4.85332">
        <ele>180.56500244141</ele>
        <time>2010-01-02T13:10:04Z</time>
      </trkpt>
      <trkpt lat="45.17871" lon="4.85257">
        <ele>178.64199829102</ele>
        <time>2010-01-02T13:10:11Z</time>
      </trkpt>
      <trkpt lat="45.17876" lon="4.85237">
        <ele>177.88000488281</ele>
        <time>2010-01-02T13:10:13Z</time>
      </trkpt>
      <trkpt lat="45.17897" lon="4.85191">
        <ele>177.53799438477</ele>
        <time>2010-01-02T13:10:18Z</time>
      </trkpt>
      <trkpt lat="45.17937" lon="4.85127">
        <ele>175.18099975586</ele>
        <time>2010-01-02T13:10:26Z</time>
      </trkpt>
      <trkpt lat="45.17959" lon="4.85094">
        <ele>173.46499633789</ele>
        <time>2010-01-02T13:10:30Z</time>
      </trkpt>
      <trkpt lat="45.17976" lon="4.85056">
        <ele>171.57299804688</ele>
        <time>2010-01-02T13:10:34Z</time>
      </trkpt>
      <trkpt lat="45.17979" lon="4.85043">
        <ele>171.37699890137</ele>
        <time>2010-01-02T13:10:35Z</time>
      </trkpt>
      <trkpt lat="45.17986" lon="4.85012">
        <ele>170.11700439453</ele>
        <time>2010-01-02T13:10:38Z</time>
      </trkpt>
      <trkpt lat="45.17986" lon="4.84958">
        <ele>169.11099243164</ele>
        <time>2010-01-02T13:10:43Z</time>
      </trkpt>
      <trkpt lat="45.17986" lon="4.84941">
        <ele>169.2380065918</ele>
        <time>2010-01-02T13:10:45Z</time>
      </trkpt>
      <trkpt lat="45.17986" lon="4.84926">
        <ele>168.5359954834</ele>
        <time>2010-01-02T13:10:48Z</time>
      </trkpt>
      <trkpt lat="45.17986" lon="4.84888">
        <ele>167.30200195312</ele>
        <time>2010-01-02T13:10:53Z</time>
      </trkpt>
      <trkpt lat="45.1799" lon="4.8481">
        <ele>166.1309967041</ele>
        <time>2010-01-02T13:11:00Z</time>
      </trkpt>
      <trkpt lat="45.17987" lon="4.84771">
        <ele>165.54400634766</ele>
        <time>2010-01-02T13:11:04Z</time>
      </trkpt>
      <trkpt lat="45.17977" lon="4.84722">
        <ele>164.91999816894</ele>
        <time>2010-01-02T13:11:09Z</time>
      </trkpt>
      <trkpt lat="45.17949" lon="4.84641">
        <ele>163.76800537109</ele>
        <time>2010-01-02T13:11:17Z</time>
      </trkpt>
      <trkpt lat="45.17918" lon="4.84561">
        <ele>163.66499328613</ele>
        <time>2010-01-02T13:11:25Z</time>
      </trkpt>
      <trkpt lat="45.17889" lon="4.84476">
        <ele>165.34800720215</ele>
        <time>2010-01-02T13:11:34Z</time>
      </trkpt>
      <trkpt lat="45.17879" lon="4.84437">
        <ele>163.55900573731</ele>
        <time>2010-01-02T13:11:40Z</time>
      </trkpt>
      <trkpt lat="45.17865" lon="4.8437">
        <ele>163.47799682617</ele>
        <time>2010-01-02T13:11:45Z</time>
      </trkpt>
      <trkpt lat="45.17857" lon="4.84322">
        <ele>164.19500732422</ele>
        <time>2010-01-02T13:11:50Z</time>
      </trkpt>
      <trkpt lat="45.17867" lon="4.84273">
        <ele>164.25900268555</ele>
        <time>2010-01-02T13:11:55Z</time>
      </trkpt>
      <trkpt lat="45.17895" lon="4.8422">
        <ele>163.82800292969</ele>
        <time>2010-01-02T13:12:01Z</time>
      </trkpt>
      <trkpt lat="45.17905" lon="4.84166">
        <ele>161.3869934082</ele>
        <time>2010-01-02T13:12:06Z</time>
      </trkpt>
      <trkpt lat="45.17908" lon="4.84132">
        <ele>159.88800048828</ele>
        <time>2010-01-02T13:12:09Z</time>
      </trkpt>
      <trkpt lat="45.17908" lon="4.84071">
        <ele>156.70700073242</ele>
        <time>2010-01-02T13:12:13Z</time>
      </trkpt>
      <trkpt lat="45.17908" lon="4.84057">
        <ele>156.41999816894</ele>
        <time>2010-01-02T13:12:14Z</time>
      </trkpt>
      <trkpt lat="45.17908" lon="4.84043">
        <ele>155.75399780273</ele>
        <time>2010-01-02T13:12:15Z</time>
      </trkpt>
      <trkpt lat="45.17905" lon="4.83979">
        <ele>153.42700195312</ele>
        <time>2010-01-02T13:12:19Z</time>
      </trkpt>
      <trkpt lat="45.17905" lon="4.83961">
        <ele>153.21099853516</ele>
        <time>2010-01-02T13:12:20Z</time>
      </trkpt>
      <trkpt lat="45.17919" lon="4.8385">
        <ele>150.69599914551</ele>
        <time>2010-01-02T13:12:27Z</time>
      </trkpt>
      <trkpt lat="45.17926" lon="4.8382">
        <ele>149.86199951172</ele>
        <time>2010-01-02T13:12:29Z</time>
      </trkpt>
      <trkpt lat="45.17941" lon="4.83767">
        <ele>148.62399291992</ele>
        <time>2010-01-02T13:12:33Z</time>
      </trkpt>
      <trkpt lat="45.1795" lon="4.8374">
        <ele>148.77799987793</ele>
        <time>2010-01-02T13:12:35Z</time>
      </trkpt>
      <trkpt lat="45.17981" lon="4.83672">
        <ele>148.06799316406</ele>
        <time>2010-01-02T13:12:41Z</time>
      </trkpt>
      <trkpt lat="45.18008" lon="4.83612">
        <ele>148.04699707031</ele>
        <time>2010-01-02T13:12:46Z</time>
      </trkpt>
      <trkpt lat="45.18015" lon="4.83603">
        <ele>148.07499694824</ele>
        <time>2010-01-02T13:12:47Z</time>
      </trkpt>
      <trkpt lat="45.18057" lon="4.8355">
        <ele>148.04299926758</ele>
        <time>2010-01-02T13:12:53Z</time>
      </trkpt>
      <trkpt lat="45.18071" lon="4.83532">
        <ele>148.0059967041</ele>
        <time>2010-01-02T13:12:55Z</time>
      </trkpt>
      <trkpt lat="45.18093" lon="4.83497">
        <ele>148.3390045166</ele>
        <time>2010-01-02T13:12:59Z</time>
      </trkpt>
      <trkpt lat="45.18098" lon="4.83466">
        <ele>148.79100036621</ele>
        <time>2010-01-02T13:13:02Z</time>
      </trkpt>
      <trkpt lat="45.1809" lon="4.83432">
        <ele>149.79499816894</ele>
        <time>2010-01-02T13:13:05Z</time>
      </trkpt>
      <trkpt lat="45.18086" lon="4.83422">
        <ele>150.07000732422</ele>
        <time>2010-01-02T13:13:06Z</time>
      </trkpt>
      <trkpt lat="45.18058" lon="4.83376">
        <ele>151.57899475098</ele>
        <time>2010-01-02T13:13:11Z</time>
      </trkpt>
      <trkpt lat="45.1803" lon="4.83338">
        <ele>153.00700378418</ele>
        <time>2010-01-02T13:13:16Z</time>
      </trkpt>
      <trkpt lat="45.18019" lon="4.83324">
        <ele>153.04400634766</ele>
        <time>2010-01-02T13:13:18Z</time>
      </trkpt>
      <trkpt lat="45.1799" lon="4.833">
        <ele>152.38900756836</ele>
        <time>2010-01-02T13:13:23Z</time>
      </trkpt>
      <trkpt lat="45.17971" lon="4.833">
        <ele>151.92999267578</ele>
        <time>2010-01-02T13:13:26Z</time>
      </trkpt>
      <trkpt lat="45.17911" lon="4.83324">
        <ele>148.71000671387</ele>
        <time>2010-01-02T13:13:34Z</time>
      </trkpt>
      <trkpt lat="45.17871" lon="4.83341">
        <ele>147.66200256348</ele>
        <time>2010-01-02T13:13:39Z</time>
      </trkpt>
      <trkpt lat="45.17831" lon="4.83339">
        <ele>146.6609954834</ele>
        <time>2010-01-02T13:13:44Z</time>
      </trkpt>
      <trkpt lat="45.17817" lon="4.83336">
        <ele>145.94000244141</ele>
        <time>2010-01-02T13:13:46Z</time>
      </trkpt>
      <trkpt lat="45.1779" lon="4.83321">
        <ele>145.93200683594</ele>
        <time>2010-01-02T13:13:50Z</time>
      </trkpt>
      <trkpt lat="45.17768" lon="4.83288">
        <ele>145.38600158691</ele>
        <time>2010-01-02T13:13:54Z</time>
      </trkpt>
      <trkpt lat="45.17739" lon="4.83204">
        <ele>144.27099609375</ele>
        <time>2010-01-02T13:14:02Z</time>
      </trkpt>
      <trkpt lat="45.17728" lon="4.83171">
        <ele>143.84100341797</ele>
        <time>2010-01-02T13:14:08Z</time>
      </trkpt>
      <trkpt lat="45.17707" lon="4.83051">
        <ele>144.41000366211</ele>
        <time>2010-01-02T13:14:15Z</time>
      </trkpt>
      <trkpt lat="45.17703" lon="4.83028">
        <ele>144.62800598144</ele>
        <time>2010-01-02T13:14:17Z</time>
      </trkpt>
      <trkpt lat="45.17698" lon="4.82999">
        <ele>144.5890045166</ele>
        <time>2010-01-02T13:14:21Z</time>
      </trkpt>
      <trkpt lat="45.17669" lon="4.82967">
        <ele>145.08099365234</ele>
        <time>2010-01-02T13:14:24Z</time>
      </trkpt>
      <trkpt lat="45.17642" lon="4.82965">
        <ele>144.7140045166</ele>
        <time>2010-01-02T13:14:27Z</time>
      </trkpt>
      <trkpt lat="45.17582" lon="4.82984">
        <ele>144.78999328613</ele>
        <time>2010-01-02T13:14:34Z</time>
      </trkpt>
      <trkpt lat="45.17526" lon="4.83004">
        <ele>145.42599487305</ele>
        <time>2010-01-02T13:14:41Z</time>
      </trkpt>
      <trkpt lat="45.17497" lon="4.83015">
        <ele>146.2440032959</ele>
        <time>2010-01-02T13:14:45Z</time>
      </trkpt>
      <trkpt lat="45.17461" lon="4.83011">
        <ele>146.12899780273</ele>
        <time>2010-01-02T13:14:50Z</time>
      </trkpt>
      <trkpt lat="45.17453" lon="4.83006">
        <ele>146.42599487305</ele>
        <time>2010-01-02T13:14:51Z</time>
      </trkpt>
      <trkpt lat="45.17403" lon="4.82965">
        <ele>145.92700195312</ele>
        <time>2010-01-02T13:14:58Z</time>
      </trkpt>
      <trkpt lat="45.17397" lon="4.82959">
        <ele>145.80799865723</ele>
        <time>2010-01-02T13:14:59Z</time>
      </trkpt>
      <trkpt lat="45.17374" lon="4.82912">
        <ele>144.68099975586</ele>
        <time>2010-01-02T13:15:04Z</time>
      </trkpt>
      <trkpt lat="45.17368" lon="4.82878">
        <ele>143.61500549316</ele>
        <time>2010-01-02T13:15:07Z</time>
      </trkpt>
      <trkpt lat="45.1737" lon="4.82841">
        <ele>142.66799926758</ele>
        <time>2010-01-02T13:15:10Z</time>
      </trkpt>
      <trkpt lat="45.17393" lon="4.82761">
        <ele>141.06599426269</ele>
        <time>2010-01-02T13:15:17Z</time>
      </trkpt>
      <trkpt lat="45.17411" lon="4.827">
        <ele>140.06300354004</ele>
        <time>2010-01-02T13:15:22Z</time>
      </trkpt>
      <trkpt lat="45.17417" lon="4.82653">
        <ele>140.62100219727</ele>
        <time>2010-01-02T13:15:26Z</time>
      </trkpt>
      <trkpt lat="45.17419" lon="4.82617">
        <ele>139.80599975586</ele>
        <time>2010-01-02T13:15:29Z</time>
      </trkpt>
      <trkpt lat="45.17407" lon="4.82587">
        <ele>139.56700134277</ele>
        <time>2010-01-02T13:15:32Z</time>
      </trkpt>
      <trkpt lat="45.1737" lon="4.82524">
        <ele>138.40800476074</ele>
        <time>2010-01-02T13:15:39Z</time>
      </trkpt>
      <trkpt lat="45.17343" lon="4.82467">
        <ele>138.28300476074</ele>
        <time>2010-01-02T13:15:45Z</time>
      </trkpt>
      <trkpt lat="45.17319" lon="4.82401">
        <ele>138.75799560547</ele>
        <time>2010-01-02T13:15:52Z</time>
      </trkpt>
      <trkpt lat="45.17316" lon="4.8239">
        <ele>139.20199584961</ele>
        <time>2010-01-02T13:15:57Z</time>
      </trkpt>
      <trkpt lat="45.1731" lon="4.8232">
        <ele>139.63400268555</ele>
        <time>2010-01-02T13:16:01Z</time>
      </trkpt>
      <trkpt lat="45.17314" lon="4.82304">
        <ele>140.25399780273</ele>
        <time>2010-01-02T13:16:03Z</time>
      </trkpt>
      <trkpt lat="45.1732" lon="4.82288">
        <ele>140.7799987793</ele>
        <time>2010-01-02T13:16:05Z</time>
      </trkpt>
      <trkpt lat="45.17329" lon="4.82279">
        <ele>140.98599243164</ele>
        <time>2010-01-02T13:16:07Z</time>
      </trkpt>
      <trkpt lat="45.17367" lon="4.82244">
        <ele>140.35299682617</ele>
        <time>2010-01-02T13:16:15Z</time>
      </trkpt>
      <trkpt lat="45.17404" lon="4.82215">
        <ele>138.20300292969</ele>
        <time>2010-01-02T13:16:22Z</time>
      </trkpt>
      <trkpt lat="45.17446" lon="4.82183">
        <ele>137.6130065918</ele>
        <time>2010-01-02T13:16:29Z</time>
      </trkpt>
      <trkpt lat="45.17458" lon="4.82174">
        <ele>137.59700012207</ele>
        <time>2010-01-02T13:16:31Z</time>
      </trkpt>
      <trkpt lat="45.17476" lon="4.82161">
        <ele>136.19000244141</ele>
        <time>2010-01-02T13:16:34Z</time>
      </trkpt>
      <trkpt lat="45.17499" lon="4.8214">
        <ele>136.34599304199</ele>
        <time>2010-01-02T13:16:38Z</time>
      </trkpt>
      <trkpt lat="45.17505" lon="4.82137">
        <ele>135.54299926758</ele>
        <time>2010-01-02T13:16:40Z</time>
      </trkpt>
      <trkpt lat="45.17505" lon="4.82137">
        <ele>135.14900207519</ele>
        <time>2010-01-02T13:16:44Z</time>
      </trkpt>
      <trkpt lat="45.17526" lon="4.82129">
        <ele>135.01899719238</ele>
        <time>2010-01-02T13:16:48Z</time>
      </trkpt>
      <trkpt lat="45.17527" lon="4.82122">
        <ele>135.39900207519</ele>
        <time>2010-01-02T13:16:50Z</time>
      </trkpt>
      <trkpt lat="45.17557" lon="4.82086">
        <ele>134.76300048828</ele>
        <time>2010-01-02T13:16:56Z</time>
      </trkpt>
      <trkpt lat="45.17574" lon="4.82061">
        <ele>135</ele>
        <time>2010-01-02T13:17:01Z</time>
      </trkpt>
      <trkpt lat="45.17583" lon="4.82049">
        <ele>134.25</ele>
        <time>2010-01-02T13:17:04Z</time>
      </trkpt>
      <trkpt lat="45.17518" lon="4.82072">
        <ele>133.37600708008</ele>
        <time>2010-01-02T13:17:07Z</time>
      </trkpt>
      <trkpt lat="45.17576" lon="4.82027">
        <ele>133.62699890137</ele>
        <time>2010-01-02T13:17:08Z</time>
      </trkpt>
      <trkpt lat="45.17571" lon="4.82032">
        <ele>133.79699707031</ele>
        <time>2010-01-02T13:17:10Z</time>
      </trkpt>
      <trkpt lat="45.17548" lon="4.82055">
        <ele>134.03300476074</ele>
        <time>2010-01-02T13:17:16Z</time>
      </trkpt>
      <trkpt lat="45.1753" lon="4.82073">
        <ele>134.46299743652</ele>
        <time>2010-01-02T13:17:20Z</time>
      </trkpt>
      <trkpt lat="45.17527" lon="4.82119">
        <ele>134.87399291992</ele>
        <time>2010-01-02T13:17:24Z</time>
      </trkpt>
      <trkpt lat="45.17527" lon="4.8212">
        <ele>135.64900207519</ele>
        <time>2010-01-02T13:17:28Z</time>
      </trkpt>
      <trkpt lat="45.17501" lon="4.82139">
        <ele>135.54299926758</ele>
        <time>2010-01-02T13:17:30Z</time>
      </trkpt>
      <trkpt lat="45.17476" lon="4.82161">
        <ele>135.82699584961</ele>
        <time>2010-01-02T13:17:36Z</time>
      </trkpt>
      <trkpt lat="45.17471" lon="4.82165">
        <ele>135.81900024414</ele>
        <time>2010-01-02T13:17:37Z</time>
      </trkpt>
      <trkpt lat="45.17461" lon="4.82172">
        <ele>136.00999450684</ele>
        <time>2010-01-02T13:17:39Z</time>
      </trkpt>
      <trkpt lat="45.17419" lon="4.82204">
        <ele>137.00100708008</ele>
        <time>2010-01-02T13:17:47Z</time>
      </trkpt>
      <trkpt lat="45.17381" lon="4.82232">
        <ele>138.48599243164</ele>
        <time>2010-01-02T13:17:55Z</time>
      </trkpt>
      <trkpt lat="45.17344" lon="4.82259">
        <ele>140.13999938965</ele>
        <time>2010-01-02T13:18:03Z</time>
      </trkpt>
      <trkpt lat="45.17327" lon="4.82276">
        <ele>139.8690032959</ele>
        <time>2010-01-02T13:18:07Z</time>
      </trkpt>
      <trkpt lat="45.17318" lon="4.82285">
        <ele>139.72599792481</ele>
        <time>2010-01-02T13:18:09Z</time>
      </trkpt>
      <trkpt lat="45.17308" lon="4.82328">
        <ele>138.88499450684</ele>
        <time>2010-01-02T13:18:14Z</time>
      </trkpt>
      <trkpt lat="45.17288" lon="4.82343">
        <ele>137.61799621582</ele>
        <time>2010-01-02T13:18:17Z</time>
      </trkpt>
      <trkpt lat="45.1728" lon="4.82369">
        <ele>137.14500427246</ele>
        <time>2010-01-02T13:18:20Z</time>
      </trkpt>
      <trkpt lat="45.17278" lon="4.82386">
        <ele>137.13900756836</ele>
        <time>2010-01-02T13:18:22Z</time>
      </trkpt>
      <trkpt lat="45.17278" lon="4.82391">
        <ele>137.23899841309</ele>
        <time>2010-01-02T13:18:23Z</time>
      </trkpt>
      <trkpt lat="45.17351" lon="4.82363">
        <ele>138.27699279785</ele>
        <time>2010-01-02T13:18:28Z</time>
      </trkpt>
      <trkpt lat="45.17343" lon="4.82469">
        <ele>137.66000366211</ele>
        <time>2010-01-02T13:18:35Z</time>
      </trkpt>
      <trkpt lat="45.17375" lon="4.82531">
        <ele>137.49299621582</ele>
        <time>2010-01-02T13:18:43Z</time>
      </trkpt>
      <trkpt lat="45.17405" lon="4.82582">
        <ele>138.00999450684</ele>
        <time>2010-01-02T13:18:50Z</time>
      </trkpt>
      <trkpt lat="45.17419" lon="4.82623">
        <ele>138.6549987793</ele>
        <time>2010-01-02T13:18:55Z</time>
      </trkpt>
      <trkpt lat="45.17417" lon="4.8266">
        <ele>139.27900695801</ele>
        <time>2010-01-02T13:18:59Z</time>
      </trkpt>
      <trkpt lat="45.17416" lon="4.82678">
        <ele>139.19099426269</ele>
        <time>2010-01-02T13:19:01Z</time>
      </trkpt>
      <trkpt lat="45.17402" lon="4.82731">
        <ele>140.95300292969</ele>
        <time>2010-01-02T13:19:08Z</time>
      </trkpt>
      <trkpt lat="45.17389" lon="4.82777">
        <ele>142.5950012207</ele>
        <time>2010-01-02T13:19:15Z</time>
      </trkpt>
      <trkpt lat="45.17378" lon="4.82813">
        <ele>143.06700134277</ele>
        <time>2010-01-02T13:19:21Z</time>
      </trkpt>
      <trkpt lat="45.17373" lon="4.82831">
        <ele>143.54600524902</ele>
        <time>2010-01-02T13:19:25Z</time>
      </trkpt>
      <trkpt lat="45.17378" lon="4.82844">
        <ele>143.39500427246</ele>
        <time>2010-01-02T13:19:30Z</time>
      </trkpt>
      <trkpt lat="45.17379" lon="4.82844">
        <ele>143.32299804688</ele>
        <time>2010-01-02T13:19:32Z</time>
      </trkpt>
      <trkpt lat="45.17373" lon="4.82831">
        <ele>142.25700378418</ele>
        <time>2010-01-02T13:26:15Z</time>
      </trkpt>
      <trkpt lat="45.17374" lon="4.82827">
        <ele>142.28100585938</ele>
        <time>2010-01-02T13:26:17Z</time>
      </trkpt>
      <trkpt lat="45.17379" lon="4.82811">
        <ele>141.97099304199</ele>
        <time>2010-01-02T13:26:22Z</time>
      </trkpt>
      <trkpt lat="45.17387" lon="4.82784">
        <ele>141.27400207519</ele>
        <time>2010-01-02T13:26:27Z</time>
      </trkpt>
      <trkpt lat="45.174" lon="4.82738">
        <ele>140.03799438477</ele>
        <time>2010-01-02T13:26:33Z</time>
      </trkpt>
      <trkpt lat="45.17416" lon="4.82673">
        <ele>139.14599609375</ele>
        <time>2010-01-02T13:26:41Z</time>
      </trkpt>
      <trkpt lat="45.17419" lon="4.82619">
        <ele>138.29499816894</ele>
        <time>2010-01-02T13:26:47Z</time>
      </trkpt>
      <trkpt lat="45.17409" lon="4.82591">
        <ele>137.89900207519</ele>
        <time>2010-01-02T13:26:51Z</time>
      </trkpt>
      <trkpt lat="45.17405" lon="4.82583">
        <ele>138.0299987793</ele>
        <time>2010-01-02T13:26:52Z</time>
      </trkpt>
      <trkpt lat="45.17373" lon="4.82528">
        <ele>137.99600219727</ele>
        <time>2010-01-02T13:27:00Z</time>
      </trkpt>
      <trkpt lat="45.17348" lon="4.8248">
        <ele>137.06700134277</ele>
        <time>2010-01-02T13:27:07Z</time>
      </trkpt>
      <trkpt lat="45.17336" lon="4.82451">
        <ele>137.36999511719</ele>
        <time>2010-01-02T13:27:11Z</time>
      </trkpt>
      <trkpt lat="45.17321" lon="4.82407">
        <ele>137.66799926758</ele>
        <time>2010-01-02T13:27:17Z</time>
      </trkpt>
      <trkpt lat="45.17316" lon="4.8239">
        <ele>137.74699401856</ele>
        <time>2010-01-02T13:27:21Z</time>
      </trkpt>
      <trkpt lat="45.17316" lon="4.8239">
        <ele>138.94200134277</ele>
        <time>2010-01-02T13:27:24Z</time>
      </trkpt>
      <trkpt lat="45.17311" lon="4.82318">
        <ele>138.57099914551</ele>
        <time>2010-01-02T13:27:29Z</time>
      </trkpt>
      <trkpt lat="45.17312" lon="4.82311">
        <ele>138.62100219727</ele>
        <time>2010-01-02T13:27:30Z</time>
      </trkpt>
      <trkpt lat="45.17329" lon="4.82279">
        <ele>139.30799865723</ele>
        <time>2010-01-02T13:27:36Z</time>
      </trkpt>
      <trkpt lat="45.17361" lon="4.8225">
        <ele>138.63900756836</ele>
        <time>2010-01-02T13:27:44Z</time>
      </trkpt>
      <trkpt lat="45.17376" lon="4.82235">
        <ele>137.27200317383</ele>
        <time>2010-01-02T13:27:51Z</time>
      </trkpt>
      <trkpt lat="45.17434" lon="4.82192">
        <ele>136.31500244141</ele>
        <time>2010-01-02T13:27:57Z</time>
      </trkpt>
      <trkpt lat="45.17471" lon="4.82164">
        <ele>135.24699401856</ele>
        <time>2010-01-02T13:28:03Z</time>
      </trkpt>
      <trkpt lat="45.17477" lon="4.8216">
        <ele>135.15400695801</ele>
        <time>2010-01-02T13:28:04Z</time>
      </trkpt>
      <trkpt lat="45.17505" lon="4.82137">
        <ele>134.84399414062</ele>
        <time>2010-01-02T13:28:09Z</time>
      </trkpt>
      <trkpt lat="45.17505" lon="4.82137">
        <ele>134.81300354004</ele>
        <time>2010-01-02T13:28:11Z</time>
      </trkpt>
      <trkpt lat="45.17556" lon="4.82087">
        <ele>134.60800170898</ele>
        <time>2010-01-02T13:28:18Z</time>
      </trkpt>
      <trkpt lat="45.17571" lon="4.82065">
        <ele>134.43499755859</ele>
        <time>2010-01-02T13:28:21Z</time>
      </trkpt>
      <trkpt lat="45.17608" lon="4.81997">
        <ele>133.18099975586</ele>
        <time>2010-01-02T13:28:29Z</time>
      </trkpt>
      <trkpt lat="45.1763" lon="4.81956">
        <ele>132.41799926758</ele>
        <time>2010-01-02T13:28:34Z</time>
      </trkpt>
      <trkpt lat="45.17647" lon="4.81927">
        <ele>132.72399902344</ele>
        <time>2010-01-02T13:28:38Z</time>
      </trkpt>
      <trkpt lat="45.17664" lon="4.81898">
        <ele>132.57099914551</ele>
        <time>2010-01-02T13:28:42Z</time>
      </trkpt>
      <trkpt lat="45.17669" lon="4.8189">
        <ele>132.40100097656</ele>
        <time>2010-01-02T13:28:43Z</time>
      </trkpt>
      <trkpt lat="45.17681" lon="4.81858">
        <ele>131.95500183106</ele>
        <time>2010-01-02T13:28:47Z</time>
      </trkpt>
      <trkpt lat="45.17702" lon="4.81795">
        <ele>131.46299743652</ele>
        <time>2010-01-02T13:28:54Z</time>
      </trkpt>
      <trkpt lat="45.1771" lon="4.8177">
        <ele>131.88400268555</ele>
        <time>2010-01-02T13:28:57Z</time>
      </trkpt>
      <trkpt lat="45.17715" lon="4.81737">
        <ele>131.54699707031</ele>
        <time>2010-01-02T13:29:01Z</time>
      </trkpt>
      <trkpt lat="45.17715" lon="4.81686">
        <ele>131.14500427246</ele>
        <time>2010-01-02T13:29:06Z</time>
      </trkpt>
      <trkpt lat="45.17714" lon="4.81611">
        <ele>130.67300415039</ele>
        <time>2010-01-02T13:29:14Z</time>
      </trkpt>
      <trkpt lat="45.17713" lon="4.81586">
        <ele>131.4109954834</ele>
        <time>2010-01-02T13:29:17Z</time>
      </trkpt>
      <trkpt lat="45.17713" lon="4.81548">
        <ele>131.41000366211</ele>
        <time>2010-01-02T13:29:21Z</time>
      </trkpt>
      <trkpt lat="45.17727" lon="4.81501">
        <ele>131.38900756836</ele>
        <time>2010-01-02T13:29:27Z</time>
      </trkpt>
      <trkpt lat="45.17737" lon="4.81467">
        <ele>132.44000244141</ele>
        <time>2010-01-02T13:29:33Z</time>
      </trkpt>
      <trkpt lat="45.17737" lon="4.81467">
        <ele>132.15600585938</ele>
        <time>2010-01-02T13:29:37Z</time>
      </trkpt>
      <trkpt lat="45.17746" lon="4.81446">
        <ele>132.47999572754</ele>
        <time>2010-01-02T13:29:42Z</time>
      </trkpt>
      <trkpt lat="45.17781" lon="4.81401">
        <ele>131.8690032959</ele>
        <time>2010-01-02T13:29:46Z</time>
      </trkpt>
      <trkpt lat="45.17777" lon="4.81392">
        <ele>131.63200378418</ele>
        <time>2010-01-02T13:29:48Z</time>
      </trkpt>
      <trkpt lat="45.17768" lon="4.81354">
        <ele>131.10400390625</ele>
        <time>2010-01-02T13:29:54Z</time>
      </trkpt>
      <trkpt lat="45.17775" lon="4.81336">
        <ele>131.29299926758</ele>
        <time>2010-01-02T13:29:57Z</time>
      </trkpt>
      <trkpt lat="45.17791" lon="4.81329">
        <ele>130.4109954834</ele>
        <time>2010-01-02T13:30:00Z</time>
      </trkpt>
      <trkpt lat="45.17801" lon="4.81326">
        <ele>130.7200012207</ele>
        <time>2010-01-02T13:30:02Z</time>
      </trkpt>
      <trkpt lat="45.17818" lon="4.81327">
        <ele>132.16799926758</ele>
        <time>2010-01-02T13:30:06Z</time>
      </trkpt>
      <trkpt lat="45.1784" lon="4.8133">
        <ele>131.51400756836</ele>
        <time>2010-01-02T13:30:11Z</time>
      </trkpt>
      <trkpt lat="45.17869" lon="4.81338">
        <ele>131.20100402832</ele>
        <time>2010-01-02T13:30:16Z</time>
      </trkpt>
      <trkpt lat="45.17882" lon="4.81343">
        <ele>130.94299316406</ele>
        <time>2010-01-02T13:30:18Z</time>
      </trkpt>
      <trkpt lat="45.17908" lon="4.81353">
        <ele>131.68499755859</ele>
        <time>2010-01-02T13:30:22Z</time>
      </trkpt>
      <trkpt lat="45.17949" lon="4.81368">
        <ele>131.68600463867</ele>
        <time>2010-01-02T13:30:28Z</time>
      </trkpt>
      <trkpt lat="45.17995" lon="4.81381">
        <ele>130.78300476074</ele>
        <time>2010-01-02T13:30:36Z</time>
      </trkpt>
      <trkpt lat="45.18042" lon="4.81395">
        <ele>130.90899658203</ele>
        <time>2010-01-02T13:30:44Z</time>
      </trkpt>
      <trkpt lat="45.18088" lon="4.814">
        <ele>130.35200500488</ele>
        <time>2010-01-02T13:30:52Z</time>
      </trkpt>
      <trkpt lat="45.18132" lon="4.81401">
        <ele>131.04800415039</ele>
        <time>2010-01-02T13:30:59Z</time>
      </trkpt>
      <trkpt lat="45.18179" lon="4.81394">
        <ele>130.97799682617</ele>
        <time>2010-01-02T13:31:07Z</time>
      </trkpt>
      <trkpt lat="45.18239" lon="4.81389">
        <ele>130.94299316406</ele>
        <time>2010-01-02T13:31:17Z</time>
      </trkpt>
      <trkpt lat="45.1828" lon="4.81386">
        <ele>131.71699523926</ele>
        <time>2010-01-02T13:31:24Z</time>
      </trkpt>
      <trkpt lat="45.18328" lon="4.81381">
        <ele>132.04600524902</ele>
        <time>2010-01-02T13:31:33Z</time>
      </trkpt>
      <trkpt lat="45.18371" lon="4.81378">
        <ele>136.00199890137</ele>
        <time>2010-01-02T13:31:42Z</time>
      </trkpt>
      <trkpt lat="45.18402" lon="4.81377">
        <ele>136.83500671387</ele>
        <time>2010-01-02T13:31:49Z</time>
      </trkpt>
      <trkpt lat="45.18423" lon="4.81377">
        <ele>137.4109954834</ele>
        <time>2010-01-02T13:31:54Z</time>
      </trkpt>
      <trkpt lat="45.18423" lon="4.81377">
        <ele>138.03399658203</ele>
        <time>2010-01-02T13:31:57Z</time>
      </trkpt>
      <trkpt lat="45.18445" lon="4.81386">
        <ele>138.30499267578</ele>
        <time>2010-01-02T13:32:01Z</time>
      </trkpt>
      <trkpt lat="45.1845" lon="4.81366">
        <ele>138.26400756836</ele>
        <time>2010-01-02T13:32:04Z</time>
      </trkpt>
      <trkpt lat="45.18428" lon="4.81321">
        <ele>141.43600463867</ele>
        <time>2010-01-02T13:32:11Z</time>
      </trkpt>
      <trkpt lat="45.18421" lon="4.81265">
        <ele>142.76600646973</ele>
        <time>2010-01-02T13:32:19Z</time>
      </trkpt>
      <trkpt lat="45.18416" lon="4.81229">
        <ele>144.65199279785</ele>
        <time>2010-01-02T13:32:24Z</time>
      </trkpt>
      <trkpt lat="45.18408" lon="4.81168">
        <ele>144.0890045166</ele>
        <time>2010-01-02T13:32:32Z</time>
      </trkpt>
      <trkpt lat="45.18396" lon="4.81117">
        <ele>141.59599304199</ele>
        <time>2010-01-02T13:32:38Z</time>
      </trkpt>
      <trkpt lat="45.18377" lon="4.81038">
        <ele>139.26499938965</ele>
        <time>2010-01-02T13:32:47Z</time>
      </trkpt>
      <trkpt lat="45.18369" lon="4.80969">
        <ele>137.95700073242</ele>
        <time>2010-01-02T13:32:53Z</time>
      </trkpt>
      <trkpt lat="45.18364" lon="4.80922">
        <ele>135.15899658203</ele>
        <time>2010-01-02T13:32:59Z</time>
      </trkpt>
      <trkpt lat="45.18378" lon="4.80836">
        <ele>133.06300354004</ele>
        <time>2010-01-02T13:33:05Z</time>
      </trkpt>
      <trkpt lat="45.18379" lon="4.80826">
        <ele>133.62699890137</ele>
        <time>2010-01-02T13:33:06Z</time>
      </trkpt>
      <trkpt lat="45.18396" lon="4.80791">
        <ele>132.41600036621</ele>
        <time>2010-01-02T13:33:10Z</time>
      </trkpt>
      <trkpt lat="45.18423" lon="4.80787">
        <ele>130.56799316406</ele>
        <time>2010-01-02T13:33:13Z</time>
      </trkpt>
      <trkpt lat="45.18445" lon="4.80806">
        <ele>128.81199645996</ele>
        <time>2010-01-02T13:33:18Z</time>
      </trkpt>
      <trkpt lat="45.18479" lon="4.80818">
        <ele>128.77000427246</ele>
        <time>2010-01-02T13:33:22Z</time>
      </trkpt>
      <trkpt lat="45.18511" lon="4.80813">
        <ele>128.6309967041</ele>
        <time>2010-01-02T13:33:27Z</time>
      </trkpt>
      <trkpt lat="45.1853" lon="4.8081">
        <ele>129.87399291992</ele>
        <time>2010-01-02T13:33:30Z</time>
      </trkpt>
      <trkpt lat="45.18551" lon="4.80807">
        <ele>128.44900512695</ele>
        <time>2010-01-02T13:33:34Z</time>
      </trkpt>
      <trkpt lat="45.18555" lon="4.80806">
        <ele>127.95600128174</ele>
        <time>2010-01-02T13:33:38Z</time>
      </trkpt>
      <trkpt lat="45.18552" lon="4.80807">
        <ele>128.51699829102</ele>
        <time>2010-01-02T13:35:52Z</time>
      </trkpt>
      <trkpt lat="45.18553" lon="4.80826">
        <ele>128.09300231934</ele>
        <time>2010-01-02T13:35:56Z</time>
      </trkpt>
      <trkpt lat="45.1856" lon="4.80806">
        <ele>129.32899475098</ele>
        <time>2010-01-02T13:38:40Z</time>
      </trkpt>
      <trkpt lat="45.18573" lon="4.80803">
        <ele>129.70399475098</ele>
        <time>2010-01-02T13:38:45Z</time>
      </trkpt>
      <trkpt lat="45.18601" lon="4.80791">
        <ele>128.94200134277</ele>
        <time>2010-01-02T13:38:53Z</time>
      </trkpt>
      <trkpt lat="45.18623" lon="4.80778">
        <ele>129.86199951172</ele>
        <time>2010-01-02T13:38:59Z</time>
      </trkpt>
      <trkpt lat="45.18627" lon="4.80775">
        <ele>130.05900573731</ele>
        <time>2010-01-02T13:39:00Z</time>
      </trkpt>
      <trkpt lat="45.18655" lon="4.80757">
        <ele>129.24699401856</ele>
        <time>2010-01-02T13:39:08Z</time>
      </trkpt>
      <trkpt lat="45.18665" lon="4.80749">
        <ele>129.12300109863</ele>
        <time>2010-01-02T13:39:11Z</time>
      </trkpt>
      <trkpt lat="45.18673" lon="4.80729">
        <ele>129.00700378418</ele>
        <time>2010-01-02T13:39:16Z</time>
      </trkpt>
      <trkpt lat="45.18673" lon="4.80729">
        <ele>128.98199462891</ele>
        <time>2010-01-02T13:39:18Z</time>
      </trkpt>
      <trkpt lat="45.18673" lon="4.80655">
        <ele>129.4049987793</ele>
        <time>2010-01-02T13:39:27Z</time>
      </trkpt>
      <trkpt lat="45.18673" lon="4.80598">
        <ele>130.30200195312</ele>
        <time>2010-01-02T13:39:35Z</time>
      </trkpt>
      <trkpt lat="45.18673" lon="4.80518">
        <ele>129.54699707031</ele>
        <time>2010-01-02T13:39:46Z</time>
      </trkpt>
      <trkpt lat="45.18673" lon="4.80456">
        <ele>128.875</ele>
        <time>2010-01-02T13:39:55Z</time>
      </trkpt>
      <trkpt lat="45.18673" lon="4.80398">
        <ele>129.55900573731</ele>
        <time>2010-01-02T13:40:03Z</time>
      </trkpt>
      <trkpt lat="45.18668" lon="4.80325">
        <ele>130.72599792481</ele>
        <time>2010-01-02T13:40:13Z</time>
      </trkpt>
      <trkpt lat="45.18668" lon="4.8026">
        <ele>130.58700561523</ele>
        <time>2010-01-02T13:40:22Z</time>
      </trkpt>
      <trkpt lat="45.18668" lon="4.80218">
        <ele>130.71899414062</ele>
        <time>2010-01-02T13:40:29Z</time>
      </trkpt>
      <trkpt lat="45.18668" lon="4.80176">
        <ele>131.09800720215</ele>
        <time>2010-01-02T13:40:34Z</time>
      </trkpt>
      <trkpt lat="45.18665" lon="4.80136">
        <ele>132.94900512695</ele>
        <time>2010-01-02T13:40:40Z</time>
      </trkpt>
      <trkpt lat="45.18665" lon="4.80122">
        <ele>132.86700439453</ele>
        <time>2010-01-02T13:40:44Z</time>
      </trkpt>
      <trkpt lat="45.18664" lon="4.80115">
        <ele>132.93400573731</ele>
        <time>2010-01-02T13:40:49Z</time>
      </trkpt>
      <trkpt lat="45.18664" lon="4.80115">
        <ele>133.17700195312</ele>
        <time>2010-01-02T13:40:54Z</time>
      </trkpt>
      <trkpt lat="45.18666" lon="4.80042">
        <ele>133.88400268555</ele>
        <time>2010-01-02T13:41:01Z</time>
      </trkpt>
      <trkpt lat="45.18668" lon="4.79986">
        <ele>134.61999511719</ele>
        <time>2010-01-02T13:41:11Z</time>
      </trkpt>
      <trkpt lat="45.18665" lon="4.79959">
        <ele>135.5299987793</ele>
        <time>2010-01-02T13:41:17Z</time>
      </trkpt>
      <trkpt lat="45.18664" lon="4.79947">
        <ele>135.17799377441</ele>
        <time>2010-01-02T13:41:23Z</time>
      </trkpt>
      <trkpt lat="45.18664" lon="4.79941">
        <ele>134.93699645996</ele>
        <time>2010-01-02T13:41:27Z</time>
      </trkpt>
      <trkpt lat="45.18664" lon="4.7992">
        <ele>135.56599426269</ele>
        <time>2010-01-02T13:41:33Z</time>
      </trkpt>
      <trkpt lat="45.18682" lon="4.799">
        <ele>135.55499267578</ele>
        <time>2010-01-02T13:41:37Z</time>
      </trkpt>
      <trkpt lat="45.18709" lon="4.79892">
        <ele>134.93200683594</ele>
        <time>2010-01-02T13:41:44Z</time>
      </trkpt>
      <trkpt lat="45.18722" lon="4.7989">
        <ele>134.41000366211</ele>
        <time>2010-01-02T13:41:48Z</time>
      </trkpt>
      <trkpt lat="45.1873" lon="4.79888">
        <ele>135.35600280762</ele>
        <time>2010-01-02T13:41:50Z</time>
      </trkpt>
      <trkpt lat="45.18739" lon="4.79887">
        <ele>136.72300720215</ele>
        <time>2010-01-02T13:41:52Z</time>
      </trkpt>
      <trkpt lat="45.18755" lon="4.79884">
        <ele>134.98699951172</ele>
        <time>2010-01-02T13:41:55Z</time>
      </trkpt>
      <trkpt lat="45.18805" lon="4.79875">
        <ele>134.48300170898</ele>
        <time>2010-01-02T13:42:03Z</time>
      </trkpt>
      <trkpt lat="45.18845" lon="4.79867">
        <ele>133.79800415039</ele>
        <time>2010-01-02T13:42:10Z</time>
      </trkpt>
      <trkpt lat="45.18888" lon="4.79859">
        <ele>133.41499328613</ele>
        <time>2010-01-02T13:42:17Z</time>
      </trkpt>
      <trkpt lat="45.18936" lon="4.7985">
        <ele>133.32499694824</ele>
        <time>2010-01-02T13:42:25Z</time>
      </trkpt>
      <trkpt lat="45.19001" lon="4.79838">
        <ele>133.27299499512</ele>
        <time>2010-01-02T13:42:36Z</time>
      </trkpt>
      <trkpt lat="45.19047" lon="4.79828">
        <ele>133.26699829102</ele>
        <time>2010-01-02T13:42:44Z</time>
      </trkpt>
      <trkpt lat="45.19101" lon="4.79823">
        <ele>133.85400390625</ele>
        <time>2010-01-02T13:42:53Z</time>
      </trkpt>
      <trkpt lat="45.19135" lon="4.79837">
        <ele>134.27200317383</ele>
        <time>2010-01-02T13:42:59Z</time>
      </trkpt>
      <trkpt lat="45.19146" lon="4.79844">
        <ele>134.32200622559</ele>
        <time>2010-01-02T13:43:01Z</time>
      </trkpt>
      <trkpt lat="45.19193" lon="4.79901">
        <ele>134.67399597168</ele>
        <time>2010-01-02T13:43:11Z</time>
      </trkpt>
      <trkpt lat="45.1923" lon="4.79952">
        <ele>133.58299255371</ele>
        <time>2010-01-02T13:43:19Z</time>
      </trkpt>
      <trkpt lat="45.19267" lon="4.79997">
        <ele>132.4940032959</ele>
        <time>2010-01-02T13:43:26Z</time>
      </trkpt>
      <trkpt lat="45.19318" lon="4.80057">
        <ele>132.16799926758</ele>
        <time>2010-01-02T13:43:35Z</time>
      </trkpt>
      <trkpt lat="45.19351" lon="4.80079">
        <ele>132.33299255371</ele>
        <time>2010-01-02T13:43:40Z</time>
      </trkpt>
      <trkpt lat="45.19389" lon="4.80093">
        <ele>132.06799316406</ele>
        <time>2010-01-02T13:43:46Z</time>
      </trkpt>
      <trkpt lat="45.19439" lon="4.80104">
        <ele>132.25500488281</ele>
        <time>2010-01-02T13:43:54Z</time>
      </trkpt>
      <trkpt lat="45.19502" lon="4.8011">
        <ele>131.20500183106</ele>
        <time>2010-01-02T13:44:04Z</time>
      </trkpt>
      <trkpt lat="45.19559" lon="4.80117">
        <ele>131.75199890137</ele>
        <time>2010-01-02T13:44:13Z</time>
      </trkpt>
      <trkpt lat="45.19616" lon="4.80123">
        <ele>131.45100402832</ele>
        <time>2010-01-02T13:44:22Z</time>
      </trkpt>
      <trkpt lat="45.19673" lon="4.80128">
        <ele>131.82699584961</ele>
        <time>2010-01-02T13:44:31Z</time>
      </trkpt>
      <trkpt lat="45.19736" lon="4.8013">
        <ele>132.50100708008</ele>
        <time>2010-01-02T13:44:41Z</time>
      </trkpt>
      <trkpt lat="45.19796" lon="4.80137">
        <ele>132.32699584961</ele>
        <time>2010-01-02T13:44:51Z</time>
      </trkpt>
      <trkpt lat="45.19859" lon="4.80143">
        <ele>132.93800354004</ele>
        <time>2010-01-02T13:45:01Z</time>
      </trkpt>
      <trkpt lat="45.19915" lon="4.80149">
        <ele>133.27099609375</ele>
        <time>2010-01-02T13:45:10Z</time>
      </trkpt>
      <trkpt lat="45.19971" lon="4.80154">
        <ele>132.81199645996</ele>
        <time>2010-01-02T13:45:19Z</time>
      </trkpt>
      <trkpt lat="45.20047" lon="4.80159">
        <ele>133.33099365234</ele>
        <time>2010-01-02T13:45:31Z</time>
      </trkpt>
      <trkpt lat="45.2009" lon="4.80163">
        <ele>132.35800170898</ele>
        <time>2010-01-02T13:45:38Z</time>
      </trkpt>
      <trkpt lat="45.20159" lon="4.80169">
        <ele>132.51499938965</ele>
        <time>2010-01-02T13:45:49Z</time>
      </trkpt>
      <trkpt lat="45.20197" lon="4.80172">
        <ele>133.19999694824</ele>
        <time>2010-01-02T13:45:56Z</time>
      </trkpt>
      <trkpt lat="45.20226" lon="4.80174">
        <ele>132.99299621582</ele>
        <time>2010-01-02T13:46:02Z</time>
      </trkpt>
      <trkpt lat="45.20248" lon="4.80176">
        <ele>133.43400573731</ele>
        <time>2010-01-02T13:46:07Z</time>
      </trkpt>
      <trkpt lat="45.20252" lon="4.80176">
        <ele>133.36599731445</ele>
        <time>2010-01-02T13:46:08Z</time>
      </trkpt>
      <trkpt lat="45.20262" lon="4.80143">
        <ele>132.91799926758</ele>
        <time>2010-01-02T13:46:11Z</time>
      </trkpt>
      <trkpt lat="45.20273" lon="4.80128">
        <ele>132.46299743652</ele>
        <time>2010-01-02T13:46:19Z</time>
      </trkpt>
      <trkpt lat="45.20321" lon="4.80027">
        <ele>133.35899353027</ele>
        <time>2010-01-02T13:46:30Z</time>
      </trkpt>
      <trkpt lat="45.20353" lon="4.79958">
        <ele>134.85099792481</ele>
        <time>2010-01-02T13:46:41Z</time>
      </trkpt>
      <trkpt lat="45.2037" lon="4.79922">
        <ele>135.52799987793</ele>
        <time>2010-01-02T13:46:47Z</time>
      </trkpt>
      <trkpt lat="45.20401" lon="4.79857">
        <ele>136.83999633789</ele>
        <time>2010-01-02T13:46:58Z</time>
      </trkpt>
      <trkpt lat="45.20402" lon="4.79854">
        <ele>136.97700500488</ele>
        <time>2010-01-02T13:46:59Z</time>
      </trkpt>
      <trkpt lat="45.20424" lon="4.79799">
        <ele>138.81199645996</ele>
        <time>2010-01-02T13:47:08Z</time>
      </trkpt>
      <trkpt lat="45.20439" lon="4.79744">
        <ele>139.71800231934</ele>
        <time>2010-01-02T13:47:16Z</time>
      </trkpt>
      <trkpt lat="45.20454" lon="4.79678">
        <ele>141.22799682617</ele>
        <time>2010-01-02T13:47:25Z</time>
      </trkpt>
      <trkpt lat="45.20462" lon="4.79643">
        <ele>142.60899353027</ele>
        <time>2010-01-02T13:47:33Z</time>
      </trkpt>
      <trkpt lat="45.20466" lon="4.79587">
        <ele>143.49699401856</ele>
        <time>2010-01-02T13:47:38Z</time>
      </trkpt>
      <trkpt lat="45.20452" lon="4.79537">
        <ele>143.11700439453</ele>
        <time>2010-01-02T13:47:45Z</time>
      </trkpt>
      <trkpt lat="45.20449" lon="4.79484">
        <ele>143.25799560547</ele>
        <time>2010-01-02T13:47:52Z</time>
      </trkpt>
      <trkpt lat="45.20454" lon="4.79425">
        <ele>142.9640045166</ele>
        <time>2010-01-02T13:48:00Z</time>
      </trkpt>
      <trkpt lat="45.20457" lon="4.79388">
        <ele>143.32000732422</ele>
        <time>2010-01-02T13:48:05Z</time>
      </trkpt>
      <trkpt lat="45.2045" lon="4.79338">
        <ele>143.05099487305</ele>
        <time>2010-01-02T13:48:12Z</time>
      </trkpt>
      <trkpt lat="45.20439" lon="4.79269">
        <ele>142.61199951172</ele>
        <time>2010-01-02T13:48:21Z</time>
      </trkpt>
      <trkpt lat="45.20437" lon="4.79239">
        <ele>142.68400573731</ele>
        <time>2010-01-02T13:48:25Z</time>
      </trkpt>
      <trkpt lat="45.20438" lon="4.79223">
        <ele>142.81399536133</ele>
        <time>2010-01-02T13:48:27Z</time>
      </trkpt>
      <trkpt lat="45.2044" lon="4.79193">
        <ele>143.16600036621</ele>
        <time>2010-01-02T13:48:31Z</time>
      </trkpt>
      <trkpt lat="45.20427" lon="4.79174">
        <ele>143.13000488281</ele>
        <time>2010-01-02T13:48:35Z</time>
      </trkpt>
      <trkpt lat="45.2038" lon="4.79145">
        <ele>142.33599853516</ele>
        <time>2010-01-02T13:48:44Z</time>
      </trkpt>
      <trkpt lat="45.20339" lon="4.79131">
        <ele>143.1549987793</ele>
        <time>2010-01-02T13:48:52Z</time>
      </trkpt>
      <trkpt lat="45.20301" lon="4.79111">
        <ele>143.85899353027</ele>
        <time>2010-01-02T13:49:00Z</time>
      </trkpt>
      <trkpt lat="45.20285" lon="4.79099">
        <ele>144.30900573731</ele>
        <time>2010-01-02T13:49:04Z</time>
      </trkpt>
      <trkpt lat="45.20264" lon="4.79073">
        <ele>144.93699645996</ele>
        <time>2010-01-02T13:49:10Z</time>
      </trkpt>
      <trkpt lat="45.20261" lon="4.79069">
        <ele>145.21099853516</ele>
        <time>2010-01-02T13:49:11Z</time>
      </trkpt>
      <trkpt lat="45.20257" lon="4.79021">
        <ele>145.78300476074</ele>
        <time>2010-01-02T13:49:18Z</time>
      </trkpt>
      <trkpt lat="45.20271" lon="4.7898">
        <ele>146.63400268555</ele>
        <time>2010-01-02T13:49:24Z</time>
      </trkpt>
      <trkpt lat="45.20289" lon="4.78942">
        <ele>147.70899963379</ele>
        <time>2010-01-02T13:49:30Z</time>
      </trkpt>
      <trkpt lat="45.20303" lon="4.789">
        <ele>147.6190032959</ele>
        <time>2010-01-02T13:49:36Z</time>
      </trkpt>
      <trkpt lat="45.20313" lon="4.78867">
        <ele>147.96299743652</ele>
        <time>2010-01-02T13:49:41Z</time>
      </trkpt>
      <trkpt lat="45.2033" lon="4.78847">
        <ele>148.46000671387</ele>
        <time>2010-01-02T13:49:45Z</time>
      </trkpt>
      <trkpt lat="45.20343" lon="4.78836">
        <ele>148.52099609375</ele>
        <time>2010-01-02T13:49:48Z</time>
      </trkpt>
      <trkpt lat="45.20379" lon="4.78814">
        <ele>148.82400512695</ele>
        <time>2010-01-02T13:49:56Z</time>
      </trkpt>
      <trkpt lat="45.20383" lon="4.78812">
        <ele>148.89799499512</ele>
        <time>2010-01-02T13:49:57Z</time>
      </trkpt>
      <trkpt lat="45.20418" lon="4.78802">
        <ele>149.26899719238</ele>
        <time>2010-01-02T13:50:04Z</time>
      </trkpt>
      <trkpt lat="45.20459" lon="4.78792">
        <ele>150.38999938965</ele>
        <time>2010-01-02T13:50:12Z</time>
      </trkpt>
      <trkpt lat="45.20494" lon="4.78782">
        <ele>151.31900024414</ele>
        <time>2010-01-02T13:50:19Z</time>
      </trkpt>
      <trkpt lat="45.20519" lon="4.78762">
        <ele>151.86399841309</ele>
        <time>2010-01-02T13:50:25Z</time>
      </trkpt>
      <trkpt lat="45.20533" lon="4.78746">
        <ele>152.51499938965</ele>
        <time>2010-01-02T13:50:29Z</time>
      </trkpt>
      <trkpt lat="45.20568" lon="4.78684">
        <ele>153.81799316406</ele>
        <time>2010-01-02T13:50:40Z</time>
      </trkpt>
      <trkpt lat="45.20587" lon="4.78665">
        <ele>153.85800170898</ele>
        <time>2010-01-02T13:50:45Z</time>
      </trkpt>
      <trkpt lat="45.20604" lon="4.7866">
        <ele>154.74499511719</ele>
        <time>2010-01-02T13:50:48Z</time>
      </trkpt>
      <trkpt lat="45.20625" lon="4.78645">
        <ele>154.96499633789</ele>
        <time>2010-01-02T13:50:52Z</time>
      </trkpt>
      <trkpt lat="45.20622" lon="4.78627">
        <ele>154.88800048828</ele>
        <time>2010-01-02T13:50:55Z</time>
      </trkpt>
      <trkpt lat="45.20609" lon="4.78603">
        <ele>155.07099914551</ele>
        <time>2010-01-02T13:50:59Z</time>
      </trkpt>
      <trkpt lat="45.20593" lon="4.78585">
        <ele>154.93899536133</ele>
        <time>2010-01-02T13:51:03Z</time>
      </trkpt>
      <trkpt lat="45.20558" lon="4.78573">
        <ele>155.29800415039</ele>
        <time>2010-01-02T13:51:10Z</time>
      </trkpt>
      <trkpt lat="45.20522" lon="4.78543">
        <ele>155.87300109863</ele>
        <time>2010-01-02T13:51:18Z</time>
      </trkpt>
      <trkpt lat="45.20499" lon="4.78513">
        <ele>156.23699951172</ele>
        <time>2010-01-02T13:51:24Z</time>
      </trkpt>
      <trkpt lat="45.20495" lon="4.78507">
        <ele>156.0890045166</ele>
        <time>2010-01-02T13:51:25Z</time>
      </trkpt>
      <trkpt lat="45.2049" lon="4.78488">
        <ele>156.66600036621</ele>
        <time>2010-01-02T13:51:28Z</time>
      </trkpt>
      <trkpt lat="45.20491" lon="4.78478">
        <ele>156.89799499512</ele>
        <time>2010-01-02T13:51:30Z</time>
      </trkpt>
      <trkpt lat="45.20495" lon="4.78473">
        <ele>156.64900207519</ele>
        <time>2010-01-02T13:51:31Z</time>
      </trkpt>
      <trkpt lat="45.20535" lon="4.78451">
        <ele>157.48899841309</ele>
        <time>2010-01-02T13:51:39Z</time>
      </trkpt>
      <trkpt lat="45.20545" lon="4.78445">
        <ele>157.53300476074</ele>
        <time>2010-01-02T13:51:41Z</time>
      </trkpt>
      <trkpt lat="45.20592" lon="4.78427">
        <ele>158.39799499512</ele>
        <time>2010-01-02T13:51:50Z</time>
      </trkpt>
      <trkpt lat="45.20628" lon="4.78418">
        <ele>159.08999633789</ele>
        <time>2010-01-02T13:51:57Z</time>
      </trkpt>
      <trkpt lat="45.2067" lon="4.78418">
        <ele>160.29100036621</ele>
        <time>2010-01-02T13:52:05Z</time>
      </trkpt>
      <trkpt lat="45.20704" lon="4.78428">
        <ele>160.72399902344</ele>
        <time>2010-01-02T13:52:12Z</time>
      </trkpt>
      <trkpt lat="45.20757" lon="4.78449">
        <ele>161.57299804688</ele>
        <time>2010-01-02T13:52:23Z</time>
      </trkpt>
      <trkpt lat="45.20795" lon="4.78466">
        <ele>162.70799255371</ele>
        <time>2010-01-02T13:52:30Z</time>
      </trkpt>
      <trkpt lat="45.20841" lon="4.78486">
        <ele>163.31700134277</ele>
        <time>2010-01-02T13:52:39Z</time>
      </trkpt>
      <trkpt lat="45.20873" lon="4.78496">
        <ele>163.54800415039</ele>
        <time>2010-01-02T13:52:45Z</time>
      </trkpt>
      <trkpt lat="45.20908" lon="4.78502">
        <ele>164.30200195312</ele>
        <time>2010-01-02T13:52:54Z</time>
      </trkpt>
      <trkpt lat="45.20948" lon="4.7849">
        <ele>164.63499450684</ele>
        <time>2010-01-02T13:52:59Z</time>
      </trkpt>
      <trkpt lat="45.20993" lon="4.78464">
        <ele>165.29400634766</ele>
        <time>2010-01-02T13:53:08Z</time>
      </trkpt>
      <trkpt lat="45.20994" lon="4.78463">
        <ele>165.49699401856</ele>
        <time>2010-01-02T13:53:10Z</time>
      </trkpt>
      <trkpt lat="45.21019" lon="4.78437">
        <ele>165.41400146484</ele>
        <time>2010-01-02T13:53:14Z</time>
      </trkpt>
      <trkpt lat="45.21016" lon="4.78413">
        <ele>165.81700134277</ele>
        <time>2010-01-02T13:53:17Z</time>
      </trkpt>
      <trkpt lat="45.21012" lon="4.78384">
        <ele>165.78799438477</ele>
        <time>2010-01-02T13:53:20Z</time>
      </trkpt>
      <trkpt lat="45.21016" lon="4.78377">
        <ele>165.80299377441</ele>
        <time>2010-01-02T13:53:21Z</time>
      </trkpt>
      <trkpt lat="45.21039" lon="4.78327">
        <ele>166.3809967041</ele>
        <time>2010-01-02T13:53:28Z</time>
      </trkpt>
      <trkpt lat="45.21054" lon="4.78293">
        <ele>167.14999389648</ele>
        <time>2010-01-02T13:53:33Z</time>
      </trkpt>
      <trkpt lat="45.21064" lon="4.78272">
        <ele>167.20599365234</ele>
        <time>2010-01-02T13:53:36Z</time>
      </trkpt>
      <trkpt lat="45.21067" lon="4.78258">
        <ele>167.60899353027</ele>
        <time>2010-01-02T13:53:38Z</time>
      </trkpt>
      <trkpt lat="45.21066" lon="4.78241">
        <ele>167.64399719238</ele>
        <time>2010-01-02T13:53:40Z</time>
      </trkpt>
      <trkpt lat="45.21064" lon="4.78192">
        <ele>168.32899475098</ele>
        <time>2010-01-02T13:53:46Z</time>
      </trkpt>
      <trkpt lat="45.21061" lon="4.78142">
        <ele>168.66499328613</ele>
        <time>2010-01-02T13:53:52Z</time>
      </trkpt>
      <trkpt lat="45.21059" lon="4.78092">
        <ele>169.43800354004</ele>
        <time>2010-01-02T13:53:58Z</time>
      </trkpt>
      <trkpt lat="45.2105" lon="4.78043">
        <ele>169.26400756836</ele>
        <time>2010-01-02T13:54:04Z</time>
      </trkpt>
      <trkpt lat="45.21024" lon="4.77965">
        <ele>170.22200012207</ele>
        <time>2010-01-02T13:54:14Z</time>
      </trkpt>
      <trkpt lat="45.21006" lon="4.77922">
        <ele>170.47399902344</ele>
        <time>2010-01-02T13:54:20Z</time>
      </trkpt>
      <trkpt lat="45.20976" lon="4.77875">
        <ele>171.29800415039</ele>
        <time>2010-01-02T13:54:28Z</time>
      </trkpt>
      <trkpt lat="45.20949" lon="4.77833">
        <ele>171.60099792481</ele>
        <time>2010-01-02T13:54:35Z</time>
      </trkpt>
      <trkpt lat="45.20937" lon="4.77814">
        <ele>171.91900634766</ele>
        <time>2010-01-02T13:54:38Z</time>
      </trkpt>
      <trkpt lat="45.20915" lon="4.77769">
        <ele>172.72200012207</ele>
        <time>2010-01-02T13:54:45Z</time>
      </trkpt>
      <trkpt lat="45.20901" lon="4.77735">
        <ele>173.2440032959</ele>
        <time>2010-01-02T13:54:50Z</time>
      </trkpt>
      <trkpt lat="45.20889" lon="4.77701">
        <ele>173.46899414062</ele>
        <time>2010-01-02T13:54:55Z</time>
      </trkpt>
      <trkpt lat="45.20885" lon="4.77677">
        <ele>173.55599975586</ele>
        <time>2010-01-02T13:54:58Z</time>
      </trkpt>
      <trkpt lat="45.20887" lon="4.77639">
        <ele>173.90100097656</ele>
        <time>2010-01-02T13:55:03Z</time>
      </trkpt>
      <trkpt lat="45.20893" lon="4.77609">
        <ele>174.29600524902</ele>
        <time>2010-01-02T13:55:07Z</time>
      </trkpt>
      <trkpt lat="45.20899" lon="4.77579">
        <ele>175.2440032959</ele>
        <time>2010-01-02T13:55:11Z</time>
      </trkpt>
      <trkpt lat="45.20914" lon="4.7757">
        <ele>175.59300231934</ele>
        <time>2010-01-02T13:55:14Z</time>
      </trkpt>
      <trkpt lat="45.20919" lon="4.7757">
        <ele>175.78399658203</ele>
        <time>2010-01-02T13:55:15Z</time>
      </trkpt>
      <trkpt lat="45.20943" lon="4.77562">
        <ele>176.05999755859</ele>
        <time>2010-01-02T13:55:20Z</time>
      </trkpt>
      <trkpt lat="45.2095" lon="4.77538">
        <ele>176.40299987793</ele>
        <time>2010-01-02T13:55:23Z</time>
      </trkpt>
      <trkpt lat="45.20954" lon="4.77471">
        <ele>177.03900146484</ele>
        <time>2010-01-02T13:55:31Z</time>
      </trkpt>
      <trkpt lat="45.20955" lon="4.77444">
        <ele>177.2380065918</ele>
        <time>2010-01-02T13:55:34Z</time>
      </trkpt>
      <trkpt lat="45.20958" lon="4.7741">
        <ele>177.67799377441</ele>
        <time>2010-01-02T13:55:38Z</time>
      </trkpt>
      <trkpt lat="45.20969" lon="4.77354">
        <ele>178.19500732422</ele>
        <time>2010-01-02T13:55:45Z</time>
      </trkpt>
      <trkpt lat="45.20969" lon="4.77317">
        <ele>179.17399597168</ele>
        <time>2010-01-02T13:55:50Z</time>
      </trkpt>
      <trkpt lat="45.20957" lon="4.77264">
        <ele>179.79800415039</ele>
        <time>2010-01-02T13:55:57Z</time>
      </trkpt>
      <trkpt lat="45.20953" lon="4.77231">
        <ele>179.96800231934</ele>
        <time>2010-01-02T13:56:01Z</time>
      </trkpt>
      <trkpt lat="45.20959" lon="4.77198">
        <ele>180.41200256348</ele>
        <time>2010-01-02T13:56:05Z</time>
      </trkpt>
      <trkpt lat="45.20949" lon="4.77176">
        <ele>180.66499328613</ele>
        <time>2010-01-02T13:56:08Z</time>
      </trkpt>
      <trkpt lat="45.20932" lon="4.7715">
        <ele>180.99899291992</ele>
        <time>2010-01-02T13:56:12Z</time>
      </trkpt>
      <trkpt lat="45.20929" lon="4.77136">
        <ele>181.36700439453</ele>
        <time>2010-01-02T13:56:14Z</time>
      </trkpt>
      <trkpt lat="45.20921" lon="4.77061">
        <ele>182.47799682617</ele>
        <time>2010-01-02T13:56:23Z</time>
      </trkpt>
      <trkpt lat="45.20919" lon="4.77035">
        <ele>182.86999511719</ele>
        <time>2010-01-02T13:56:26Z</time>
      </trkpt>
      <trkpt lat="45.20911" lon="4.76995">
        <ele>183.19500732422</ele>
        <time>2010-01-02T13:56:31Z</time>
      </trkpt>
      <trkpt lat="45.2091" lon="4.76987">
        <ele>183.43699645996</ele>
        <time>2010-01-02T13:56:32Z</time>
      </trkpt>
      <trkpt lat="45.20903" lon="4.76922">
        <ele>184.16700744629</ele>
        <time>2010-01-02T13:56:39Z</time>
      </trkpt>
      <trkpt lat="45.20893" lon="4.76867">
        <ele>185.01100158691</ele>
        <time>2010-01-02T13:56:46Z</time>
      </trkpt>
      <trkpt lat="45.20892" lon="4.7686">
        <ele>184.79299926758</ele>
        <time>2010-01-02T13:56:47Z</time>
      </trkpt>
      <trkpt lat="45.20887" lon="4.76821">
        <ele>185.34199523926</ele>
        <time>2010-01-02T13:56:52Z</time>
      </trkpt>
      <trkpt lat="45.20881" lon="4.76798">
        <ele>185.87399291992</ele>
        <time>2010-01-02T13:56:55Z</time>
      </trkpt>
      <trkpt lat="45.20866" lon="4.7677">
        <ele>187.10800170898</ele>
        <time>2010-01-02T13:56:59Z</time>
      </trkpt>
      <trkpt lat="45.20871" lon="4.76748">
        <ele>187.62600708008</ele>
        <time>2010-01-02T13:57:02Z</time>
      </trkpt>
      <trkpt lat="45.20872" lon="4.76741">
        <ele>187.93499755859</ele>
        <time>2010-01-02T13:57:03Z</time>
      </trkpt>
      <trkpt lat="45.20903" lon="4.76692">
        <ele>189.16400146484</ele>
        <time>2010-01-02T13:57:11Z</time>
      </trkpt>
      <trkpt lat="45.20929" lon="4.76658">
        <ele>189.94900512695</ele>
        <time>2010-01-02T13:57:17Z</time>
      </trkpt>
      <trkpt lat="45.20961" lon="4.76617">
        <ele>190.83299255371</ele>
        <time>2010-01-02T13:57:24Z</time>
      </trkpt>
      <trkpt lat="45.2098" lon="4.76593">
        <ele>191.18699645996</ele>
        <time>2010-01-02T13:57:28Z</time>
      </trkpt>
      <trkpt lat="45.20995" lon="4.76568">
        <ele>190.90899658203</ele>
        <time>2010-01-02T13:57:32Z</time>
      </trkpt>
      <trkpt lat="45.20996" lon="4.76559">
        <ele>191.15100097656</ele>
        <time>2010-01-02T13:57:33Z</time>
      </trkpt>
      <trkpt lat="45.21001" lon="4.76523">
        <ele>191.19999694824</ele>
        <time>2010-01-02T13:57:37Z</time>
      </trkpt>
      <trkpt lat="45.20996" lon="4.76492">
        <ele>191.66799926758</ele>
        <time>2010-01-02T13:57:41Z</time>
      </trkpt>
      <trkpt lat="45.20956" lon="4.76432">
        <ele>191.94400024414</ele>
        <time>2010-01-02T13:57:50Z</time>
      </trkpt>
      <trkpt lat="45.20919" lon="4.76401">
        <ele>192.22300720215</ele>
        <time>2010-01-02T13:57:57Z</time>
      </trkpt>
      <trkpt lat="45.20902" lon="4.7639">
        <ele>192.08200073242</ele>
        <time>2010-01-02T13:58:00Z</time>
      </trkpt>
      <trkpt lat="45.2088" lon="4.76374">
        <ele>192.73300170898</ele>
        <time>2010-01-02T13:58:04Z</time>
      </trkpt>
      <trkpt lat="45.20835" lon="4.76324">
        <ele>192.98199462891</ele>
        <time>2010-01-02T13:58:13Z</time>
      </trkpt>
      <trkpt lat="45.20795" lon="4.76269">
        <ele>193.52799987793</ele>
        <time>2010-01-02T13:58:22Z</time>
      </trkpt>
      <trkpt lat="45.20775" lon="4.76213">
        <ele>194.72799682617</ele>
        <time>2010-01-02T13:58:29Z</time>
      </trkpt>
      <trkpt lat="45.20758" lon="4.76179">
        <ele>195.42799377441</ele>
        <time>2010-01-02T13:58:34Z</time>
      </trkpt>
      <trkpt lat="45.20737" lon="4.76133">
        <ele>196.77799987793</ele>
        <time>2010-01-02T13:58:41Z</time>
      </trkpt>
      <trkpt lat="45.20721" lon="4.76097">
        <ele>197.55299377441</ele>
        <time>2010-01-02T13:58:46Z</time>
      </trkpt>
      <trkpt lat="45.20706" lon="4.76055">
        <ele>198.66000366211</ele>
        <time>2010-01-02T13:58:52Z</time>
      </trkpt>
      <trkpt lat="45.20703" lon="4.76039">
        <ele>199.23599243164</ele>
        <time>2010-01-02T13:58:54Z</time>
      </trkpt>
      <trkpt lat="45.2071" lon="4.7599">
        <ele>200.19900512695</ele>
        <time>2010-01-02T13:59:00Z</time>
      </trkpt>
      <trkpt lat="45.20713" lon="4.75973">
        <ele>200.30599975586</ele>
        <time>2010-01-02T13:59:02Z</time>
      </trkpt>
      <trkpt lat="45.20711" lon="4.7594">
        <ele>201.02299499512</ele>
        <time>2010-01-02T13:59:06Z</time>
      </trkpt>
      <trkpt lat="45.20695" lon="4.75926">
        <ele>200.95500183106</ele>
        <time>2010-01-02T13:59:09Z</time>
      </trkpt>
      <trkpt lat="45.20689" lon="4.75926">
        <ele>201.05999755859</ele>
        <time>2010-01-02T13:59:10Z</time>
      </trkpt>
      <trkpt lat="45.20662" lon="4.75916">
        <ele>201.86799621582</ele>
        <time>2010-01-02T13:59:15Z</time>
      </trkpt>
      <trkpt lat="45.20643" lon="4.75883">
        <ele>202.80400085449</ele>
        <time>2010-01-02T13:59:20Z</time>
      </trkpt>
      <trkpt lat="45.20626" lon="4.75844">
        <ele>203.5</ele>
        <time>2010-01-02T13:59:25Z</time>
      </trkpt>
      <trkpt lat="45.20605" lon="4.75799">
        <ele>204.19799804688</ele>
        <time>2010-01-02T13:59:31Z</time>
      </trkpt>
      <trkpt lat="45.20588" lon="4.75763">
        <ele>204.77299499512</ele>
        <time>2010-01-02T13:59:36Z</time>
      </trkpt>
      <trkpt lat="45.20562" lon="4.75721">
        <ele>205.97700500488</ele>
        <time>2010-01-02T13:59:43Z</time>
      </trkpt>
      <trkpt lat="45.20559" lon="4.75714">
        <ele>206.35600280762</ele>
        <time>2010-01-02T13:59:44Z</time>
      </trkpt>
      <trkpt lat="45.20548" lon="4.75695">
        <ele>207.05900573731</ele>
        <time>2010-01-02T13:59:47Z</time>
      </trkpt>
      <trkpt lat="45.20531" lon="4.75663">
        <ele>208.22999572754</ele>
        <time>2010-01-02T13:59:52Z</time>
      </trkpt>
      <trkpt lat="45.20511" lon="4.75626">
        <ele>209.46499633789</ele>
        <time>2010-01-02T13:59:58Z</time>
      </trkpt>
      <trkpt lat="45.20486" lon="4.75579">
        <ele>210.80900573731</ele>
        <time>2010-01-02T14:00:06Z</time>
      </trkpt>
      <trkpt lat="45.20462" lon="4.75536">
        <ele>212.27000427246</ele>
        <time>2010-01-02T14:00:13Z</time>
      </trkpt>
      <trkpt lat="45.20443" lon="4.75512">
        <ele>213.40299987793</ele>
        <time>2010-01-02T14:00:18Z</time>
      </trkpt>
      <trkpt lat="45.20434" lon="4.75496">
        <ele>213.78399658203</ele>
        <time>2010-01-02T14:00:21Z</time>
      </trkpt>
      <trkpt lat="45.20428" lon="4.75467">
        <ele>214.25</ele>
        <time>2010-01-02T14:00:25Z</time>
      </trkpt>
      <trkpt lat="45.20406" lon="4.75424">
        <ele>215.65299987793</ele>
        <time>2010-01-02T14:00:32Z</time>
      </trkpt>
      <trkpt lat="45.20375" lon="4.75371">
        <ele>216.74899291992</ele>
        <time>2010-01-02T14:00:41Z</time>
      </trkpt>
      <trkpt lat="45.20362" lon="4.7533">
        <ele>218.06199645996</ele>
        <time>2010-01-02T14:00:47Z</time>
      </trkpt>
      <trkpt lat="45.20353" lon="4.75302">
        <ele>218.57800292969</ele>
        <time>2010-01-02T14:00:51Z</time>
      </trkpt>
      <trkpt lat="45.20346" lon="4.75274">
        <ele>219.35200500488</ele>
        <time>2010-01-02T14:00:55Z</time>
      </trkpt>
      <trkpt lat="45.20331" lon="4.75234">
        <ele>220.41200256348</ele>
        <time>2010-01-02T14:01:01Z</time>
      </trkpt>
      <trkpt lat="45.20301" lon="4.7517">
        <ele>222.09300231934</ele>
        <time>2010-01-02T14:01:11Z</time>
      </trkpt>
      <trkpt lat="45.2029" lon="4.75142">
        <ele>222.57800292969</ele>
        <time>2010-01-02T14:01:15Z</time>
      </trkpt>
      <trkpt lat="45.20286" lon="4.75115">
        <ele>223.34300231934</ele>
        <time>2010-01-02T14:01:19Z</time>
      </trkpt>
      <trkpt lat="45.20274" lon="4.75103">
        <ele>223.72700500488</ele>
        <time>2010-01-02T14:01:22Z</time>
      </trkpt>
      <trkpt lat="45.20247" lon="4.75085">
        <ele>224.54899597168</ele>
        <time>2010-01-02T14:01:28Z</time>
      </trkpt>
      <trkpt lat="45.20242" lon="4.7508">
        <ele>224.83000183106</ele>
        <time>2010-01-02T14:01:29Z</time>
      </trkpt>
      <trkpt lat="45.20204" lon="4.75012">
        <ele>226.38999938965</ele>
        <time>2010-01-02T14:01:40Z</time>
      </trkpt>
      <trkpt lat="45.20193" lon="4.74992">
        <ele>226.36000061035</ele>
        <time>2010-01-02T14:01:43Z</time>
      </trkpt>
      <trkpt lat="45.20176" lon="4.74959">
        <ele>227.01800537109</ele>
        <time>2010-01-02T14:01:48Z</time>
      </trkpt>
      <trkpt lat="45.20164" lon="4.74923">
        <ele>227.69799804688</ele>
        <time>2010-01-02T14:01:53Z</time>
      </trkpt>
      <trkpt lat="45.20159" lon="4.74899">
        <ele>228.32800292969</ele>
        <time>2010-01-02T14:01:56Z</time>
      </trkpt>
      <trkpt lat="45.20144" lon="4.74856">
        <ele>228.71800231934</ele>
        <time>2010-01-02T14:02:02Z</time>
      </trkpt>
      <trkpt lat="45.20135" lon="4.74845">
        <ele>229.06300354004</ele>
        <time>2010-01-02T14:02:04Z</time>
      </trkpt>
      <trkpt lat="45.20097" lon="4.74804">
        <ele>230.02099609375</ele>
        <time>2010-01-02T14:02:12Z</time>
      </trkpt>
      <trkpt lat="45.20083" lon="4.74789">
        <ele>230.36099243164</ele>
        <time>2010-01-02T14:02:15Z</time>
      </trkpt>
      <trkpt lat="45.20067" lon="4.74764">
        <ele>231.33599853516</ele>
        <time>2010-01-02T14:02:19Z</time>
      </trkpt>
      <trkpt lat="45.20071" lon="4.74749">
        <ele>231.53799438477</ele>
        <time>2010-01-02T14:02:21Z</time>
      </trkpt>
      <trkpt lat="45.20075" lon="4.74745">
        <ele>231.81799316406</ele>
        <time>2010-01-02T14:02:22Z</time>
      </trkpt>
      <trkpt lat="45.20102" lon="4.74725">
        <ele>232.47500610352</ele>
        <time>2010-01-02T14:02:27Z</time>
      </trkpt>
      <trkpt lat="45.20133" lon="4.74694">
        <ele>233.0890045166</ele>
        <time>2010-01-02T14:02:33Z</time>
      </trkpt>
      <trkpt lat="45.20158" lon="4.74666">
        <ele>233.47599792481</ele>
        <time>2010-01-02T14:02:38Z</time>
      </trkpt>
      <trkpt lat="45.20181" lon="4.74623">
        <ele>234.46000671387</ele>
        <time>2010-01-02T14:02:44Z</time>
      </trkpt>
      <trkpt lat="45.20201" lon="4.74606">
        <ele>234.97999572754</ele>
        <time>2010-01-02T14:02:48Z</time>
      </trkpt>
      <trkpt lat="45.20224" lon="4.74597">
        <ele>235.45899963379</ele>
        <time>2010-01-02T14:02:52Z</time>
      </trkpt>
      <trkpt lat="45.20231" lon="4.74584">
        <ele>235.20500183106</ele>
        <time>2010-01-02T14:02:54Z</time>
      </trkpt>
      <trkpt lat="45.20232" lon="4.74574">
        <ele>235.23500061035</ele>
        <time>2010-01-02T14:02:55Z</time>
      </trkpt>
      <trkpt lat="45.20245" lon="4.7453">
        <ele>235.53500366211</ele>
        <time>2010-01-02T14:03:00Z</time>
      </trkpt>
      <trkpt lat="45.20254" lon="4.74514">
        <ele>235.53700256348</ele>
        <time>2010-01-02T14:03:02Z</time>
      </trkpt>
      <trkpt lat="45.20275" lon="4.74443">
        <ele>235.99000549316</ele>
        <time>2010-01-02T14:03:10Z</time>
      </trkpt>
      <trkpt lat="45.20284" lon="4.74397">
        <ele>236.24899291992</ele>
        <time>2010-01-02T14:03:15Z</time>
      </trkpt>
      <trkpt lat="45.20287" lon="4.74379">
        <ele>236.13000488281</ele>
        <time>2010-01-02T14:03:17Z</time>
      </trkpt>
      <trkpt lat="45.20295" lon="4.74343">
        <ele>236.26400756836</ele>
        <time>2010-01-02T14:03:21Z</time>
      </trkpt>
      <trkpt lat="45.20295" lon="4.74333">
        <ele>236.36799621582</ele>
        <time>2010-01-02T14:03:22Z</time>
      </trkpt>
      <trkpt lat="45.20295" lon="4.74314">
        <ele>236.23500061035</ele>
        <time>2010-01-02T14:03:24Z</time>
      </trkpt>
      <trkpt lat="45.2029" lon="4.74276">
        <ele>236.73100280762</ele>
        <time>2010-01-02T14:03:28Z</time>
      </trkpt>
      <trkpt lat="45.20282" lon="4.74227">
        <ele>236.7380065918</ele>
        <time>2010-01-02T14:03:33Z</time>
      </trkpt>
      <trkpt lat="45.20281" lon="4.74197">
        <ele>236.66000366211</ele>
        <time>2010-01-02T14:03:36Z</time>
      </trkpt>
      <trkpt lat="45.20275" lon="4.74158">
        <ele>236.78199768066</ele>
        <time>2010-01-02T14:03:40Z</time>
      </trkpt>
      <trkpt lat="45.20267" lon="4.7413">
        <ele>236.74000549316</ele>
        <time>2010-01-02T14:03:43Z</time>
      </trkpt>
      <trkpt lat="45.20255" lon="4.74083">
        <ele>236.93400573731</ele>
        <time>2010-01-02T14:03:48Z</time>
      </trkpt>
      <trkpt lat="45.20252" lon="4.74073">
        <ele>236.79600524902</ele>
        <time>2010-01-02T14:03:49Z</time>
      </trkpt>
      <trkpt lat="45.20239" lon="4.74037">
        <ele>236.66400146484</ele>
        <time>2010-01-02T14:03:53Z</time>
      </trkpt>
      <trkpt lat="45.20236" lon="4.74003">
        <ele>237.08099365234</ele>
        <time>2010-01-02T14:03:56Z</time>
      </trkpt>
      <trkpt lat="45.2022" lon="4.73984">
        <ele>237.11500549316</ele>
        <time>2010-01-02T14:03:59Z</time>
      </trkpt>
      <trkpt lat="45.20206" lon="4.73975">
        <ele>237.38400268555</ele>
        <time>2010-01-02T14:04:01Z</time>
      </trkpt>
      <trkpt lat="45.20184" lon="4.73949">
        <ele>237.11000061035</ele>
        <time>2010-01-02T14:04:05Z</time>
      </trkpt>
      <trkpt lat="45.20153" lon="4.73923">
        <ele>237.12199401856</ele>
        <time>2010-01-02T14:04:10Z</time>
      </trkpt>
      <trkpt lat="45.20118" lon="4.73907">
        <ele>237.39100646973</ele>
        <time>2010-01-02T14:04:15Z</time>
      </trkpt>
      <trkpt lat="45.20101" lon="4.73892">
        <ele>237.13400268555</ele>
        <time>2010-01-02T14:04:18Z</time>
      </trkpt>
      <trkpt lat="45.20097" lon="4.73867">
        <ele>237.11500549316</ele>
        <time>2010-01-02T14:04:21Z</time>
      </trkpt>
      <trkpt lat="45.20102" lon="4.73849">
        <ele>237.19900512695</ele>
        <time>2010-01-02T14:04:23Z</time>
      </trkpt>
      <trkpt lat="45.20126" lon="4.73762">
        <ele>237.35299682617</ele>
        <time>2010-01-02T14:04:32Z</time>
      </trkpt>
      <trkpt lat="45.20135" lon="4.73692">
        <ele>237.61099243164</ele>
        <time>2010-01-02T14:04:39Z</time>
      </trkpt>
      <trkpt lat="45.20145" lon="4.73621">
        <ele>237.54499816894</ele>
        <time>2010-01-02T14:04:46Z</time>
      </trkpt>
      <trkpt lat="45.2016" lon="4.73574">
        <ele>237.77200317383</ele>
        <time>2010-01-02T14:04:51Z</time>
      </trkpt>
      <trkpt lat="45.20169" lon="4.73559">
        <ele>237.70700073242</ele>
        <time>2010-01-02T14:04:53Z</time>
      </trkpt>
      <trkpt lat="45.20187" lon="4.73541">
        <ele>237.95500183106</ele>
        <time>2010-01-02T14:04:56Z</time>
      </trkpt>
      <trkpt lat="45.20221" lon="4.73532">
        <ele>238.13600158691</ele>
        <time>2010-01-02T14:05:01Z</time>
      </trkpt>
      <trkpt lat="45.20235" lon="4.73532">
        <ele>238.36199951172</ele>
        <time>2010-01-02T14:05:03Z</time>
      </trkpt>
      <trkpt lat="45.20263" lon="4.73534">
        <ele>238.65800476074</ele>
        <time>2010-01-02T14:05:07Z</time>
      </trkpt>
      <trkpt lat="45.20283" lon="4.7354">
        <ele>238.81900024414</ele>
        <time>2010-01-02T14:05:10Z</time>
      </trkpt>
      <trkpt lat="45.20291" lon="4.73533">
        <ele>238.89399719238</ele>
        <time>2010-01-02T14:05:12Z</time>
      </trkpt>
      <trkpt lat="45.20295" lon="4.73519">
        <ele>239.33700561523</ele>
        <time>2010-01-02T14:05:14Z</time>
      </trkpt>
      <trkpt lat="45.20293" lon="4.73498">
        <ele>239.40899658203</ele>
        <time>2010-01-02T14:05:16Z</time>
      </trkpt>
      <trkpt lat="45.20294" lon="4.73459">
        <ele>239.35400390625</ele>
        <time>2010-01-02T14:05:20Z</time>
      </trkpt>
      <trkpt lat="45.20306" lon="4.73435">
        <ele>239.68600463867</ele>
        <time>2010-01-02T14:05:23Z</time>
      </trkpt>
      <trkpt lat="45.20343" lon="4.73361">
        <ele>240.18099975586</ele>
        <time>2010-01-02T14:05:32Z</time>
      </trkpt>
      <trkpt lat="45.20347" lon="4.73353">
        <ele>240.18099975586</ele>
        <time>2010-01-02T14:05:33Z</time>
      </trkpt>
      <trkpt lat="45.20358" lon="4.73319">
        <ele>240.56599426269</ele>
        <time>2010-01-02T14:05:37Z</time>
      </trkpt>
      <trkpt lat="45.20359" lon="4.7331">
        <ele>240.45199584961</ele>
        <time>2010-01-02T14:05:38Z</time>
      </trkpt>
      <trkpt lat="45.20371" lon="4.73262">
        <ele>240.83000183106</ele>
        <time>2010-01-02T14:05:43Z</time>
      </trkpt>
      <trkpt lat="45.20382" lon="4.73217">
        <ele>240.9880065918</ele>
        <time>2010-01-02T14:05:48Z</time>
      </trkpt>
      <trkpt lat="45.20385" lon="4.73168">
        <ele>241.30900573731</ele>
        <time>2010-01-02T14:05:53Z</time>
      </trkpt>
      <trkpt lat="45.20375" lon="4.73097">
        <ele>241.82299804688</ele>
        <time>2010-01-02T14:06:00Z</time>
      </trkpt>
      <trkpt lat="45.20374" lon="4.73087">
        <ele>241.85200500488</ele>
        <time>2010-01-02T14:06:01Z</time>
      </trkpt>
      <trkpt lat="45.20368" lon="4.73031">
        <ele>241.7859954834</ele>
        <time>2010-01-02T14:06:07Z</time>
      </trkpt>
      <trkpt lat="45.20379" lon="4.72996">
        <ele>242.08799743652</ele>
        <time>2010-01-02T14:06:11Z</time>
      </trkpt>
      <trkpt lat="45.20394" lon="4.72963">
        <ele>242.15699768066</ele>
        <time>2010-01-02T14:06:15Z</time>
      </trkpt>
      <trkpt lat="45.20396" lon="4.72953">
        <ele>242.30799865723</ele>
        <time>2010-01-02T14:06:16Z</time>
      </trkpt>
      <trkpt lat="45.20401" lon="4.72872">
        <ele>242.61099243164</ele>
        <time>2010-01-02T14:06:24Z</time>
      </trkpt>
      <trkpt lat="45.20409" lon="4.72834">
        <ele>242.66900634766</ele>
        <time>2010-01-02T14:06:28Z</time>
      </trkpt>
      <trkpt lat="45.20428" lon="4.7282">
        <ele>242.72200012207</ele>
        <time>2010-01-02T14:06:31Z</time>
      </trkpt>
      <trkpt lat="45.20473" lon="4.72817">
        <ele>242.86799621582</ele>
        <time>2010-01-02T14:06:37Z</time>
      </trkpt>
      <trkpt lat="45.2053" lon="4.72799">
        <ele>243.27200317383</ele>
        <time>2010-01-02T14:06:45Z</time>
      </trkpt>
      <trkpt lat="45.20559" lon="4.72792">
        <ele>243.2859954834</ele>
        <time>2010-01-02T14:06:49Z</time>
      </trkpt>
      <trkpt lat="45.20581" lon="4.72771">
        <ele>243.36099243164</ele>
        <time>2010-01-02T14:06:53Z</time>
      </trkpt>
      <trkpt lat="45.20604" lon="4.72734">
        <ele>243.81100463867</ele>
        <time>2010-01-02T14:06:58Z</time>
      </trkpt>
      <trkpt lat="45.20611" lon="4.72711">
        <ele>244.09899902344</ele>
        <time>2010-01-02T14:07:01Z</time>
      </trkpt>
      <trkpt lat="45.20625" lon="4.72667">
        <ele>244.73100280762</ele>
        <time>2010-01-02T14:07:06Z</time>
      </trkpt>
      <trkpt lat="45.20643" lon="4.72637">
        <ele>245.08700561523</ele>
        <time>2010-01-02T14:07:10Z</time>
      </trkpt>
      <trkpt lat="45.20654" lon="4.72617">
        <ele>245.18200683594</ele>
        <time>2010-01-02T14:07:13Z</time>
      </trkpt>
      <trkpt lat="45.20651" lon="4.72601">
        <ele>245.49299621582</ele>
        <time>2010-01-02T14:07:15Z</time>
      </trkpt>
      <trkpt lat="45.20642" lon="4.72592">
        <ele>246.04200744629</ele>
        <time>2010-01-02T14:07:16Z</time>
      </trkpt>
      <trkpt lat="45.20621" lon="4.72565">
        <ele>246.27000427246</ele>
        <time>2010-01-02T14:07:21Z</time>
      </trkpt>
      <trkpt lat="45.20621" lon="4.72539">
        <ele>246.38499450684</ele>
        <time>2010-01-02T14:07:24Z</time>
      </trkpt>
      <trkpt lat="45.20611" lon="4.72517">
        <ele>247.30599975586</ele>
        <time>2010-01-02T14:07:27Z</time>
      </trkpt>
      <trkpt lat="45.20607" lon="4.72512">
        <ele>247.22599792481</ele>
        <time>2010-01-02T14:07:28Z</time>
      </trkpt>
      <trkpt lat="45.20588" lon="4.72491">
        <ele>247.90800476074</ele>
        <time>2010-01-02T14:07:32Z</time>
      </trkpt>
      <trkpt lat="45.20567" lon="4.72456">
        <ele>248.55700683594</ele>
        <time>2010-01-02T14:07:38Z</time>
      </trkpt>
      <trkpt lat="45.2056" lon="4.72443">
        <ele>248.84700012207</ele>
        <time>2010-01-02T14:07:40Z</time>
      </trkpt>
      <trkpt lat="45.20548" lon="4.724">
        <ele>249.1190032959</ele>
        <time>2010-01-02T14:07:46Z</time>
      </trkpt>
      <trkpt lat="45.20548" lon="4.72376">
        <ele>249.65199279785</ele>
        <time>2010-01-02T14:07:49Z</time>
      </trkpt>
      <trkpt lat="45.20548" lon="4.72343">
        <ele>250.09599304199</ele>
        <time>2010-01-02T14:07:53Z</time>
      </trkpt>
      <trkpt lat="45.20549" lon="4.7231">
        <ele>250.6309967041</ele>
        <time>2010-01-02T14:07:57Z</time>
      </trkpt>
      <trkpt lat="45.20557" lon="4.72262">
        <ele>251.32499694824</ele>
        <time>2010-01-02T14:08:03Z</time>
      </trkpt>
      <trkpt lat="45.20554" lon="4.72246">
        <ele>251.67199707031</ele>
        <time>2010-01-02T14:08:05Z</time>
      </trkpt>
      <trkpt lat="45.20546" lon="4.72225">
        <ele>252.07000732422</ele>
        <time>2010-01-02T14:08:08Z</time>
      </trkpt>
      <trkpt lat="45.20544" lon="4.72193">
        <ele>252.82099914551</ele>
        <time>2010-01-02T14:08:12Z</time>
      </trkpt>
      <trkpt lat="45.20551" lon="4.72182">
        <ele>253.37100219727</ele>
        <time>2010-01-02T14:08:14Z</time>
      </trkpt>
      <trkpt lat="45.20567" lon="4.72185">
        <ele>253.61799621582</ele>
        <time>2010-01-02T14:08:17Z</time>
      </trkpt>
      <trkpt lat="45.20605" lon="4.72213">
        <ele>254.16400146484</ele>
        <time>2010-01-02T14:08:24Z</time>
      </trkpt>
      <trkpt lat="45.2064" lon="4.72227">
        <ele>254.8809967041</ele>
        <time>2010-01-02T14:08:30Z</time>
      </trkpt>
      <trkpt lat="45.20646" lon="4.72226">
        <ele>254.84800720215</ele>
        <time>2010-01-02T14:08:31Z</time>
      </trkpt>
      <trkpt lat="45.20673" lon="4.72218">
        <ele>255.71899414062</ele>
        <time>2010-01-02T14:08:36Z</time>
      </trkpt>
      <trkpt lat="45.20677" lon="4.72213">
        <ele>255.50900268555</ele>
        <time>2010-01-02T14:08:37Z</time>
      </trkpt>
      <trkpt lat="45.20711" lon="4.72174">
        <ele>255.52299499512</ele>
        <time>2010-01-02T14:08:44Z</time>
      </trkpt>
      <trkpt lat="45.20735" lon="4.72136">
        <ele>256.00698852539</ele>
        <time>2010-01-02T14:08:50Z</time>
      </trkpt>
      <trkpt lat="45.20745" lon="4.72116">
        <ele>256.19500732422</ele>
        <time>2010-01-02T14:08:53Z</time>
      </trkpt>
      <trkpt lat="45.20765" lon="4.721">
        <ele>256.46099853516</ele>
        <time>2010-01-02T14:08:57Z</time>
      </trkpt>
      <trkpt lat="45.20775" lon="4.72101">
        <ele>256.44299316406</ele>
        <time>2010-01-02T14:08:59Z</time>
      </trkpt>
      <trkpt lat="45.20799" lon="4.72107">
        <ele>257.03500366211</ele>
        <time>2010-01-02T14:09:03Z</time>
      </trkpt>
      <trkpt lat="45.20821" lon="4.72095">
        <ele>256.81600952148</ele>
        <time>2010-01-02T14:09:07Z</time>
      </trkpt>
      <trkpt lat="45.20826" lon="4.72077">
        <ele>256.98699951172</ele>
        <time>2010-01-02T14:09:10Z</time>
      </trkpt>
      <trkpt lat="45.20819" lon="4.72053">
        <ele>257.10598754883</ele>
        <time>2010-01-02T14:09:13Z</time>
      </trkpt>
      <trkpt lat="45.20792" lon="4.72021">
        <ele>257.62100219727</ele>
        <time>2010-01-02T14:09:19Z</time>
      </trkpt>
      <trkpt lat="45.20776" lon="4.71994">
        <ele>258.01599121094</ele>
        <time>2010-01-02T14:09:23Z</time>
      </trkpt>
      <trkpt lat="45.20758" lon="4.71957">
        <ele>258.25500488281</ele>
        <time>2010-01-02T14:09:28Z</time>
      </trkpt>
      <trkpt lat="45.20745" lon="4.71933">
        <ele>258.7380065918</ele>
        <time>2010-01-02T14:09:32Z</time>
      </trkpt>
      <trkpt lat="45.20745" lon="4.71898">
        <ele>259.02200317383</ele>
        <time>2010-01-02T14:09:36Z</time>
      </trkpt>
      <trkpt lat="45.20761" lon="4.71874">
        <ele>258.66500854492</ele>
        <time>2010-01-02T14:09:40Z</time>
      </trkpt>
      <trkpt lat="45.2076" lon="4.71845">
        <ele>259.01501464844</ele>
        <time>2010-01-02T14:09:43Z</time>
      </trkpt>
      <trkpt lat="45.20746" lon="4.71804">
        <ele>258.90100097656</ele>
        <time>2010-01-02T14:09:48Z</time>
      </trkpt>
      <trkpt lat="45.20751" lon="4.71766">
        <ele>259.38800048828</ele>
        <time>2010-01-02T14:09:52Z</time>
      </trkpt>
      <trkpt lat="45.20775" lon="4.71733">
        <ele>259.38500976562</ele>
        <time>2010-01-02T14:09:57Z</time>
      </trkpt>
      <trkpt lat="45.20797" lon="4.71714">
        <ele>259.33099365234</ele>
        <time>2010-01-02T14:10:01Z</time>
      </trkpt>
      <trkpt lat="45.2082" lon="4.71701">
        <ele>259.64199829102</ele>
        <time>2010-01-02T14:10:05Z</time>
      </trkpt>
      <trkpt lat="45.2085" lon="4.71685">
        <ele>259.82699584961</ele>
        <time>2010-01-02T14:10:10Z</time>
      </trkpt>
      <trkpt lat="45.20877" lon="4.71662">
        <ele>260.01098632812</ele>
        <time>2010-01-02T14:10:15Z</time>
      </trkpt>
      <trkpt lat="45.20874" lon="4.71645">
        <ele>260.37100219727</ele>
        <time>2010-01-02T14:10:17Z</time>
      </trkpt>
      <trkpt lat="45.20861" lon="4.71625">
        <ele>260.42199707031</ele>
        <time>2010-01-02T14:10:20Z</time>
      </trkpt>
      <trkpt lat="45.20854" lon="4.71621">
        <ele>260.33999633789</ele>
        <time>2010-01-02T14:10:21Z</time>
      </trkpt>
      <trkpt lat="45.20831" lon="4.71604">
        <ele>260.33898925781</ele>
        <time>2010-01-02T14:10:25Z</time>
      </trkpt>
      <trkpt lat="45.20827" lon="4.71587">
        <ele>260.4289855957</ele>
        <time>2010-01-02T14:10:27Z</time>
      </trkpt>
      <trkpt lat="45.20835" lon="4.71571">
        <ele>260.16000366211</ele>
        <time>2010-01-02T14:10:29Z</time>
      </trkpt>
      <trkpt lat="45.20857" lon="4.71535">
        <ele>260.3869934082</ele>
        <time>2010-01-02T14:10:34Z</time>
      </trkpt>
      <trkpt lat="45.20855" lon="4.71525">
        <ele>260.45300292969</ele>
        <time>2010-01-02T14:10:35Z</time>
      </trkpt>
      <trkpt lat="45.20848" lon="4.71441">
        <ele>261.19900512695</ele>
        <time>2010-01-02T14:10:44Z</time>
      </trkpt>
      <trkpt lat="45.20847" lon="4.71374">
        <ele>261.57400512695</ele>
        <time>2010-01-02T14:10:51Z</time>
      </trkpt>
      <trkpt lat="45.20845" lon="4.71278">
        <ele>262.12899780273</ele>
        <time>2010-01-02T14:11:01Z</time>
      </trkpt>
      <trkpt lat="45.20839" lon="4.71211">
        <ele>262.8210144043</ele>
        <time>2010-01-02T14:11:08Z</time>
      </trkpt>
      <trkpt lat="45.20835" lon="4.71172">
        <ele>262.81698608398</ele>
        <time>2010-01-02T14:11:12Z</time>
      </trkpt>
      <trkpt lat="45.20831" lon="4.71103">
        <ele>263.0299987793</ele>
        <time>2010-01-02T14:11:19Z</time>
      </trkpt>
      <trkpt lat="45.20831" lon="4.71093">
        <ele>263.07299804688</ele>
        <time>2010-01-02T14:11:20Z</time>
      </trkpt>
      <trkpt lat="45.20831" lon="4.71052">
        <ele>262.92599487305</ele>
        <time>2010-01-02T14:11:24Z</time>
      </trkpt>
      <trkpt lat="45.20842" lon="4.70996">
        <ele>263.06799316406</ele>
        <time>2010-01-02T14:11:30Z</time>
      </trkpt>
      <trkpt lat="45.20847" lon="4.70977">
        <ele>263.02301025391</ele>
        <time>2010-01-02T14:11:32Z</time>
      </trkpt>
      <trkpt lat="45.20857" lon="4.70948">
        <ele>262.55599975586</ele>
        <time>2010-01-02T14:11:36Z</time>
      </trkpt>
      <trkpt lat="45.20862" lon="4.70941">
        <ele>262.76000976562</ele>
        <time>2010-01-02T14:11:37Z</time>
      </trkpt>
      <trkpt lat="45.20905" lon="4.7091">
        <ele>262.88198852539</ele>
        <time>2010-01-02T14:11:44Z</time>
      </trkpt>
      <trkpt lat="45.20951" lon="4.70882">
        <ele>262.85400390625</ele>
        <time>2010-01-02T14:11:51Z</time>
      </trkpt>
      <trkpt lat="45.20958" lon="4.70878">
        <ele>263.04299926758</ele>
        <time>2010-01-02T14:11:52Z</time>
      </trkpt>
      <trkpt lat="45.20976" lon="4.70852">
        <ele>263.0950012207</ele>
        <time>2010-01-02T14:11:56Z</time>
      </trkpt>
      <trkpt lat="45.20995" lon="4.70761">
        <ele>262.66900634766</ele>
        <time>2010-01-02T14:12:05Z</time>
      </trkpt>
      <trkpt lat="45.20998" lon="4.70721">
        <ele>262.57000732422</ele>
        <time>2010-01-02T14:12:09Z</time>
      </trkpt>
      <trkpt lat="45.20997" lon="4.70671">
        <ele>262.52600097656</ele>
        <time>2010-01-02T14:12:14Z</time>
      </trkpt>
      <trkpt lat="45.20989" lon="4.70629">
        <ele>262.41400146484</ele>
        <time>2010-01-02T14:12:18Z</time>
      </trkpt>
      <trkpt lat="45.20986" lon="4.7058">
        <ele>262.53100585938</ele>
        <time>2010-01-02T14:12:23Z</time>
      </trkpt>
      <trkpt lat="45.20993" lon="4.70563">
        <ele>262.26901245117</ele>
        <time>2010-01-02T14:12:25Z</time>
      </trkpt>
      <trkpt lat="45.20998" lon="4.70557">
        <ele>261.88101196289</ele>
        <time>2010-01-02T14:12:26Z</time>
      </trkpt>
      <trkpt lat="45.21035" lon="4.70516">
        <ele>262.09399414062</ele>
        <time>2010-01-02T14:12:32Z</time>
      </trkpt>
      <trkpt lat="45.21074" lon="4.70467">
        <ele>262.73999023438</ele>
        <time>2010-01-02T14:12:39Z</time>
      </trkpt>
      <trkpt lat="45.21089" lon="4.70447">
        <ele>262.89199829102</ele>
        <time>2010-01-02T14:12:44Z</time>
      </trkpt>
      <trkpt lat="45.21141" lon="4.7037">
        <ele>263.81900024414</ele>
        <time>2010-01-02T14:12:52Z</time>
      </trkpt>
      <trkpt lat="45.21153" lon="4.70352">
        <ele>264.24398803711</ele>
        <time>2010-01-02T14:12:58Z</time>
      </trkpt>
      <trkpt lat="45.21191" lon="4.70284">
        <ele>264.75799560547</ele>
        <time>2010-01-02T14:13:04Z</time>
      </trkpt>
      <trkpt lat="45.21206" lon="4.70221">
        <ele>265.11199951172</ele>
        <time>2010-01-02T14:13:11Z</time>
      </trkpt>
      <trkpt lat="45.21211" lon="4.70193">
        <ele>265.44400024414</ele>
        <time>2010-01-02T14:13:14Z</time>
      </trkpt>
      <trkpt lat="45.21225" lon="4.70161">
        <ele>265.25100708008</ele>
        <time>2010-01-02T14:13:18Z</time>
      </trkpt>
      <trkpt lat="45.21271" lon="4.70129">
        <ele>265.42999267578</ele>
        <time>2010-01-02T14:13:25Z</time>
      </trkpt>
      <trkpt lat="45.21298" lon="4.70115">
        <ele>265.14898681641</ele>
        <time>2010-01-02T14:13:29Z</time>
      </trkpt>
      <trkpt lat="45.21341" lon="4.70114">
        <ele>265.72198486328</ele>
        <time>2010-01-02T14:13:35Z</time>
      </trkpt>
      <trkpt lat="45.21381" lon="4.70127">
        <ele>265.47198486328</ele>
        <time>2010-01-02T14:13:41Z</time>
      </trkpt>
      <trkpt lat="45.21413" lon="4.70129">
        <ele>266.32501220703</ele>
        <time>2010-01-02T14:13:46Z</time>
      </trkpt>
      <trkpt lat="45.21437" lon="4.70116">
        <ele>267.88500976562</ele>
        <time>2010-01-02T14:13:51Z</time>
      </trkpt>
      <trkpt lat="45.21446" lon="4.70106">
        <ele>267.7799987793</ele>
        <time>2010-01-02T14:13:53Z</time>
      </trkpt>
      <trkpt lat="45.21471" lon="4.70072">
        <ele>268.97198486328</ele>
        <time>2010-01-02T14:13:59Z</time>
      </trkpt>
      <trkpt lat="45.21494" lon="4.70023">
        <ele>269.76599121094</ele>
        <time>2010-01-02T14:14:06Z</time>
      </trkpt>
      <trkpt lat="45.2152" lon="4.69967">
        <ele>269.73699951172</ele>
        <time>2010-01-02T14:14:13Z</time>
      </trkpt>
      <trkpt lat="45.21558" lon="4.6991">
        <ele>270.40798950195</ele>
        <time>2010-01-02T14:14:21Z</time>
      </trkpt>
      <trkpt lat="45.21587" lon="4.69871">
        <ele>270.29800415039</ele>
        <time>2010-01-02T14:14:27Z</time>
      </trkpt>
      <trkpt lat="45.21617" lon="4.69847">
        <ele>270.52801513672</ele>
        <time>2010-01-02T14:14:32Z</time>
      </trkpt>
      <trkpt lat="45.21624" lon="4.69845">
        <ele>270.39300537109</ele>
        <time>2010-01-02T14:14:33Z</time>
      </trkpt>
      <trkpt lat="45.21684" lon="4.69847">
        <ele>269.77600097656</ele>
        <time>2010-01-02T14:14:41Z</time>
      </trkpt>
      <trkpt lat="45.21727" lon="4.69854">
        <ele>270.53500366211</ele>
        <time>2010-01-02T14:14:47Z</time>
      </trkpt>
      <trkpt lat="45.21772" lon="4.69863">
        <ele>270.87799072266</ele>
        <time>2010-01-02T14:14:54Z</time>
      </trkpt>
      <trkpt lat="45.21813" lon="4.69876">
        <ele>271.74200439453</ele>
        <time>2010-01-02T14:15:00Z</time>
      </trkpt>
      <trkpt lat="45.21825" lon="4.69883">
        <ele>271.72500610352</ele>
        <time>2010-01-02T14:15:02Z</time>
      </trkpt>
      <trkpt lat="45.21863" lon="4.69894">
        <ele>272.20999145508</ele>
        <time>2010-01-02T14:15:08Z</time>
      </trkpt>
      <trkpt lat="45.21879" lon="4.69902">
        <ele>272.74200439453</ele>
        <time>2010-01-02T14:15:11Z</time>
      </trkpt>
      <trkpt lat="45.2189" lon="4.69919">
        <ele>272.94000244141</ele>
        <time>2010-01-02T14:15:15Z</time>
      </trkpt>
      <trkpt lat="45.21898" lon="4.69942">
        <ele>273.29299926758</ele>
        <time>2010-01-02T14:15:18Z</time>
      </trkpt>
      <trkpt lat="45.21904" lon="4.69959">
        <ele>273.41198730469</ele>
        <time>2010-01-02T14:15:20Z</time>
      </trkpt>
      <trkpt lat="45.21918" lon="4.69997">
        <ele>274.1369934082</ele>
        <time>2010-01-02T14:15:25Z</time>
      </trkpt>
      <trkpt lat="45.21936" lon="4.70047">
        <ele>274.71398925781</ele>
        <time>2010-01-02T14:15:31Z</time>
      </trkpt>
      <trkpt lat="45.21957" lon="4.70093">
        <ele>275.2080078125</ele>
        <time>2010-01-02T14:15:36Z</time>
      </trkpt>
      <trkpt lat="45.2199" lon="4.70133">
        <ele>275.50399780273</ele>
        <time>2010-01-02T14:15:42Z</time>
      </trkpt>
      <trkpt lat="45.22009" lon="4.70139">
        <ele>275.93600463867</ele>
        <time>2010-01-02T14:15:45Z</time>
      </trkpt>
      <trkpt lat="45.21999" lon="4.70174">
        <ele>275.67599487305</ele>
        <time>2010-01-02T14:15:48Z</time>
      </trkpt>
      <trkpt lat="45.22024" lon="4.7012">
        <ele>276.10900878906</ele>
        <time>2010-01-02T14:15:51Z</time>
      </trkpt>
      <trkpt lat="45.22024" lon="4.70094">
        <ele>276.4049987793</ele>
        <time>2010-01-02T14:15:54Z</time>
      </trkpt>
      <trkpt lat="45.22019" lon="4.70086">
        <ele>276.6969909668</ele>
        <time>2010-01-02T14:15:55Z</time>
      </trkpt>
      <trkpt lat="45.21989" lon="4.70027">
        <ele>277.4880065918</ele>
        <time>2010-01-02T14:16:02Z</time>
      </trkpt>
      <trkpt lat="45.21976" lon="4.6999">
        <ele>277.5299987793</ele>
        <time>2010-01-02T14:16:06Z</time>
      </trkpt>
      <trkpt lat="45.21972" lon="4.69955">
        <ele>278.18399047852</ele>
        <time>2010-01-02T14:16:10Z</time>
      </trkpt>
      <trkpt lat="45.21973" lon="4.69914">
        <ele>279.14401245117</ele>
        <time>2010-01-02T14:16:14Z</time>
      </trkpt>
      <trkpt lat="45.21964" lon="4.69871">
        <ele>278.74600219727</ele>
        <time>2010-01-02T14:16:19Z</time>
      </trkpt>
      <trkpt lat="45.21969" lon="4.69845">
        <ele>279.31298828125</ele>
        <time>2010-01-02T14:16:22Z</time>
      </trkpt>
      <trkpt lat="45.21975" lon="4.6984">
        <ele>279.29598999023</ele>
        <time>2010-01-02T14:16:23Z</time>
      </trkpt>
      <trkpt lat="45.22031" lon="4.69791">
        <ele>280.17300415039</ele>
        <time>2010-01-02T14:16:32Z</time>
      </trkpt>
      <trkpt lat="45.22036" lon="4.69786">
        <ele>280.28100585938</ele>
        <time>2010-01-02T14:16:33Z</time>
      </trkpt>
      <trkpt lat="45.22063" lon="4.69785">
        <ele>280.94500732422</ele>
        <time>2010-01-02T14:16:37Z</time>
      </trkpt>
      <trkpt lat="45.22114" lon="4.69794">
        <ele>282.08898925781</ele>
        <time>2010-01-02T14:16:45Z</time>
      </trkpt>
      <trkpt lat="45.2212" lon="4.69795">
        <ele>282.28100585938</ele>
        <time>2010-01-02T14:16:46Z</time>
      </trkpt>
      <trkpt lat="45.22144" lon="4.69795">
        <ele>282.42300415039</ele>
        <time>2010-01-02T14:16:50Z</time>
      </trkpt>
      <trkpt lat="45.22149" lon="4.69781">
        <ele>282.59201049805</ele>
        <time>2010-01-02T14:16:52Z</time>
      </trkpt>
      <trkpt lat="45.22145" lon="4.69766">
        <ele>282.53698730469</ele>
        <time>2010-01-02T14:16:54Z</time>
      </trkpt>
      <trkpt lat="45.22138" lon="4.6975">
        <ele>282.94900512695</ele>
        <time>2010-01-02T14:16:56Z</time>
      </trkpt>
      <trkpt lat="45.22096" lon="4.69719">
        <ele>282.96200561523</ele>
        <time>2010-01-02T14:17:03Z</time>
      </trkpt>
      <trkpt lat="45.2208" lon="4.69701">
        <ele>283.10998535156</ele>
        <time>2010-01-02T14:17:06Z</time>
      </trkpt>
      <trkpt lat="45.2206" lon="4.69663">
        <ele>283.04400634766</ele>
        <time>2010-01-02T14:17:11Z</time>
      </trkpt>
      <trkpt lat="45.22061" lon="4.69625">
        <ele>283.51699829102</ele>
        <time>2010-01-02T14:17:15Z</time>
      </trkpt>
      <trkpt lat="45.22063" lon="4.69605">
        <ele>283.41101074219</ele>
        <time>2010-01-02T14:17:17Z</time>
      </trkpt>
      <trkpt lat="45.22076" lon="4.69528">
        <ele>283.83499145508</ele>
        <time>2010-01-02T14:17:25Z</time>
      </trkpt>
      <trkpt lat="45.22086" lon="4.69472">
        <ele>284.15701293945</ele>
        <time>2010-01-02T14:17:31Z</time>
      </trkpt>
      <trkpt lat="45.22094" lon="4.69424">
        <ele>284.26699829102</ele>
        <time>2010-01-02T14:17:36Z</time>
      </trkpt>
      <trkpt lat="45.22102" lon="4.69375">
        <ele>285.10299682617</ele>
        <time>2010-01-02T14:17:41Z</time>
      </trkpt>
      <trkpt lat="45.22097" lon="4.69315">
        <ele>285.57000732422</ele>
        <time>2010-01-02T14:17:47Z</time>
      </trkpt>
      <trkpt lat="45.22083" lon="4.69262">
        <ele>285.99200439453</ele>
        <time>2010-01-02T14:17:53Z</time>
      </trkpt>
      <trkpt lat="45.2208" lon="4.69228">
        <ele>286.44100952148</ele>
        <time>2010-01-02T14:17:57Z</time>
      </trkpt>
      <trkpt lat="45.221" lon="4.69206">
        <ele>286.9049987793</ele>
        <time>2010-01-02T14:18:01Z</time>
      </trkpt>
      <trkpt lat="45.22123" lon="4.69181">
        <ele>286.70901489258</ele>
        <time>2010-01-02T14:18:05Z</time>
      </trkpt>
      <trkpt lat="45.22161" lon="4.69161">
        <ele>287.8219909668</ele>
        <time>2010-01-02T14:18:11Z</time>
      </trkpt>
      <trkpt lat="45.22206" lon="4.69143">
        <ele>288.65600585938</ele>
        <time>2010-01-02T14:18:18Z</time>
      </trkpt>
      <trkpt lat="45.22226" lon="4.69132">
        <ele>288.9880065918</ele>
        <time>2010-01-02T14:18:21Z</time>
      </trkpt>
      <trkpt lat="45.22254" lon="4.69133">
        <ele>289.48400878906</ele>
        <time>2010-01-02T14:18:25Z</time>
      </trkpt>
      <trkpt lat="45.22265" lon="4.69137">
        <ele>290.10998535156</ele>
        <time>2010-01-02T14:18:27Z</time>
      </trkpt>
      <trkpt lat="45.22288" lon="4.69155">
        <ele>290.46600341797</ele>
        <time>2010-01-02T14:18:31Z</time>
      </trkpt>
      <trkpt lat="45.2231" lon="4.69173">
        <ele>291.20999145508</ele>
        <time>2010-01-02T14:18:35Z</time>
      </trkpt>
      <trkpt lat="45.2233" lon="4.69182">
        <ele>291.51400756836</ele>
        <time>2010-01-02T14:18:39Z</time>
      </trkpt>
      <trkpt lat="45.22338" lon="4.69171">
        <ele>291.88900756836</ele>
        <time>2010-01-02T14:18:41Z</time>
      </trkpt>
      <trkpt lat="45.22342" lon="4.69147">
        <ele>292.11898803711</ele>
        <time>2010-01-02T14:18:44Z</time>
      </trkpt>
      <trkpt lat="45.22341" lon="4.69115">
        <ele>292.39498901367</ele>
        <time>2010-01-02T14:18:47Z</time>
      </trkpt>
      <trkpt lat="45.22311" lon="4.69066">
        <ele>293.24899291992</ele>
        <time>2010-01-02T14:18:54Z</time>
      </trkpt>
      <trkpt lat="45.22295" lon="4.69039">
        <ele>293.48699951172</ele>
        <time>2010-01-02T14:18:58Z</time>
      </trkpt>
      <trkpt lat="45.2228" lon="4.69013">
        <ele>294.23001098633</ele>
        <time>2010-01-02T14:19:02Z</time>
      </trkpt>
      <trkpt lat="45.22277" lon="4.69006">
        <ele>294.10299682617</ele>
        <time>2010-01-02T14:19:03Z</time>
      </trkpt>
      <trkpt lat="45.22271" lon="4.68972">
        <ele>294.48699951172</ele>
        <time>2010-01-02T14:19:07Z</time>
      </trkpt>
      <trkpt lat="45.22265" lon="4.68913">
        <ele>295.81799316406</ele>
        <time>2010-01-02T14:19:14Z</time>
      </trkpt>
      <trkpt lat="45.22249" lon="4.68874">
        <ele>296.48699951172</ele>
        <time>2010-01-02T14:19:19Z</time>
      </trkpt>
      <trkpt lat="45.22231" lon="4.68855">
        <ele>296.73498535156</ele>
        <time>2010-01-02T14:19:23Z</time>
      </trkpt>
      <trkpt lat="45.22201" lon="4.68837">
        <ele>297.50399780273</ele>
        <time>2010-01-02T14:19:28Z</time>
      </trkpt>
      <trkpt lat="45.22183" lon="4.68817">
        <ele>297.80999755859</ele>
        <time>2010-01-02T14:19:32Z</time>
      </trkpt>
      <trkpt lat="45.22184" lon="4.688">
        <ele>297.9049987793</ele>
        <time>2010-01-02T14:19:34Z</time>
      </trkpt>
      <trkpt lat="45.22186" lon="4.68765">
        <ele>298.3869934082</ele>
        <time>2010-01-02T14:19:38Z</time>
      </trkpt>
      <trkpt lat="45.22194" lon="4.68732">
        <ele>298.87399291992</ele>
        <time>2010-01-02T14:19:42Z</time>
      </trkpt>
      <trkpt lat="45.22197" lon="4.68724">
        <ele>298.80999755859</ele>
        <time>2010-01-02T14:19:43Z</time>
      </trkpt>
      <trkpt lat="45.22218" lon="4.68697">
        <ele>299.24899291992</ele>
        <time>2010-01-02T14:19:47Z</time>
      </trkpt>
      <trkpt lat="45.22243" lon="4.68685">
        <ele>299.67599487305</ele>
        <time>2010-01-02T14:19:51Z</time>
      </trkpt>
      <trkpt lat="45.22268" lon="4.68679">
        <ele>299.64001464844</ele>
        <time>2010-01-02T14:19:55Z</time>
      </trkpt>
      <trkpt lat="45.2231" lon="4.68658">
        <ele>300.44100952148</ele>
        <time>2010-01-02T14:20:02Z</time>
      </trkpt>
      <trkpt lat="45.22329" lon="4.6866">
        <ele>300.51501464844</ele>
        <time>2010-01-02T14:20:05Z</time>
      </trkpt>
      <trkpt lat="45.22354" lon="4.68644">
        <ele>300.56100463867</ele>
        <time>2010-01-02T14:20:09Z</time>
      </trkpt>
      <trkpt lat="45.22357" lon="4.68635">
        <ele>300.82299804688</ele>
        <time>2010-01-02T14:20:10Z</time>
      </trkpt>
      <trkpt lat="45.22374" lon="4.68598">
        <ele>300.9460144043</ele>
        <time>2010-01-02T14:20:15Z</time>
      </trkpt>
      <trkpt lat="45.22379" lon="4.68592">
        <ele>300.9169921875</ele>
        <time>2010-01-02T14:20:16Z</time>
      </trkpt>
      <trkpt lat="45.22411" lon="4.68562">
        <ele>301.21701049805</ele>
        <time>2010-01-02T14:20:22Z</time>
      </trkpt>
      <trkpt lat="45.22448" lon="4.68543">
        <ele>301.08999633789</ele>
        <time>2010-01-02T14:20:28Z</time>
      </trkpt>
      <trkpt lat="45.22469" lon="4.68538">
        <ele>301.46200561523</ele>
        <time>2010-01-02T14:20:32Z</time>
      </trkpt>
      <trkpt lat="45.22496" lon="4.68545">
        <ele>301.51699829102</ele>
        <time>2010-01-02T14:20:36Z</time>
      </trkpt>
      <trkpt lat="45.22512" lon="4.68545">
        <ele>301.34698486328</ele>
        <time>2010-01-02T14:20:39Z</time>
      </trkpt>
      <trkpt lat="45.22529" lon="4.68545">
        <ele>301.54098510742</ele>
        <time>2010-01-02T14:20:42Z</time>
      </trkpt>
      <trkpt lat="45.22547" lon="4.68535">
        <ele>302.00799560547</ele>
        <time>2010-01-02T14:20:46Z</time>
      </trkpt>
      <trkpt lat="45.22559" lon="4.68526">
        <ele>301.71798706055</ele>
        <time>2010-01-02T14:20:48Z</time>
      </trkpt>
      <trkpt lat="45.22575" lon="4.68512">
        <ele>301.90600585938</ele>
        <time>2010-01-02T14:20:51Z</time>
      </trkpt>
      <trkpt lat="45.22599" lon="4.68506">
        <ele>302.46899414062</ele>
        <time>2010-01-02T14:20:55Z</time>
      </trkpt>
      <trkpt lat="45.22614" lon="4.68511">
        <ele>302.37799072266</ele>
        <time>2010-01-02T14:20:57Z</time>
      </trkpt>
      <trkpt lat="45.22642" lon="4.68495">
        <ele>302.36898803711</ele>
        <time>2010-01-02T14:21:02Z</time>
      </trkpt>
      <trkpt lat="45.22663" lon="4.68459">
        <ele>302.52099609375</ele>
        <time>2010-01-02T14:21:07Z</time>
      </trkpt>
      <trkpt lat="45.22678" lon="4.6845">
        <ele>302.69400024414</ele>
        <time>2010-01-02T14:21:10Z</time>
      </trkpt>
      <trkpt lat="45.22696" lon="4.68448">
        <ele>302.73098754883</ele>
        <time>2010-01-02T14:21:13Z</time>
      </trkpt>
      <trkpt lat="45.22713" lon="4.6844">
        <ele>302.47100830078</ele>
        <time>2010-01-02T14:21:16Z</time>
      </trkpt>
      <trkpt lat="45.22715" lon="4.68416">
        <ele>302.60101318359</ele>
        <time>2010-01-02T14:21:19Z</time>
      </trkpt>
      <trkpt lat="45.22697" lon="4.68389">
        <ele>302.90798950195</ele>
        <time>2010-01-02T14:21:23Z</time>
      </trkpt>
      <trkpt lat="45.22683" lon="4.68373">
        <ele>303.17999267578</ele>
        <time>2010-01-02T14:21:26Z</time>
      </trkpt>
      <trkpt lat="45.22659" lon="4.68344">
        <ele>303.39498901367</ele>
        <time>2010-01-02T14:21:31Z</time>
      </trkpt>
      <trkpt lat="45.22655" lon="4.68328">
        <ele>303.5539855957</ele>
        <time>2010-01-02T14:21:33Z</time>
      </trkpt>
      <trkpt lat="45.22645" lon="4.68282">
        <ele>303.50698852539</ele>
        <time>2010-01-02T14:21:39Z</time>
      </trkpt>
      <trkpt lat="45.2264" lon="4.68257">
        <ele>303.6549987793</ele>
        <time>2010-01-02T14:21:43Z</time>
      </trkpt>
      <trkpt lat="45.22639" lon="4.68232">
        <ele>303.9280090332</ele>
        <time>2010-01-02T14:21:49Z</time>
      </trkpt>
      <trkpt lat="45.2264" lon="4.68226">
        <ele>303.73498535156</ele>
        <time>2010-01-02T14:21:54Z</time>
      </trkpt>
      <trkpt lat="45.22642" lon="4.68216">
        <ele>303.72900390625</ele>
        <time>2010-01-02T14:22:30Z</time>
      </trkpt>
      <trkpt lat="45.22642" lon="4.68216">
        <ele>303.54000854492</ele>
        <time>2010-01-02T14:22:55Z</time>
      </trkpt>
      <trkpt lat="45.22642" lon="4.68216">
        <ele>303.60998535156</ele>
        <time>2010-01-02T14:23:00Z</time>
      </trkpt>
      <trkpt lat="45.22642" lon="4.68215">
        <ele>303.86700439453</ele>
        <time>2010-01-02T14:23:36Z</time>
      </trkpt>
      <trkpt lat="45.22642" lon="4.68215">
        <ele>303.80499267578</ele>
        <time>2010-01-02T14:23:39Z</time>
      </trkpt>
      <trkpt lat="45.22642" lon="4.68215">
        <ele>303.90600585938</ele>
        <time>2010-01-02T14:23:44Z</time>
      </trkpt>
      <trkpt lat="45.22622" lon="4.68165">
        <ele>303.72399902344</ele>
        <time>2010-01-02T14:23:51Z</time>
      </trkpt>
      <trkpt lat="45.2261" lon="4.68122">
        <ele>303.51599121094</ele>
        <time>2010-01-02T14:23:57Z</time>
      </trkpt>
      <trkpt lat="45.22604" lon="4.68073">
        <ele>304.13400268555</ele>
        <time>2010-01-02T14:24:04Z</time>
      </trkpt>
      <trkpt lat="45.22607" lon="4.68019">
        <ele>304.43701171875</ele>
        <time>2010-01-02T14:24:11Z</time>
      </trkpt>
      <trkpt lat="45.22608" lon="4.67987">
        <ele>304.35501098633</ele>
        <time>2010-01-02T14:24:16Z</time>
      </trkpt>
      <trkpt lat="45.22601" lon="4.67934">
        <ele>304.60800170898</ele>
        <time>2010-01-02T14:24:23Z</time>
      </trkpt>
      <trkpt lat="45.22579" lon="4.67875">
        <ele>304.52398681641</ele>
        <time>2010-01-02T14:24:31Z</time>
      </trkpt>
      <trkpt lat="45.22572" lon="4.67805">
        <ele>304.84799194336</ele>
        <time>2010-01-02T14:24:39Z</time>
      </trkpt>
      <trkpt lat="45.22567" lon="4.67746">
        <ele>305.08801269531</ele>
        <time>2010-01-02T14:24:46Z</time>
      </trkpt>
      <trkpt lat="45.22565" lon="4.67704">
        <ele>304.9049987793</ele>
        <time>2010-01-02T14:24:51Z</time>
      </trkpt>
      <trkpt lat="45.22573" lon="4.67635">
        <ele>305.43600463867</ele>
        <time>2010-01-02T14:24:59Z</time>
      </trkpt>
      <trkpt lat="45.22576" lon="4.67615">
        <ele>305.33898925781</ele>
        <time>2010-01-02T14:25:01Z</time>
      </trkpt>
      <trkpt lat="45.22588" lon="4.67594">
        <ele>305.77499389648</ele>
        <time>2010-01-02T14:25:04Z</time>
      </trkpt>
      <trkpt lat="45.22597" lon="4.6755">
        <ele>305.92300415039</ele>
        <time>2010-01-02T14:25:09Z</time>
      </trkpt>
      <trkpt lat="45.22635" lon="4.67533">
        <ele>305.84799194336</ele>
        <time>2010-01-02T14:25:13Z</time>
      </trkpt>
      <trkpt lat="45.22646" lon="4.67537">
        <ele>306.23001098633</ele>
        <time>2010-01-02T14:25:15Z</time>
      </trkpt>
      <trkpt lat="45.22702" lon="4.67557">
        <ele>306.23901367188</ele>
        <time>2010-01-02T14:25:25Z</time>
      </trkpt>
      <trkpt lat="45.22737" lon="4.67551">
        <ele>306.65701293945</ele>
        <time>2010-01-02T14:25:31Z</time>
      </trkpt>
      <trkpt lat="45.22769" lon="4.67531">
        <ele>306.66799926758</ele>
        <time>2010-01-02T14:25:37Z</time>
      </trkpt>
      <trkpt lat="45.22803" lon="4.67519">
        <ele>306.78799438477</ele>
        <time>2010-01-02T14:25:42Z</time>
      </trkpt>
      <trkpt lat="45.22828" lon="4.67536">
        <ele>306.64300537109</ele>
        <time>2010-01-02T14:25:46Z</time>
      </trkpt>
      <trkpt lat="45.22842" lon="4.67553">
        <ele>307.5950012207</ele>
        <time>2010-01-02T14:25:49Z</time>
      </trkpt>
      <trkpt lat="45.22884" lon="4.67617">
        <ele>307.48001098633</ele>
        <time>2010-01-02T14:25:59Z</time>
      </trkpt>
      <trkpt lat="45.22919" lon="4.67683">
        <ele>307.65701293945</ele>
        <time>2010-01-02T14:26:09Z</time>
      </trkpt>
      <trkpt lat="45.22945" lon="4.67735">
        <ele>308.37399291992</ele>
        <time>2010-01-02T14:26:17Z</time>
      </trkpt>
      <trkpt lat="45.22963" lon="4.67755">
        <ele>308.37399291992</ele>
        <time>2010-01-02T14:26:21Z</time>
      </trkpt>
      <trkpt lat="45.22992" lon="4.67779">
        <ele>308.74398803711</ele>
        <time>2010-01-02T14:26:27Z</time>
      </trkpt>
      <trkpt lat="45.23019" lon="4.67789">
        <ele>309.50500488281</ele>
        <time>2010-01-02T14:26:32Z</time>
      </trkpt>
      <trkpt lat="45.23024" lon="4.67788">
        <ele>309.2080078125</ele>
        <time>2010-01-02T14:26:33Z</time>
      </trkpt>
      <trkpt lat="45.23066" lon="4.67776">
        <ele>309.57400512695</ele>
        <time>2010-01-02T14:26:40Z</time>
      </trkpt>
      <trkpt lat="45.23123" lon="4.67749">
        <ele>310.66299438477</ele>
        <time>2010-01-02T14:26:50Z</time>
      </trkpt>
      <trkpt lat="45.23147" lon="4.67728">
        <ele>310.98400878906</ele>
        <time>2010-01-02T14:26:55Z</time>
      </trkpt>
      <trkpt lat="45.23177" lon="4.67684">
        <ele>311.0830078125</ele>
        <time>2010-01-02T14:27:02Z</time>
      </trkpt>
      <trkpt lat="45.23214" lon="4.67629">
        <ele>311.38299560547</ele>
        <time>2010-01-02T14:27:11Z</time>
      </trkpt>
      <trkpt lat="45.23222" lon="4.67617">
        <ele>311.14001464844</ele>
        <time>2010-01-02T14:27:13Z</time>
      </trkpt>
      <trkpt lat="45.23248" lon="4.67593">
        <ele>310.63900756836</ele>
        <time>2010-01-02T14:27:18Z</time>
      </trkpt>
      <trkpt lat="45.23273" lon="4.67583">
        <ele>309.55899047852</ele>
        <time>2010-01-02T14:27:22Z</time>
      </trkpt>
      <trkpt lat="45.23309" lon="4.67582">
        <ele>308.58200073242</ele>
        <time>2010-01-02T14:27:27Z</time>
      </trkpt>
      <trkpt lat="45.23341" lon="4.67583">
        <ele>307.35998535156</ele>
        <time>2010-01-02T14:27:31Z</time>
      </trkpt>
      <trkpt lat="45.23378" lon="4.67569">
        <ele>305.83898925781</ele>
        <time>2010-01-02T14:27:36Z</time>
      </trkpt>
      <trkpt lat="45.23384" lon="4.67563">
        <ele>305.31500244141</ele>
        <time>2010-01-02T14:27:37Z</time>
      </trkpt>
      <trkpt lat="45.23417" lon="4.67531">
        <ele>304.14599609375</ele>
        <time>2010-01-02T14:27:42Z</time>
      </trkpt>
      <trkpt lat="45.23429" lon="4.67519">
        <ele>303.44900512695</ele>
        <time>2010-01-02T14:27:44Z</time>
      </trkpt>
      <trkpt lat="45.23456" lon="4.67506">
        <ele>302.36700439453</ele>
        <time>2010-01-02T14:27:48Z</time>
      </trkpt>
      <trkpt lat="45.23466" lon="4.67503">
        <ele>301.86700439453</ele>
        <time>2010-01-02T14:27:51Z</time>
      </trkpt>
      <trkpt lat="45.23483" lon="4.67514">
        <ele>301.42999267578</ele>
        <time>2010-01-02T14:27:53Z</time>
      </trkpt>
      <trkpt lat="45.23487" lon="4.67508">
        <ele>301.11499023438</ele>
        <time>2010-01-02T14:27:54Z</time>
      </trkpt>
      <trkpt lat="45.23496" lon="4.67455">
        <ele>300.28100585938</ele>
        <time>2010-01-02T14:28:02Z</time>
      </trkpt>
      <trkpt lat="45.23522" lon="4.67368">
        <ele>301.4700012207</ele>
        <time>2010-01-02T14:28:10Z</time>
      </trkpt>
      <trkpt lat="45.23529" lon="4.67332">
        <ele>303.36999511719</ele>
        <time>2010-01-02T14:28:15Z</time>
      </trkpt>
      <trkpt lat="45.2353" lon="4.67325">
        <ele>303.7919921875</ele>
        <time>2010-01-02T14:28:16Z</time>
      </trkpt>
      <trkpt lat="45.23541" lon="4.6729">
        <ele>305.79501342773</ele>
        <time>2010-01-02T14:28:22Z</time>
      </trkpt>
      <trkpt lat="45.23545" lon="4.67282">
        <ele>305.98199462891</ele>
        <time>2010-01-02T14:28:23Z</time>
      </trkpt>
      <trkpt lat="45.23574" lon="4.67255">
        <ele>308.02499389648</ele>
        <time>2010-01-02T14:28:30Z</time>
      </trkpt>
      <trkpt lat="45.2359" lon="4.67244">
        <ele>309.38299560547</ele>
        <time>2010-01-02T14:28:34Z</time>
      </trkpt>
      <trkpt lat="45.23603" lon="4.67232">
        <ele>310.04998779297</ele>
        <time>2010-01-02T14:28:39Z</time>
      </trkpt>
      <trkpt lat="45.23603" lon="4.67232">
        <ele>310.31201171875</ele>
        <time>2010-01-02T14:28:43Z</time>
      </trkpt>
      <trkpt lat="45.23603" lon="4.67232">
        <ele>310.07400512695</ele>
        <time>2010-01-02T14:28:45Z</time>
      </trkpt>
      <trkpt lat="45.23595" lon="4.67184">
        <ele>309.37200927734</ele>
        <time>2010-01-02T14:28:52Z</time>
      </trkpt>
      <trkpt lat="45.23593" lon="4.67169">
        <ele>309.33898925781</ele>
        <time>2010-01-02T14:28:54Z</time>
      </trkpt>
      <trkpt lat="45.2359" lon="4.67155">
        <ele>310.14801025391</ele>
        <time>2010-01-02T14:28:58Z</time>
      </trkpt>
      <trkpt lat="45.23574" lon="4.67151">
        <ele>310.72900390625</ele>
        <time>2010-01-02T14:29:00Z</time>
      </trkpt>
      <trkpt lat="45.23543" lon="4.67157">
        <ele>313.24200439453</ele>
        <time>2010-01-02T14:29:08Z</time>
      </trkpt>
      <trkpt lat="45.23529" lon="4.67168">
        <ele>314.58801269531</ele>
        <time>2010-01-02T14:29:13Z</time>
      </trkpt>
      <trkpt lat="45.23522" lon="4.6718">
        <ele>315.34600830078</ele>
        <time>2010-01-02T14:29:16Z</time>
      </trkpt>
      <trkpt lat="45.23502" lon="4.6721">
        <ele>317.41598510742</ele>
        <time>2010-01-02T14:29:23Z</time>
      </trkpt>
      <trkpt lat="45.23469" lon="4.67239">
        <ele>320.11499023438</ele>
        <time>2010-01-02T14:29:33Z</time>
      </trkpt>
      <trkpt lat="45.23444" lon="4.67253">
        <ele>322.6960144043</ele>
        <time>2010-01-02T14:29:40Z</time>
      </trkpt>
      <trkpt lat="45.23432" lon="4.67258">
        <ele>323.99499511719</ele>
        <time>2010-01-02T14:29:46Z</time>
      </trkpt>
      <trkpt lat="45.23432" lon="4.67258">
        <ele>324.20599365234</ele>
        <time>2010-01-02T14:29:49Z</time>
      </trkpt>
      <trkpt lat="45.23395" lon="4.67275">
        <ele>323.9700012207</ele>
        <time>2010-01-02T14:29:54Z</time>
      </trkpt>
      <trkpt lat="45.23385" lon="4.67274">
        <ele>323.77099609375</ele>
        <time>2010-01-02T14:29:56Z</time>
      </trkpt>
      <trkpt lat="45.23358" lon="4.67271">
        <ele>323.74798583984</ele>
        <time>2010-01-02T14:30:01Z</time>
      </trkpt>
      <trkpt lat="45.23324" lon="4.67293">
        <ele>325.11401367188</ele>
        <time>2010-01-02T14:30:09Z</time>
      </trkpt>
      <trkpt lat="45.23296" lon="4.67324">
        <ele>326.90301513672</ele>
        <time>2010-01-02T14:30:17Z</time>
      </trkpt>
      <trkpt lat="45.23286" lon="4.67335">
        <ele>327.98300170898</ele>
        <time>2010-01-02T14:30:23Z</time>
      </trkpt>
      <trkpt lat="45.23257" lon="4.67368">
        <ele>329.43200683594</ele>
        <time>2010-01-02T14:30:30Z</time>
      </trkpt>
      <trkpt lat="45.23252" lon="4.67374">
        <ele>330.49398803711</ele>
        <time>2010-01-02T14:30:35Z</time>
      </trkpt>
      <trkpt lat="45.23216" lon="4.67411">
        <ele>331.8219909668</ele>
        <time>2010-01-02T14:30:42Z</time>
      </trkpt>
      <trkpt lat="45.23191" lon="4.67438">
        <ele>334.10800170898</ele>
        <time>2010-01-02T14:30:49Z</time>
      </trkpt>
      <trkpt lat="45.23155" lon="4.67466">
        <ele>335.9880065918</ele>
        <time>2010-01-02T14:30:58Z</time>
      </trkpt>
      <trkpt lat="45.23147" lon="4.67472">
        <ele>336.40798950195</ele>
        <time>2010-01-02T14:31:00Z</time>
      </trkpt>
      <trkpt lat="45.23121" lon="4.67477">
        <ele>337.35501098633</ele>
        <time>2010-01-02T14:31:06Z</time>
      </trkpt>
      <trkpt lat="45.23106" lon="4.67461">
        <ele>338.65399169922</ele>
        <time>2010-01-02T14:31:11Z</time>
      </trkpt>
      <trkpt lat="45.231" lon="4.67453">
        <ele>339.05801391602</ele>
        <time>2010-01-02T14:31:13Z</time>
      </trkpt>
      <trkpt lat="45.23079" lon="4.67424">
        <ele>340.46701049805</ele>
        <time>2010-01-02T14:31:20Z</time>
      </trkpt>
      <trkpt lat="45.23052" lon="4.67404">
        <ele>341.25698852539</ele>
        <time>2010-01-02T14:31:26Z</time>
      </trkpt>
      <trkpt lat="45.23048" lon="4.67406">
        <ele>341.64999389648</ele>
        <time>2010-01-02T14:31:27Z</time>
      </trkpt>
      <trkpt lat="45.23015" lon="4.67414">
        <ele>342.47900390625</ele>
        <time>2010-01-02T14:31:34Z</time>
      </trkpt>
      <trkpt lat="45.22987" lon="4.67413">
        <ele>343.3869934082</ele>
        <time>2010-01-02T14:31:40Z</time>
      </trkpt>
      <trkpt lat="45.22974" lon="4.6739">
        <ele>344.45901489258</ele>
        <time>2010-01-02T14:31:45Z</time>
      </trkpt>
      <trkpt lat="45.22955" lon="4.67349">
        <ele>345.67098999023</ele>
        <time>2010-01-02T14:31:53Z</time>
      </trkpt>
      <trkpt lat="45.22934" lon="4.67305">
        <ele>347.00601196289</ele>
        <time>2010-01-02T14:32:01Z</time>
      </trkpt>
      <trkpt lat="45.22916" lon="4.67267">
        <ele>348.4280090332</ele>
        <time>2010-01-02T14:32:08Z</time>
      </trkpt>
      <trkpt lat="45.22897" lon="4.67244">
        <ele>349.26400756836</ele>
        <time>2010-01-02T14:32:13Z</time>
      </trkpt>
      <trkpt lat="45.22883" lon="4.67241">
        <ele>349.92999267578</ele>
        <time>2010-01-02T14:32:16Z</time>
      </trkpt>
      <trkpt lat="45.22821" lon="4.67257">
        <ele>351.94299316406</ele>
        <time>2010-01-02T14:32:29Z</time>
      </trkpt>
      <trkpt lat="45.22778" lon="4.67276">
        <ele>353.77200317383</ele>
        <time>2010-01-02T14:32:39Z</time>
      </trkpt>
      <trkpt lat="45.22744" lon="4.67272">
        <ele>355.13900756836</ele>
        <time>2010-01-02T14:32:46Z</time>
      </trkpt>
      <trkpt lat="45.22732" lon="4.67269">
        <ele>355.81298828125</ele>
        <time>2010-01-02T14:32:49Z</time>
      </trkpt>
      <trkpt lat="45.22707" lon="4.67262">
        <ele>356.65100097656</ele>
        <time>2010-01-02T14:32:55Z</time>
      </trkpt>
      <trkpt lat="45.22696" lon="4.6727">
        <ele>357.19900512695</ele>
        <time>2010-01-02T14:32:58Z</time>
      </trkpt>
      <trkpt lat="45.22657" lon="4.67297">
        <ele>358.50500488281</ele>
        <time>2010-01-02T14:33:07Z</time>
      </trkpt>
      <trkpt lat="45.22614" lon="4.67303">
        <ele>360.00500488281</ele>
        <time>2010-01-02T14:33:16Z</time>
      </trkpt>
      <trkpt lat="45.22552" lon="4.67311">
        <ele>361.8030090332</ele>
        <time>2010-01-02T14:33:29Z</time>
      </trkpt>
      <trkpt lat="45.22498" lon="4.67316">
        <ele>363.89498901367</ele>
        <time>2010-01-02T14:33:40Z</time>
      </trkpt>
      <trkpt lat="45.22464" lon="4.67304">
        <ele>364.58200073242</ele>
        <time>2010-01-02T14:33:47Z</time>
      </trkpt>
      <trkpt lat="45.22437" lon="4.67284">
        <ele>365.72900390625</ele>
        <time>2010-01-02T14:33:53Z</time>
      </trkpt>
      <trkpt lat="45.22404" lon="4.67248">
        <ele>367.67199707031</ele>
        <time>2010-01-02T14:34:02Z</time>
      </trkpt>
      <trkpt lat="45.22382" lon="4.67228">
        <ele>368.76000976562</ele>
        <time>2010-01-02T14:34:08Z</time>
      </trkpt>
      <trkpt lat="45.22367" lon="4.67219">
        <ele>369.53799438477</ele>
        <time>2010-01-02T14:34:15Z</time>
      </trkpt>
      <trkpt lat="45.22297" lon="4.67205">
        <ele>370.05899047852</ele>
        <time>2010-01-02T14:34:25Z</time>
      </trkpt>
      <trkpt lat="45.22274" lon="4.67201">
        <ele>370.28799438477</ele>
        <time>2010-01-02T14:34:29Z</time>
      </trkpt>
      <trkpt lat="45.22238" lon="4.67179">
        <ele>370.56500244141</ele>
        <time>2010-01-02T14:34:36Z</time>
      </trkpt>
      <trkpt lat="45.2221" lon="4.6714">
        <ele>370.85598754883</ele>
        <time>2010-01-02T14:34:43Z</time>
      </trkpt>
      <trkpt lat="45.22192" lon="4.67083">
        <ele>371.43099975586</ele>
        <time>2010-01-02T14:34:51Z</time>
      </trkpt>
      <trkpt lat="45.22179" lon="4.67037">
        <ele>371.64300537109</ele>
        <time>2010-01-02T14:34:57Z</time>
      </trkpt>
      <trkpt lat="45.22174" lon="4.66996">
        <ele>371.9280090332</ele>
        <time>2010-01-02T14:35:05Z</time>
      </trkpt>
      <trkpt lat="45.22165" lon="4.6695">
        <ele>372.47900390625</ele>
        <time>2010-01-02T14:35:08Z</time>
      </trkpt>
      <trkpt lat="45.22152" lon="4.66916">
        <ele>372.80999755859</ele>
        <time>2010-01-02T14:35:13Z</time>
      </trkpt>
      <trkpt lat="45.22123" lon="4.66898">
        <ele>373.05999755859</ele>
        <time>2010-01-02T14:35:18Z</time>
      </trkpt>
      <trkpt lat="45.22084" lon="4.66891">
        <ele>372.66900634766</ele>
        <time>2010-01-02T14:35:25Z</time>
      </trkpt>
      <trkpt lat="45.22062" lon="4.66887">
        <ele>372.58099365234</ele>
        <time>2010-01-02T14:35:31Z</time>
      </trkpt>
      <trkpt lat="45.2205" lon="4.66885">
        <ele>372.70300292969</ele>
        <time>2010-01-02T14:35:37Z</time>
      </trkpt>
      <trkpt lat="45.2205" lon="4.66885">
        <ele>372.77398681641</ele>
        <time>2010-01-02T14:35:39Z</time>
      </trkpt>
      <trkpt lat="45.2205" lon="4.66885">
        <ele>372.4169921875</ele>
        <time>2010-01-02T14:35:44Z</time>
      </trkpt>
      <trkpt lat="45.22018" lon="4.66884">
        <ele>372.33999633789</ele>
        <time>2010-01-02T14:35:49Z</time>
      </trkpt>
      <trkpt lat="45.21996" lon="4.66881">
        <ele>372.30099487305</ele>
        <time>2010-01-02T14:35:55Z</time>
      </trkpt>
      <trkpt lat="45.21981" lon="4.6688">
        <ele>372.4700012207</ele>
        <time>2010-01-02T14:35:59Z</time>
      </trkpt>
      <trkpt lat="45.21943" lon="4.66876">
        <ele>372.125</ele>
        <time>2010-01-02T14:36:08Z</time>
      </trkpt>
      <trkpt lat="45.21905" lon="4.66876">
        <ele>371.40701293945</ele>
        <time>2010-01-02T14:36:15Z</time>
      </trkpt>
      <trkpt lat="45.21861" lon="4.66898">
        <ele>370.01501464844</ele>
        <time>2010-01-02T14:36:24Z</time>
      </trkpt>
      <trkpt lat="45.21827" lon="4.66917">
        <ele>369.70901489258</ele>
        <time>2010-01-02T14:36:30Z</time>
      </trkpt>
      <trkpt lat="45.21796" lon="4.66934">
        <ele>369.88900756836</ele>
        <time>2010-01-02T14:36:36Z</time>
      </trkpt>
      <trkpt lat="45.21778" lon="4.66958">
        <ele>370.59799194336</ele>
        <time>2010-01-02T14:36:41Z</time>
      </trkpt>
      <trkpt lat="45.21758" lon="4.67006">
        <ele>371.9280090332</ele>
        <time>2010-01-02T14:36:49Z</time>
      </trkpt>
      <trkpt lat="45.21733" lon="4.6704">
        <ele>372.96798706055</ele>
        <time>2010-01-02T14:36:56Z</time>
      </trkpt>
      <trkpt lat="45.21702" lon="4.67063">
        <ele>373.99398803711</ele>
        <time>2010-01-02T14:37:03Z</time>
      </trkpt>
      <trkpt lat="45.21672" lon="4.67079">
        <ele>374.87399291992</ele>
        <time>2010-01-02T14:37:09Z</time>
      </trkpt>
      <trkpt lat="45.21645" lon="4.67081">
        <ele>376.46499633789</ele>
        <time>2010-01-02T14:37:14Z</time>
      </trkpt>
      <trkpt lat="45.2163" lon="4.67079">
        <ele>376.68701171875</ele>
        <time>2010-01-02T14:37:17Z</time>
      </trkpt>
      <trkpt lat="45.21595" lon="4.67051">
        <ele>378.00399780273</ele>
        <time>2010-01-02T14:37:24Z</time>
      </trkpt>
      <trkpt lat="45.21573" lon="4.67013">
        <ele>379.52398681641</ele>
        <time>2010-01-02T14:37:31Z</time>
      </trkpt>
      <trkpt lat="45.2156" lon="4.66987">
        <ele>380.20700073242</ele>
        <time>2010-01-02T14:37:36Z</time>
      </trkpt>
      <trkpt lat="45.21531" lon="4.66962">
        <ele>381.1669921875</ele>
        <time>2010-01-02T14:37:43Z</time>
      </trkpt>
      <trkpt lat="45.21522" lon="4.66963">
        <ele>381.52398681641</ele>
        <time>2010-01-02T14:37:45Z</time>
      </trkpt>
      <trkpt lat="45.21501" lon="4.66966">
        <ele>383.05801391602</ele>
        <time>2010-01-02T14:37:53Z</time>
      </trkpt>
      <trkpt lat="45.21427" lon="4.66989">
        <ele>385.24700927734</ele>
        <time>2010-01-02T14:38:05Z</time>
      </trkpt>
      <trkpt lat="45.21371" lon="4.67008">
        <ele>387.00500488281</ele>
        <time>2010-01-02T14:38:17Z</time>
      </trkpt>
      <trkpt lat="45.21333" lon="4.67021">
        <ele>387.98199462891</ele>
        <time>2010-01-02T14:38:25Z</time>
      </trkpt>
      <trkpt lat="45.21286" lon="4.67037">
        <ele>388.4700012207</ele>
        <time>2010-01-02T14:38:34Z</time>
      </trkpt>
      <trkpt lat="45.21259" lon="4.67046">
        <ele>388.88900756836</ele>
        <time>2010-01-02T14:38:40Z</time>
      </trkpt>
      <trkpt lat="45.21255" lon="4.67048">
        <ele>389.02899169922</ele>
        <time>2010-01-02T14:38:41Z</time>
      </trkpt>
      <trkpt lat="45.21216" lon="4.67061">
        <ele>389.27899169922</ele>
        <time>2010-01-02T14:38:49Z</time>
      </trkpt>
      <trkpt lat="45.2118" lon="4.67075">
        <ele>389.39001464844</ele>
        <time>2010-01-02T14:38:56Z</time>
      </trkpt>
      <trkpt lat="45.21148" lon="4.67092">
        <ele>389.37200927734</ele>
        <time>2010-01-02T14:39:03Z</time>
      </trkpt>
      <trkpt lat="45.21111" lon="4.67112">
        <ele>388.80700683594</ele>
        <time>2010-01-02T14:39:10Z</time>
      </trkpt>
      <trkpt lat="45.21083" lon="4.67127">
        <ele>387.9880065918</ele>
        <time>2010-01-02T14:39:15Z</time>
      </trkpt>
      <trkpt lat="45.21064" lon="4.67137">
        <ele>387.30599975586</ele>
        <time>2010-01-02T14:39:18Z</time>
      </trkpt>
      <trkpt lat="45.21037" lon="4.67151">
        <ele>385.99301147461</ele>
        <time>2010-01-02T14:39:22Z</time>
      </trkpt>
      <trkpt lat="45.20971" lon="4.67187">
        <ele>383.09399414062</ele>
        <time>2010-01-02T14:39:31Z</time>
      </trkpt>
      <trkpt lat="45.20904" lon="4.67223">
        <ele>381.26501464844</ele>
        <time>2010-01-02T14:39:40Z</time>
      </trkpt>
      <trkpt lat="45.20839" lon="4.67258">
        <ele>380.28500366211</ele>
        <time>2010-01-02T14:39:49Z</time>
      </trkpt>
      <trkpt lat="45.20791" lon="4.67286">
        <ele>379.14801025391</ele>
        <time>2010-01-02T14:39:56Z</time>
      </trkpt>
      <trkpt lat="45.20729" lon="4.67275">
        <ele>377.91198730469</ele>
        <time>2010-01-02T14:40:04Z</time>
      </trkpt>
      <trkpt lat="45.20676" lon="4.67264">
        <ele>376.85400390625</ele>
        <time>2010-01-02T14:40:11Z</time>
      </trkpt>
      <trkpt lat="45.20617" lon="4.67249">
        <ele>375.66900634766</ele>
        <time>2010-01-02T14:40:19Z</time>
      </trkpt>
      <trkpt lat="45.20554" lon="4.6721">
        <ele>374.20498657227</ele>
        <time>2010-01-02T14:40:28Z</time>
      </trkpt>
      <trkpt lat="45.20488" lon="4.67171">
        <ele>372.89199829102</ele>
        <time>2010-01-02T14:40:37Z</time>
      </trkpt>
      <trkpt lat="45.20465" lon="4.67157">
        <ele>372.63598632812</ele>
        <time>2010-01-02T14:40:40Z</time>
      </trkpt>
      <trkpt lat="45.20435" lon="4.67153">
        <ele>372.62701416016</ele>
        <time>2010-01-02T14:40:44Z</time>
      </trkpt>
      <trkpt lat="45.20414" lon="4.67161">
        <ele>372.24499511719</ele>
        <time>2010-01-02T14:40:47Z</time>
      </trkpt>
      <trkpt lat="45.20404" lon="4.67178">
        <ele>371.90301513672</ele>
        <time>2010-01-02T14:40:49Z</time>
      </trkpt>
      <trkpt lat="45.20376" lon="4.67228">
        <ele>372.57800292969</ele>
        <time>2010-01-02T14:40:57Z</time>
      </trkpt>
      <trkpt lat="45.20353" lon="4.67289">
        <ele>373.67999267578</ele>
        <time>2010-01-02T14:41:03Z</time>
      </trkpt>
      <trkpt lat="45.20346" lon="4.6734">
        <ele>374.80999755859</ele>
        <time>2010-01-02T14:41:10Z</time>
      </trkpt>
      <trkpt lat="45.20348" lon="4.67385">
        <ele>376.01300048828</ele>
        <time>2010-01-02T14:41:16Z</time>
      </trkpt>
      <trkpt lat="45.20353" lon="4.67442">
        <ele>377.60598754883</ele>
        <time>2010-01-02T14:41:24Z</time>
      </trkpt>
      <trkpt lat="45.20361" lon="4.67503">
        <ele>379.74700927734</ele>
        <time>2010-01-02T14:41:33Z</time>
      </trkpt>
      <trkpt lat="45.20367" lon="4.67551">
        <ele>380.98901367188</ele>
        <time>2010-01-02T14:41:40Z</time>
      </trkpt>
      <trkpt lat="45.20378" lon="4.67637">
        <ele>383.52801513672</ele>
        <time>2010-01-02T14:41:53Z</time>
      </trkpt>
      <trkpt lat="45.20385" lon="4.67696">
        <ele>385.50201416016</ele>
        <time>2010-01-02T14:42:02Z</time>
      </trkpt>
      <trkpt lat="45.20389" lon="4.67762">
        <ele>387.44100952148</ele>
        <time>2010-01-02T14:42:12Z</time>
      </trkpt>
      <trkpt lat="45.20385" lon="4.67794">
        <ele>388.71600341797</ele>
        <time>2010-01-02T14:42:17Z</time>
      </trkpt>
      <trkpt lat="45.20377" lon="4.67812">
        <ele>389.41500854492</ele>
        <time>2010-01-02T14:42:20Z</time>
      </trkpt>
      <trkpt lat="45.20349" lon="4.67851">
        <ele>391.66000366211</ele>
        <time>2010-01-02T14:42:29Z</time>
      </trkpt>
      <trkpt lat="45.2032" lon="4.6788">
        <ele>393.05099487305</ele>
        <time>2010-01-02T14:42:37Z</time>
      </trkpt>
      <trkpt lat="45.20284" lon="4.67913">
        <ele>394.68798828125</ele>
        <time>2010-01-02T14:42:46Z</time>
      </trkpt>
      <trkpt lat="45.20243" lon="4.67938">
        <ele>397.01901245117</ele>
        <time>2010-01-02T14:42:55Z</time>
      </trkpt>
      <trkpt lat="45.20196" lon="4.67957">
        <ele>399.58999633789</ele>
        <time>2010-01-02T14:43:05Z</time>
      </trkpt>
      <trkpt lat="45.20137" lon="4.67973">
        <ele>402.03298950195</ele>
        <time>2010-01-02T14:43:17Z</time>
      </trkpt>
      <trkpt lat="45.20068" lon="4.67995">
        <ele>405.60400390625</ele>
        <time>2010-01-02T14:43:31Z</time>
      </trkpt>
      <trkpt lat="45.20041" lon="4.68009">
        <ele>406.81799316406</ele>
        <time>2010-01-02T14:43:37Z</time>
      </trkpt>
      <trkpt lat="45.2001" lon="4.68039">
        <ele>408.3869934082</ele>
        <time>2010-01-02T14:43:45Z</time>
      </trkpt>
      <trkpt lat="45.19992" lon="4.68065">
        <ele>409.5530090332</ele>
        <time>2010-01-02T14:43:51Z</time>
      </trkpt>
      <trkpt lat="45.1997" lon="4.68107">
        <ele>410.21798706055</ele>
        <time>2010-01-02T14:43:59Z</time>
      </trkpt>
      <trkpt lat="45.19952" lon="4.68146">
        <ele>411.20098876953</ele>
        <time>2010-01-02T14:44:06Z</time>
      </trkpt>
      <trkpt lat="45.19933" lon="4.68185">
        <ele>412.03601074219</ele>
        <time>2010-01-02T14:44:13Z</time>
      </trkpt>
      <trkpt lat="45.19912" lon="4.68232">
        <ele>413.10501098633</ele>
        <time>2010-01-02T14:44:21Z</time>
      </trkpt>
      <trkpt lat="45.19904" lon="4.68249">
        <ele>413.31201171875</ele>
        <time>2010-01-02T14:44:24Z</time>
      </trkpt>
      <trkpt lat="45.19875" lon="4.68295">
        <ele>412.15600585938</ele>
        <time>2010-01-02T14:44:32Z</time>
      </trkpt>
      <trkpt lat="45.19865" lon="4.68305">
        <ele>411.36199951172</ele>
        <time>2010-01-02T14:44:34Z</time>
      </trkpt>
      <trkpt lat="45.19833" lon="4.68331">
        <ele>409.80499267578</ele>
        <time>2010-01-02T14:44:40Z</time>
      </trkpt>
      <trkpt lat="45.19812" lon="4.68342">
        <ele>408.84201049805</ele>
        <time>2010-01-02T14:44:44Z</time>
      </trkpt>
      <trkpt lat="45.19771" lon="4.68361">
        <ele>407.98699951172</ele>
        <time>2010-01-02T14:44:51Z</time>
      </trkpt>
      <trkpt lat="45.19718" lon="4.68381">
        <ele>405.95498657227</ele>
        <time>2010-01-02T14:44:59Z</time>
      </trkpt>
      <trkpt lat="45.1969" lon="4.68399">
        <ele>404.38299560547</ele>
        <time>2010-01-02T14:45:04Z</time>
      </trkpt>
      <trkpt lat="45.19633" lon="4.68423">
        <ele>402.95300292969</ele>
        <time>2010-01-02T14:45:11Z</time>
      </trkpt>
      <trkpt lat="45.19595" lon="4.68438">
        <ele>402.02398681641</ele>
        <time>2010-01-02T14:45:16Z</time>
      </trkpt>
      <trkpt lat="45.1955" lon="4.68459">
        <ele>401.01501464844</ele>
        <time>2010-01-02T14:45:22Z</time>
      </trkpt>
      <trkpt lat="45.19521" lon="4.68472">
        <ele>400.6780090332</ele>
        <time>2010-01-02T14:45:26Z</time>
      </trkpt>
      <trkpt lat="45.19501" lon="4.68481">
        <ele>399.86199951172</ele>
        <time>2010-01-02T14:45:29Z</time>
      </trkpt>
      <trkpt lat="45.19501" lon="4.68481">
        <ele>399.61199951172</ele>
        <time>2010-01-02T14:45:32Z</time>
      </trkpt>
      <trkpt lat="45.19419" lon="4.6852">
        <ele>398.08999633789</ele>
        <time>2010-01-02T14:45:41Z</time>
      </trkpt>
      <trkpt lat="45.19358" lon="4.68548">
        <ele>396.78698730469</ele>
        <time>2010-01-02T14:45:50Z</time>
      </trkpt>
      <trkpt lat="45.19311" lon="4.6857">
        <ele>395.16101074219</ele>
        <time>2010-01-02T14:45:57Z</time>
      </trkpt>
      <trkpt lat="45.19258" lon="4.68596">
        <ele>394.45901489258</ele>
        <time>2010-01-02T14:46:05Z</time>
      </trkpt>
      <trkpt lat="45.19181" lon="4.68631">
        <ele>393.41400146484</ele>
        <time>2010-01-02T14:46:16Z</time>
      </trkpt>
      <trkpt lat="45.19156" lon="4.68642">
        <ele>393.29400634766</ele>
        <time>2010-01-02T14:46:20Z</time>
      </trkpt>
      <trkpt lat="45.19123" lon="4.68658">
        <ele>393.2919921875</ele>
        <time>2010-01-02T14:46:26Z</time>
      </trkpt>
      <trkpt lat="45.19114" lon="4.68663">
        <ele>393.68899536133</ele>
        <time>2010-01-02T14:46:28Z</time>
      </trkpt>
      <trkpt lat="45.19089" lon="4.68674">
        <ele>393.83401489258</ele>
        <time>2010-01-02T14:46:35Z</time>
      </trkpt>
      <trkpt lat="45.19089" lon="4.68674">
        <ele>394.15899658203</ele>
        <time>2010-01-02T14:46:41Z</time>
      </trkpt>
      <trkpt lat="45.19043" lon="4.68679">
        <ele>395.2080078125</ele>
        <time>2010-01-02T14:46:49Z</time>
      </trkpt>
      <trkpt lat="45.19027" lon="4.68682">
        <ele>395.59100341797</ele>
        <time>2010-01-02T14:46:54Z</time>
      </trkpt>
      <trkpt lat="45.19009" lon="4.68685">
        <ele>396.09201049805</ele>
        <time>2010-01-02T14:47:00Z</time>
      </trkpt>
      <trkpt lat="45.18988" lon="4.68687">
        <ele>397.34799194336</ele>
        <time>2010-01-02T14:47:07Z</time>
      </trkpt>
      <trkpt lat="45.18977" lon="4.68687">
        <ele>397.95199584961</ele>
        <time>2010-01-02T14:47:14Z</time>
      </trkpt>
      <trkpt lat="45.18941" lon="4.68695">
        <ele>399.13800048828</ele>
        <time>2010-01-02T14:47:21Z</time>
      </trkpt>
      <trkpt lat="45.18921" lon="4.68699">
        <ele>399.91900634766</ele>
        <time>2010-01-02T14:47:27Z</time>
      </trkpt>
      <trkpt lat="45.18917" lon="4.687">
        <ele>400.33801269531</ele>
        <time>2010-01-02T14:47:34Z</time>
      </trkpt>
      <trkpt lat="45.18882" lon="4.68708">
        <ele>400.24301147461</ele>
        <time>2010-01-02T14:47:38Z</time>
      </trkpt>
      <trkpt lat="45.1885" lon="4.68718">
        <ele>400.33898925781</ele>
        <time>2010-01-02T14:47:45Z</time>
      </trkpt>
      <trkpt lat="45.18831" lon="4.68723">
        <ele>400.67599487305</ele>
        <time>2010-01-02T14:47:49Z</time>
      </trkpt>
      <trkpt lat="45.18803" lon="4.68732">
        <ele>401.10598754883</ele>
        <time>2010-01-02T14:47:55Z</time>
      </trkpt>
      <trkpt lat="45.1879" lon="4.68741">
        <ele>401.28900146484</ele>
        <time>2010-01-02T14:47:58Z</time>
      </trkpt>
      <trkpt lat="45.18789" lon="4.68743">
        <ele>401.70098876953</ele>
        <time>2010-01-02T14:48:02Z</time>
      </trkpt>
      <trkpt lat="45.1878" lon="4.68768">
        <ele>401.22900390625</ele>
        <time>2010-01-02T14:48:03Z</time>
      </trkpt>
      <trkpt lat="45.18775" lon="4.68828">
        <ele>399.56900024414</ele>
        <time>2010-01-02T14:48:10Z</time>
      </trkpt>
      <trkpt lat="45.18771" lon="4.68876">
        <ele>396.72500610352</ele>
        <time>2010-01-02T14:48:17Z</time>
      </trkpt>
      <trkpt lat="45.18758" lon="4.6894">
        <ele>395.33401489258</ele>
        <time>2010-01-02T14:48:21Z</time>
      </trkpt>
      <trkpt lat="45.18758" lon="4.6894">
        <ele>393.92001342773</ele>
        <time>2010-01-02T14:48:24Z</time>
      </trkpt>
      <trkpt lat="45.18739" lon="4.68983">
        <ele>393.28900146484</ele>
        <time>2010-01-02T14:48:25Z</time>
      </trkpt>
      <trkpt lat="45.1872" lon="4.69005">
        <ele>390.76000976562</ele>
        <time>2010-01-02T14:48:29Z</time>
      </trkpt>
      <trkpt lat="45.18697" lon="4.69014">
        <ele>390.16598510742</ele>
        <time>2010-01-02T14:48:30Z</time>
      </trkpt>
      <trkpt lat="45.18656" lon="4.69028">
        <ele>387.79998779297</ele>
        <time>2010-01-02T14:48:34Z</time>
      </trkpt>
      <trkpt lat="45.18579" lon="4.69051">
        <ele>382.19100952148</ele>
        <time>2010-01-02T14:48:41Z</time>
      </trkpt>
      <trkpt lat="45.18496" lon="4.69076">
        <ele>376.98901367188</ele>
        <time>2010-01-02T14:48:48Z</time>
      </trkpt>
      <trkpt lat="45.18424" lon="4.69098">
        <ele>372.63101196289</ele>
        <time>2010-01-02T14:48:54Z</time>
      </trkpt>
      <trkpt lat="45.18385" lon="4.69097">
        <ele>370.94400024414</ele>
        <time>2010-01-02T14:48:57Z</time>
      </trkpt>
      <trkpt lat="45.18373" lon="4.69092">
        <ele>370.27801513672</ele>
        <time>2010-01-02T14:48:58Z</time>
      </trkpt>
      <trkpt lat="45.18349" lon="4.69084">
        <ele>369.13800048828</ele>
        <time>2010-01-02T14:49:00Z</time>
      </trkpt>
      <trkpt lat="45.18302" lon="4.69085">
        <ele>368.0299987793</ele>
        <time>2010-01-02T14:49:04Z</time>
      </trkpt>
      <trkpt lat="45.1829" lon="4.69086">
        <ele>368.59201049805</ele>
        <time>2010-01-02T14:49:05Z</time>
      </trkpt>
      <trkpt lat="45.1822" lon="4.69111">
        <ele>367.71798706055</ele>
        <time>2010-01-02T14:49:12Z</time>
      </trkpt>
      <trkpt lat="45.18181" lon="4.69126">
        <ele>369.37701416016</ele>
        <time>2010-01-02T14:49:17Z</time>
      </trkpt>
      <trkpt lat="45.18144" lon="4.69139">
        <ele>371.08599853516</ele>
        <time>2010-01-02T14:49:23Z</time>
      </trkpt>
      <trkpt lat="45.18123" lon="4.69147">
        <ele>371.90100097656</ele>
        <time>2010-01-02T14:49:27Z</time>
      </trkpt>
      <trkpt lat="45.18092" lon="4.69158">
        <ele>372.30999755859</ele>
        <time>2010-01-02T14:49:33Z</time>
      </trkpt>
      <trkpt lat="45.18041" lon="4.69178">
        <ele>374.23098754883</ele>
        <time>2010-01-02T14:49:43Z</time>
      </trkpt>
      <trkpt lat="45.18011" lon="4.69192">
        <ele>376.1369934082</ele>
        <time>2010-01-02T14:49:49Z</time>
      </trkpt>
      <trkpt lat="45.17996" lon="4.69201">
        <ele>377.38400268555</ele>
        <time>2010-01-02T14:49:52Z</time>
      </trkpt>
      <trkpt lat="45.17967" lon="4.69219">
        <ele>378.64199829102</ele>
        <time>2010-01-02T14:49:58Z</time>
      </trkpt>
      <trkpt lat="45.17937" lon="4.69238">
        <ele>380.03399658203</ele>
        <time>2010-01-02T14:50:04Z</time>
      </trkpt>
      <trkpt lat="45.17891" lon="4.69266">
        <ele>383.60198974609</ele>
        <time>2010-01-02T14:50:15Z</time>
      </trkpt>
      <trkpt lat="45.17891" lon="4.69266">
        <ele>384.27600097656</ele>
        <time>2010-01-02T14:50:17Z</time>
      </trkpt>
      <trkpt lat="45.17839" lon="4.69285">
        <ele>385.45498657227</ele>
        <time>2010-01-02T14:50:24Z</time>
      </trkpt>
      <trkpt lat="45.17824" lon="4.69294">
        <ele>386.32400512695</ele>
        <time>2010-01-02T14:50:27Z</time>
      </trkpt>
      <trkpt lat="45.1781" lon="4.69305">
        <ele>387.65701293945</ele>
        <time>2010-01-02T14:50:34Z</time>
      </trkpt>
      <trkpt lat="45.17777" lon="4.69359">
        <ele>388.94100952148</ele>
        <time>2010-01-02T14:50:41Z</time>
      </trkpt>
      <trkpt lat="45.17751" lon="4.69401">
        <ele>390.73001098633</ele>
        <time>2010-01-02T14:50:49Z</time>
      </trkpt>
      <trkpt lat="45.1773" lon="4.69429">
        <ele>392.40200805664</ele>
        <time>2010-01-02T14:50:56Z</time>
      </trkpt>
      <trkpt lat="45.17708" lon="4.69455">
        <ele>392.78298950195</ele>
        <time>2010-01-02T14:51:03Z</time>
      </trkpt>
      <trkpt lat="45.17678" lon="4.69488">
        <ele>393.96099853516</ele>
        <time>2010-01-02T14:51:12Z</time>
      </trkpt>
      <trkpt lat="45.17656" lon="4.69514">
        <ele>394.91900634766</ele>
        <time>2010-01-02T14:51:19Z</time>
      </trkpt>
      <trkpt lat="45.17647" lon="4.69524">
        <ele>396.87799072266</ele>
        <time>2010-01-02T14:51:28Z</time>
      </trkpt>
      <trkpt lat="45.17598" lon="4.69561">
        <ele>398.59600830078</ele>
        <time>2010-01-02T14:51:35Z</time>
      </trkpt>
      <trkpt lat="45.17591" lon="4.69567">
        <ele>399.45599365234</ele>
        <time>2010-01-02T14:51:41Z</time>
      </trkpt>
      <trkpt lat="45.17547" lon="4.69561">
        <ele>399.70001220703</ele>
        <time>2010-01-02T14:51:48Z</time>
      </trkpt>
      <trkpt lat="45.17514" lon="4.69554">
        <ele>400.25601196289</ele>
        <time>2010-01-02T14:51:55Z</time>
      </trkpt>
      <trkpt lat="45.17479" lon="4.69546">
        <ele>401.00500488281</ele>
        <time>2010-01-02T14:52:02Z</time>
      </trkpt>
      <trkpt lat="45.17469" lon="4.69544">
        <ele>401.15798950195</ele>
        <time>2010-01-02T14:52:04Z</time>
      </trkpt>
      <trkpt lat="45.17428" lon="4.69533">
        <ele>401.36499023438</ele>
        <time>2010-01-02T14:52:13Z</time>
      </trkpt>
      <trkpt lat="45.17396" lon="4.69522">
        <ele>400.55599975586</ele>
        <time>2010-01-02T14:52:19Z</time>
      </trkpt>
      <trkpt lat="45.17353" lon="4.69509">
        <ele>400.02099609375</ele>
        <time>2010-01-02T14:52:26Z</time>
      </trkpt>
      <trkpt lat="45.17305" lon="4.69497">
        <ele>400.49600219727</ele>
        <time>2010-01-02T14:52:34Z</time>
      </trkpt>
      <trkpt lat="45.17255" lon="4.69484">
        <ele>401.43701171875</ele>
        <time>2010-01-02T14:52:43Z</time>
      </trkpt>
      <trkpt lat="45.17208" lon="4.69473">
        <ele>402.79400634766</ele>
        <time>2010-01-02T14:52:52Z</time>
      </trkpt>
      <trkpt lat="45.17167" lon="4.69463">
        <ele>403.30499267578</ele>
        <time>2010-01-02T14:53:00Z</time>
      </trkpt>
      <trkpt lat="45.17135" lon="4.69455">
        <ele>403.73999023438</ele>
        <time>2010-01-02T14:53:06Z</time>
      </trkpt>
      <trkpt lat="45.1709" lon="4.69444">
        <ele>404.125</ele>
        <time>2010-01-02T14:53:14Z</time>
      </trkpt>
      <trkpt lat="45.17038" lon="4.69431">
        <ele>404.7380065918</ele>
        <time>2010-01-02T14:53:23Z</time>
      </trkpt>
      <trkpt lat="45.16975" lon="4.69416">
        <ele>405.77398681641</ele>
        <time>2010-01-02T14:53:34Z</time>
      </trkpt>
      <trkpt lat="45.16924" lon="4.69403">
        <ele>405.99301147461</ele>
        <time>2010-01-02T14:53:42Z</time>
      </trkpt>
      <trkpt lat="45.16886" lon="4.69394">
        <ele>406.28698730469</ele>
        <time>2010-01-02T14:53:48Z</time>
      </trkpt>
      <trkpt lat="45.1687" lon="4.69389">
        <ele>406.11401367188</ele>
        <time>2010-01-02T14:53:51Z</time>
      </trkpt>
      <trkpt lat="45.16875" lon="4.6941">
        <ele>405.82299804688</ele>
        <time>2010-01-02T14:53:54Z</time>
      </trkpt>
      <trkpt lat="45.16879" lon="4.69471">
        <ele>405.77499389648</ele>
        <time>2010-01-02T14:54:02Z</time>
      </trkpt>
      <trkpt lat="45.16883" lon="4.6955">
        <ele>405.80499267578</ele>
        <time>2010-01-02T14:54:11Z</time>
      </trkpt>
      <trkpt lat="45.16887" lon="4.69616">
        <ele>405.06799316406</ele>
        <time>2010-01-02T14:54:18Z</time>
      </trkpt>
      <trkpt lat="45.16898" lon="4.69673">
        <ele>403.36499023438</ele>
        <time>2010-01-02T14:54:24Z</time>
      </trkpt>
      <trkpt lat="45.16911" lon="4.69741">
        <ele>402.35998535156</ele>
        <time>2010-01-02T14:54:31Z</time>
      </trkpt>
      <trkpt lat="45.16914" lon="4.69781">
        <ele>401.93200683594</ele>
        <time>2010-01-02T14:54:35Z</time>
      </trkpt>
      <trkpt lat="45.16922" lon="4.69877">
        <ele>399.85998535156</ele>
        <time>2010-01-02T14:54:45Z</time>
      </trkpt>
      <trkpt lat="45.1693" lon="4.6994">
        <ele>400.88299560547</ele>
        <time>2010-01-02T14:54:52Z</time>
      </trkpt>
      <trkpt lat="45.16943" lon="4.69985">
        <ele>400.7799987793</ele>
        <time>2010-01-02T14:54:58Z</time>
      </trkpt>
      <trkpt lat="45.16957" lon="4.70033">
        <ele>401.08599853516</ele>
        <time>2010-01-02T14:55:05Z</time>
      </trkpt>
      <trkpt lat="45.16976" lon="4.70095">
        <ele>400.625</ele>
        <time>2010-01-02T14:55:14Z</time>
      </trkpt>
      <trkpt lat="45.16984" lon="4.70123">
        <ele>401.04098510742</ele>
        <time>2010-01-02T14:55:18Z</time>
      </trkpt>
      <trkpt lat="45.16998" lon="4.70171">
        <ele>401.64999389648</ele>
        <time>2010-01-02T14:55:25Z</time>
      </trkpt>
      <trkpt lat="45.17012" lon="4.70217">
        <ele>401.84899902344</ele>
        <time>2010-01-02T14:55:32Z</time>
      </trkpt>
      <trkpt lat="45.17023" lon="4.70255">
        <ele>402.35998535156</ele>
        <time>2010-01-02T14:55:38Z</time>
      </trkpt>
      <trkpt lat="45.17029" lon="4.70275">
        <ele>404.00799560547</ele>
        <time>2010-01-02T14:55:46Z</time>
      </trkpt>
      <trkpt lat="45.17043" lon="4.7034">
        <ele>405.67199707031</ele>
        <time>2010-01-02T14:55:52Z</time>
      </trkpt>
      <trkpt lat="45.17045" lon="4.7035">
        <ele>406.4580078125</ele>
        <time>2010-01-02T14:55:54Z</time>
      </trkpt>
      <trkpt lat="45.17052" lon="4.70385">
        <ele>406.04000854492</ele>
        <time>2010-01-02T14:56:00Z</time>
      </trkpt>
      <trkpt lat="45.17055" lon="4.70395">
        <ele>406.56799316406</ele>
        <time>2010-01-02T14:56:06Z</time>
      </trkpt>
      <trkpt lat="45.17064" lon="4.70469">
        <ele>406.86700439453</ele>
        <time>2010-01-02T14:56:14Z</time>
      </trkpt>
      <trkpt lat="45.17068" lon="4.70491">
        <ele>407.31298828125</ele>
        <time>2010-01-02T14:56:18Z</time>
      </trkpt>
      <trkpt lat="45.17077" lon="4.70542">
        <ele>408.4880065918</ele>
        <time>2010-01-02T14:56:27Z</time>
      </trkpt>
      <trkpt lat="45.17083" lon="4.70575">
        <ele>409.20401000977</ele>
        <time>2010-01-02T14:56:33Z</time>
      </trkpt>
      <trkpt lat="45.17086" lon="4.70592">
        <ele>410.04000854492</ele>
        <time>2010-01-02T14:56:36Z</time>
      </trkpt>
      <trkpt lat="45.17094" lon="4.70634">
        <ele>409.49700927734</ele>
        <time>2010-01-02T14:56:43Z</time>
      </trkpt>
      <trkpt lat="45.17104" lon="4.70694">
        <ele>410.11599731445</ele>
        <time>2010-01-02T14:56:52Z</time>
      </trkpt>
      <trkpt lat="45.17115" lon="4.70751">
        <ele>409.60501098633</ele>
        <time>2010-01-02T14:57:00Z</time>
      </trkpt>
      <trkpt lat="45.17128" lon="4.7083">
        <ele>408.85400390625</ele>
        <time>2010-01-02T14:57:10Z</time>
      </trkpt>
      <trkpt lat="45.17137" lon="4.70877">
        <ele>408.25601196289</ele>
        <time>2010-01-02T14:57:16Z</time>
      </trkpt>
      <trkpt lat="45.17141" lon="4.70897">
        <ele>407.13598632812</ele>
        <time>2010-01-02T14:57:22Z</time>
      </trkpt>
      <trkpt lat="45.17179" lon="4.70981">
        <ele>404.3869934082</ele>
        <time>2010-01-02T14:57:29Z</time>
      </trkpt>
      <trkpt lat="45.17213" lon="4.71057">
        <ele>403.25100708008</ele>
        <time>2010-01-02T14:57:37Z</time>
      </trkpt>
      <trkpt lat="45.17228" lon="4.71092">
        <ele>403.29800415039</ele>
        <time>2010-01-02T14:57:41Z</time>
      </trkpt>
      <trkpt lat="45.17254" lon="4.71156">
        <ele>403.66500854492</ele>
        <time>2010-01-02T14:57:49Z</time>
      </trkpt>
      <trkpt lat="45.17272" lon="4.71212">
        <ele>403.94500732422</ele>
        <time>2010-01-02T14:57:56Z</time>
      </trkpt>
      <trkpt lat="45.17289" lon="4.71267">
        <ele>403.62399291992</ele>
        <time>2010-01-02T14:58:03Z</time>
      </trkpt>
      <trkpt lat="45.1731" lon="4.71331">
        <ele>402.43701171875</ele>
        <time>2010-01-02T14:58:11Z</time>
      </trkpt>
      <trkpt lat="45.17321" lon="4.71367">
        <ele>401.94799804688</ele>
        <time>2010-01-02T14:58:16Z</time>
      </trkpt>
      <trkpt lat="45.17339" lon="4.71425">
        <ele>401.25601196289</ele>
        <time>2010-01-02T14:58:23Z</time>
      </trkpt>
      <trkpt lat="45.17358" lon="4.71489">
        <ele>399.62701416016</ele>
        <time>2010-01-02T14:58:30Z</time>
      </trkpt>
      <trkpt lat="45.17369" lon="4.71524">
        <ele>399.01599121094</ele>
        <time>2010-01-02T14:58:34Z</time>
      </trkpt>
      <trkpt lat="45.17387" lon="4.71576">
        <ele>397.68301391602</ele>
        <time>2010-01-02T14:58:40Z</time>
      </trkpt>
      <trkpt lat="45.17413" lon="4.71652">
        <ele>395.17300415039</ele>
        <time>2010-01-02T14:58:48Z</time>
      </trkpt>
      <trkpt lat="45.17432" lon="4.71711">
        <ele>393.67098999023</ele>
        <time>2010-01-02T14:58:54Z</time>
      </trkpt>
      <trkpt lat="45.17459" lon="4.71789">
        <ele>391.44299316406</ele>
        <time>2010-01-02T14:59:02Z</time>
      </trkpt>
      <trkpt lat="45.17483" lon="4.71862">
        <ele>389.12600708008</ele>
        <time>2010-01-02T14:59:09Z</time>
      </trkpt>
      <trkpt lat="45.17494" lon="4.71894">
        <ele>387.62799072266</ele>
        <time>2010-01-02T14:59:12Z</time>
      </trkpt>
      <trkpt lat="45.17512" lon="4.71952">
        <ele>385.05599975586</ele>
        <time>2010-01-02T14:59:17Z</time>
      </trkpt>
      <trkpt lat="45.17529" lon="4.72024">
        <ele>383.31201171875</ele>
        <time>2010-01-02T14:59:23Z</time>
      </trkpt>
      <trkpt lat="45.17546" lon="4.72101">
        <ele>384.09201049805</ele>
        <time>2010-01-02T14:59:30Z</time>
      </trkpt>
      <trkpt lat="45.17571" lon="4.72154">
        <ele>383.30801391602</ele>
        <time>2010-01-02T14:59:36Z</time>
      </trkpt>
      <trkpt lat="45.17608" lon="4.72233">
        <ele>381.47500610352</ele>
        <time>2010-01-02T14:59:45Z</time>
      </trkpt>
      <trkpt lat="45.17643" lon="4.72309">
        <ele>379.8219909668</ele>
        <time>2010-01-02T14:59:55Z</time>
      </trkpt>
      <trkpt lat="45.17678" lon="4.72383">
        <ele>380.00799560547</ele>
        <time>2010-01-02T15:00:02Z</time>
      </trkpt>
      <trkpt lat="45.17718" lon="4.72463">
        <ele>379.45599365234</ele>
        <time>2010-01-02T15:00:12Z</time>
      </trkpt>
      <trkpt lat="45.17754" lon="4.72537">
        <ele>379.84799194336</ele>
        <time>2010-01-02T15:00:22Z</time>
      </trkpt>
      <trkpt lat="45.17789" lon="4.72609">
        <ele>378.73400878906</ele>
        <time>2010-01-02T15:00:31Z</time>
      </trkpt>
      <trkpt lat="45.17825" lon="4.72671">
        <ele>378.02700805664</ele>
        <time>2010-01-02T15:00:39Z</time>
      </trkpt>
      <trkpt lat="45.17859" lon="4.72706">
        <ele>376.63598632812</ele>
        <time>2010-01-02T15:00:45Z</time>
      </trkpt>
      <trkpt lat="45.17904" lon="4.72749">
        <ele>376.48498535156</ele>
        <time>2010-01-02T15:00:53Z</time>
      </trkpt>
      <trkpt lat="45.17941" lon="4.72775">
        <ele>376.85699462891</ele>
        <time>2010-01-02T15:01:00Z</time>
      </trkpt>
      <trkpt lat="45.17979" lon="4.72803">
        <ele>378.18600463867</ele>
        <time>2010-01-02T15:01:08Z</time>
      </trkpt>
      <trkpt lat="45.18008" lon="4.7283">
        <ele>378.67700195312</ele>
        <time>2010-01-02T15:01:15Z</time>
      </trkpt>
      <trkpt lat="45.18031" lon="4.7286">
        <ele>380.04598999023</ele>
        <time>2010-01-02T15:01:22Z</time>
      </trkpt>
      <trkpt lat="45.18033" lon="4.72863">
        <ele>380.70001220703</ele>
        <time>2010-01-02T15:01:28Z</time>
      </trkpt>
      <trkpt lat="45.18074" lon="4.72943">
        <ele>380.33200073242</ele>
        <time>2010-01-02T15:01:37Z</time>
      </trkpt>
      <trkpt lat="45.18104" lon="4.72994">
        <ele>380.5299987793</ele>
        <time>2010-01-02T15:01:45Z</time>
      </trkpt>
      <trkpt lat="45.1814" lon="4.73032">
        <ele>379.41299438477</ele>
        <time>2010-01-02T15:01:52Z</time>
      </trkpt>
      <trkpt lat="45.18154" lon="4.73047">
        <ele>379.19100952148</ele>
        <time>2010-01-02T15:01:55Z</time>
      </trkpt>
      <trkpt lat="45.18186" lon="4.7307">
        <ele>379.23901367188</ele>
        <time>2010-01-02T15:02:01Z</time>
      </trkpt>
      <trkpt lat="45.18219" lon="4.73077">
        <ele>378.77899169922</ele>
        <time>2010-01-02T15:02:07Z</time>
      </trkpt>
      <trkpt lat="45.18249" lon="4.73077">
        <ele>378.63299560547</ele>
        <time>2010-01-02T15:02:12Z</time>
      </trkpt>
      <trkpt lat="45.1828" lon="4.73077">
        <ele>378.42999267578</ele>
        <time>2010-01-02T15:02:17Z</time>
      </trkpt>
      <trkpt lat="45.18319" lon="4.73082">
        <ele>378.4880065918</ele>
        <time>2010-01-02T15:02:23Z</time>
      </trkpt>
      <trkpt lat="45.18342" lon="4.731">
        <ele>377.67300415039</ele>
        <time>2010-01-02T15:02:27Z</time>
      </trkpt>
      <trkpt lat="45.18346" lon="4.73103">
        <ele>377.375</ele>
        <time>2010-01-02T15:02:28Z</time>
      </trkpt>
      <trkpt lat="45.18374" lon="4.73158">
        <ele>377.36898803711</ele>
        <time>2010-01-02T15:02:35Z</time>
      </trkpt>
      <trkpt lat="45.18409" lon="4.73199">
        <ele>376.89898681641</ele>
        <time>2010-01-02T15:02:42Z</time>
      </trkpt>
      <trkpt lat="45.18465" lon="4.73254">
        <ele>376.99499511719</ele>
        <time>2010-01-02T15:02:52Z</time>
      </trkpt>
      <trkpt lat="45.18504" lon="4.73268">
        <ele>376.16000366211</ele>
        <time>2010-01-02T15:02:58Z</time>
      </trkpt>
      <trkpt lat="45.18522" lon="4.73275">
        <ele>374.39001464844</ele>
        <time>2010-01-02T15:03:04Z</time>
      </trkpt>
      <trkpt lat="45.18554" lon="4.73297">
        <ele>374.49301147461</ele>
        <time>2010-01-02T15:03:06Z</time>
      </trkpt>
      <trkpt lat="45.18578" lon="4.73343">
        <ele>374.40399169922</ele>
        <time>2010-01-02T15:03:14Z</time>
      </trkpt>
      <trkpt lat="45.18595" lon="4.73373">
        <ele>372.70999145508</ele>
        <time>2010-01-02T15:03:20Z</time>
      </trkpt>
      <trkpt lat="45.18627" lon="4.73471">
        <ele>372.25799560547</ele>
        <time>2010-01-02T15:03:28Z</time>
      </trkpt>
      <trkpt lat="45.18643" lon="4.73538">
        <ele>373.67001342773</ele>
        <time>2010-01-02T15:03:36Z</time>
      </trkpt>
      <trkpt lat="45.18645" lon="4.73548">
        <ele>374.30200195312</ele>
        <time>2010-01-02T15:03:38Z</time>
      </trkpt>
      <trkpt lat="45.1865" lon="4.73574">
        <ele>374.82000732422</ele>
        <time>2010-01-02T15:03:41Z</time>
      </trkpt>
      <trkpt lat="45.1866" lon="4.7361">
        <ele>375.76300048828</ele>
        <time>2010-01-02T15:03:46Z</time>
      </trkpt>
      <trkpt lat="45.18664" lon="4.73635">
        <ele>376.15100097656</ele>
        <time>2010-01-02T15:03:51Z</time>
      </trkpt>
      <trkpt lat="45.18664" lon="4.73635">
        <ele>375.93099975586</ele>
        <time>2010-01-02T15:03:56Z</time>
      </trkpt>
      <trkpt lat="45.18679" lon="4.73667">
        <ele>375.87399291992</ele>
        <time>2010-01-02T15:03:58Z</time>
      </trkpt>
      <trkpt lat="45.1872" lon="4.73672">
        <ele>374.43301391602</ele>
        <time>2010-01-02T15:04:06Z</time>
      </trkpt>
      <trkpt lat="45.18751" lon="4.73669">
        <ele>373.00201416016</ele>
        <time>2010-01-02T15:04:11Z</time>
      </trkpt>
      <trkpt lat="45.18796" lon="4.73645">
        <ele>371.54901123047</ele>
        <time>2010-01-02T15:04:19Z</time>
      </trkpt>
      <trkpt lat="45.18807" lon="4.73638">
        <ele>371.50201416016</ele>
        <time>2010-01-02T15:04:21Z</time>
      </trkpt>
      <trkpt lat="45.18813" lon="4.73635">
        <ele>371.27700805664</ele>
        <time>2010-01-02T15:04:22Z</time>
      </trkpt>
      <trkpt lat="45.18853" lon="4.73611">
        <ele>369.31799316406</ele>
        <time>2010-01-02T15:04:29Z</time>
      </trkpt>
      <trkpt lat="45.18875" lon="4.73598">
        <ele>368.61199951172</ele>
        <time>2010-01-02T15:04:33Z</time>
      </trkpt>
      <trkpt lat="45.18904" lon="4.73599">
        <ele>367.14001464844</ele>
        <time>2010-01-02T15:04:38Z</time>
      </trkpt>
      <trkpt lat="45.18914" lon="4.73608">
        <ele>366.61199951172</ele>
        <time>2010-01-02T15:04:40Z</time>
      </trkpt>
      <trkpt lat="45.18941" lon="4.73644">
        <ele>365.43499755859</ele>
        <time>2010-01-02T15:04:46Z</time>
      </trkpt>
      <trkpt lat="45.1898" lon="4.7369">
        <ele>363.28601074219</ele>
        <time>2010-01-02T15:04:53Z</time>
      </trkpt>
      <trkpt lat="45.18997" lon="4.73722">
        <ele>361.60598754883</ele>
        <time>2010-01-02T15:04:57Z</time>
      </trkpt>
      <trkpt lat="45.18999" lon="4.73733">
        <ele>361.15399169922</ele>
        <time>2010-01-02T15:04:58Z</time>
      </trkpt>
      <trkpt lat="45.19003" lon="4.73788">
        <ele>359.99301147461</ele>
        <time>2010-01-02T15:05:03Z</time>
      </trkpt>
      <trkpt lat="45.19012" lon="4.7383">
        <ele>358.96600341797</ele>
        <time>2010-01-02T15:05:07Z</time>
      </trkpt>
      <trkpt lat="45.1903" lon="4.73866">
        <ele>357.52600097656</ele>
        <time>2010-01-02T15:05:11Z</time>
      </trkpt>
      <trkpt lat="45.1904" lon="4.73926">
        <ele>354.5830078125</ele>
        <time>2010-01-02T15:05:16Z</time>
      </trkpt>
      <trkpt lat="45.19039" lon="4.73977">
        <ele>353.06100463867</ele>
        <time>2010-01-02T15:05:20Z</time>
      </trkpt>
      <trkpt lat="45.19042" lon="4.74077">
        <ele>350.89898681641</ele>
        <time>2010-01-02T15:05:28Z</time>
      </trkpt>
      <trkpt lat="45.19048" lon="4.74166">
        <ele>347.77099609375</ele>
        <time>2010-01-02T15:05:35Z</time>
      </trkpt>
      <trkpt lat="45.19059" lon="4.74228">
        <ele>345.79901123047</ele>
        <time>2010-01-02T15:05:40Z</time>
      </trkpt>
      <trkpt lat="45.19085" lon="4.74309">
        <ele>343.42498779297</ele>
        <time>2010-01-02T15:05:47Z</time>
      </trkpt>
      <trkpt lat="45.19101" lon="4.74354">
        <ele>341.73699951172</ele>
        <time>2010-01-02T15:05:51Z</time>
      </trkpt>
      <trkpt lat="45.19109" lon="4.74377">
        <ele>342.36401367188</ele>
        <time>2010-01-02T15:05:53Z</time>
      </trkpt>
      <trkpt lat="45.19132" lon="4.7446">
        <ele>339.4700012207</ele>
        <time>2010-01-02T15:06:00Z</time>
      </trkpt>
      <trkpt lat="45.19149" lon="4.74521">
        <ele>336.82299804688</ele>
        <time>2010-01-02T15:06:05Z</time>
      </trkpt>
      <trkpt lat="45.19172" lon="4.74622">
        <ele>333.43701171875</ele>
        <time>2010-01-02T15:06:13Z</time>
      </trkpt>
      <trkpt lat="45.19174" lon="4.74636">
        <ele>332.51501464844</ele>
        <time>2010-01-02T15:06:14Z</time>
      </trkpt>
      <trkpt lat="45.1917" lon="4.74693">
        <ele>330.41198730469</ele>
        <time>2010-01-02T15:06:18Z</time>
      </trkpt>
      <trkpt lat="45.19151" lon="4.74732">
        <ele>328.29598999023</ele>
        <time>2010-01-02T15:06:21Z</time>
      </trkpt>
      <trkpt lat="45.19113" lon="4.74757">
        <ele>326.23999023438</ele>
        <time>2010-01-02T15:06:25Z</time>
      </trkpt>
      <trkpt lat="45.19083" lon="4.7477">
        <ele>325.9460144043</ele>
        <time>2010-01-02T15:06:28Z</time>
      </trkpt>
      <trkpt lat="45.19073" lon="4.74795">
        <ele>323.92098999023</ele>
        <time>2010-01-02T15:06:30Z</time>
      </trkpt>
      <trkpt lat="45.1907" lon="4.74823">
        <ele>323.78601074219</ele>
        <time>2010-01-02T15:06:32Z</time>
      </trkpt>
      <trkpt lat="45.19067" lon="4.7491">
        <ele>320.98001098633</ele>
        <time>2010-01-02T15:06:38Z</time>
      </trkpt>
      <trkpt lat="45.19065" lon="4.74967">
        <ele>318.83499145508</ele>
        <time>2010-01-02T15:06:42Z</time>
      </trkpt>
      <trkpt lat="45.19065" lon="4.75008">
        <ele>317.57901000977</ele>
        <time>2010-01-02T15:06:45Z</time>
      </trkpt>
      <trkpt lat="45.1908" lon="4.75026">
        <ele>316.49700927734</ele>
        <time>2010-01-02T15:06:47Z</time>
      </trkpt>
      <trkpt lat="45.19088" lon="4.75032">
        <ele>316.48901367188</ele>
        <time>2010-01-02T15:06:48Z</time>
      </trkpt>
      <trkpt lat="45.19131" lon="4.75062">
        <ele>314.36801147461</ele>
        <time>2010-01-02T15:06:53Z</time>
      </trkpt>
      <trkpt lat="45.19165" lon="4.75086">
        <ele>312.48400878906</ele>
        <time>2010-01-02T15:06:57Z</time>
      </trkpt>
      <trkpt lat="45.19201" lon="4.75102">
        <ele>311.06298828125</ele>
        <time>2010-01-02T15:07:01Z</time>
      </trkpt>
      <trkpt lat="45.19219" lon="4.75113">
        <ele>309.89401245117</ele>
        <time>2010-01-02T15:07:03Z</time>
      </trkpt>
      <trkpt lat="45.19227" lon="4.75123">
        <ele>309.59298706055</ele>
        <time>2010-01-02T15:07:04Z</time>
      </trkpt>
      <trkpt lat="45.19242" lon="4.7516">
        <ele>308.46701049805</ele>
        <time>2010-01-02T15:07:07Z</time>
      </trkpt>
      <trkpt lat="45.19263" lon="4.75209">
        <ele>307.02499389648</ele>
        <time>2010-01-02T15:07:11Z</time>
      </trkpt>
      <trkpt lat="45.19284" lon="4.75275">
        <ele>304.73098754883</ele>
        <time>2010-01-02T15:07:16Z</time>
      </trkpt>
      <trkpt lat="45.19287" lon="4.75288">
        <ele>304.54098510742</ele>
        <time>2010-01-02T15:07:17Z</time>
      </trkpt>
      <trkpt lat="45.19293" lon="4.75317">
        <ele>303.85900878906</ele>
        <time>2010-01-02T15:07:19Z</time>
      </trkpt>
      <trkpt lat="45.19307" lon="4.75357">
        <ele>302.43099975586</ele>
        <time>2010-01-02T15:07:22Z</time>
      </trkpt>
      <trkpt lat="45.19314" lon="4.75369">
        <ele>301.80599975586</ele>
        <time>2010-01-02T15:07:23Z</time>
      </trkpt>
      <trkpt lat="45.19327" lon="4.75391">
        <ele>300.90301513672</ele>
        <time>2010-01-02T15:07:25Z</time>
      </trkpt>
      <trkpt lat="45.19327" lon="4.75415">
        <ele>299.33599853516</ele>
        <time>2010-01-02T15:07:27Z</time>
      </trkpt>
      <trkpt lat="45.19318" lon="4.75442">
        <ele>298.63198852539</ele>
        <time>2010-01-02T15:07:29Z</time>
      </trkpt>
      <trkpt lat="45.19315" lon="4.75458">
        <ele>297.83898925781</ele>
        <time>2010-01-02T15:07:30Z</time>
      </trkpt>
      <trkpt lat="45.19307" lon="4.7553">
        <ele>296.92498779297</ele>
        <time>2010-01-02T15:07:35Z</time>
      </trkpt>
      <trkpt lat="45.19295" lon="4.7557">
        <ele>294.95700073242</ele>
        <time>2010-01-02T15:07:38Z</time>
      </trkpt>
      <trkpt lat="45.19268" lon="4.7561">
        <ele>292.83200073242</ele>
        <time>2010-01-02T15:07:42Z</time>
      </trkpt>
      <trkpt lat="45.19242" lon="4.75639">
        <ele>290.16000366211</ele>
        <time>2010-01-02T15:07:45Z</time>
      </trkpt>
      <trkpt lat="45.19237" lon="4.75652">
        <ele>289.60501098633</ele>
        <time>2010-01-02T15:07:46Z</time>
      </trkpt>
      <trkpt lat="45.19209" lon="4.75699">
        <ele>285.92300415039</ele>
        <time>2010-01-02T15:07:50Z</time>
      </trkpt>
      <trkpt lat="45.19198" lon="4.75699">
        <ele>285.77200317383</ele>
        <time>2010-01-02T15:07:51Z</time>
      </trkpt>
      <trkpt lat="45.19189" lon="4.75694">
        <ele>285.80700683594</ele>
        <time>2010-01-02T15:07:52Z</time>
      </trkpt>
      <trkpt lat="45.19146" lon="4.75672">
        <ele>283.84201049805</ele>
        <time>2010-01-02T15:07:56Z</time>
      </trkpt>
      <trkpt lat="45.19123" lon="4.75667">
        <ele>282.99301147461</ele>
        <time>2010-01-02T15:07:58Z</time>
      </trkpt>
      <trkpt lat="45.191" lon="4.75663">
        <ele>281.3219909668</ele>
        <time>2010-01-02T15:08:00Z</time>
      </trkpt>
      <trkpt lat="45.19053" lon="4.75653">
        <ele>278.57501220703</ele>
        <time>2010-01-02T15:08:04Z</time>
      </trkpt>
      <trkpt lat="45.19034" lon="4.75664">
        <ele>277.25601196289</ele>
        <time>2010-01-02T15:08:06Z</time>
      </trkpt>
      <trkpt lat="45.1904" lon="4.7569">
        <ele>276.3630065918</ele>
        <time>2010-01-02T15:08:08Z</time>
      </trkpt>
      <trkpt lat="45.19062" lon="4.75713">
        <ele>275.29299926758</ele>
        <time>2010-01-02T15:08:11Z</time>
      </trkpt>
      <trkpt lat="45.19091" lon="4.75748">
        <ele>274.48001098633</ele>
        <time>2010-01-02T15:08:15Z</time>
      </trkpt>
      <trkpt lat="45.191" lon="4.75801">
        <ele>272.21200561523</ele>
        <time>2010-01-02T15:08:19Z</time>
      </trkpt>
      <trkpt lat="45.19096" lon="4.75841">
        <ele>271.42199707031</ele>
        <time>2010-01-02T15:08:22Z</time>
      </trkpt>
      <trkpt lat="45.19087" lon="4.75866">
        <ele>270.05700683594</ele>
        <time>2010-01-02T15:08:24Z</time>
      </trkpt>
      <trkpt lat="45.19053" lon="4.75896">
        <ele>268.2080078125</ele>
        <time>2010-01-02T15:08:28Z</time>
      </trkpt>
      <trkpt lat="45.19005" lon="4.75919">
        <ele>264.73999023438</ele>
        <time>2010-01-02T15:08:33Z</time>
      </trkpt>
      <trkpt lat="45.18995" lon="4.75921">
        <ele>263.18200683594</ele>
        <time>2010-01-02T15:08:34Z</time>
      </trkpt>
      <trkpt lat="45.18963" lon="4.7593">
        <ele>261.85198974609</ele>
        <time>2010-01-02T15:08:37Z</time>
      </trkpt>
      <trkpt lat="45.18958" lon="4.75943">
        <ele>261.60699462891</ele>
        <time>2010-01-02T15:08:38Z</time>
      </trkpt>
      <trkpt lat="45.18969" lon="4.75967">
        <ele>261.76098632812</ele>
        <time>2010-01-02T15:08:40Z</time>
      </trkpt>
      <trkpt lat="45.18982" lon="4.75987">
        <ele>260.13598632812</ele>
        <time>2010-01-02T15:08:42Z</time>
      </trkpt>
      <trkpt lat="45.19006" lon="4.76053">
        <ele>258.36801147461</ele>
        <time>2010-01-02T15:08:47Z</time>
      </trkpt>
      <trkpt lat="45.19006" lon="4.76066">
        <ele>257.75900268555</ele>
        <time>2010-01-02T15:08:48Z</time>
      </trkpt>
      <trkpt lat="45.19" lon="4.76095">
        <ele>256.92199707031</ele>
        <time>2010-01-02T15:08:50Z</time>
      </trkpt>
      <trkpt lat="45.18995" lon="4.76124">
        <ele>255.9109954834</ele>
        <time>2010-01-02T15:08:52Z</time>
      </trkpt>
      <trkpt lat="45.18995" lon="4.76129">
        <ele>255.22500610352</ele>
        <time>2010-01-02T15:08:54Z</time>
      </trkpt>
      <trkpt lat="45.18992" lon="4.76207">
        <ele>253.86999511719</ele>
        <time>2010-01-02T15:08:58Z</time>
      </trkpt>
      <trkpt lat="45.18995" lon="4.76234">
        <ele>252.77299499512</ele>
        <time>2010-01-02T15:09:00Z</time>
      </trkpt>
      <trkpt lat="45.19009" lon="4.76285">
        <ele>250.66000366211</ele>
        <time>2010-01-02T15:09:04Z</time>
      </trkpt>
      <trkpt lat="45.19038" lon="4.76347">
        <ele>248.60200500488</ele>
        <time>2010-01-02T15:09:09Z</time>
      </trkpt>
      <trkpt lat="45.19038" lon="4.76362">
        <ele>247.88600158691</ele>
        <time>2010-01-02T15:09:10Z</time>
      </trkpt>
      <trkpt lat="45.19041" lon="4.76422">
        <ele>246.50100708008</ele>
        <time>2010-01-02T15:09:14Z</time>
      </trkpt>
      <trkpt lat="45.19036" lon="4.76462">
        <ele>244.99800109863</ele>
        <time>2010-01-02T15:09:17Z</time>
      </trkpt>
      <trkpt lat="45.19029" lon="4.76475">
        <ele>244.41200256348</ele>
        <time>2010-01-02T15:09:18Z</time>
      </trkpt>
      <trkpt lat="45.19021" lon="4.76503">
        <ele>243.58500671387</ele>
        <time>2010-01-02T15:09:20Z</time>
      </trkpt>
      <trkpt lat="45.19024" lon="4.76558">
        <ele>241.74200439453</ele>
        <time>2010-01-02T15:09:24Z</time>
      </trkpt>
      <trkpt lat="45.18995" lon="4.76613">
        <ele>238.92999267578</ele>
        <time>2010-01-02T15:09:28Z</time>
      </trkpt>
      <trkpt lat="45.18977" lon="4.76662">
        <ele>236.45799255371</ele>
        <time>2010-01-02T15:09:32Z</time>
      </trkpt>
      <trkpt lat="45.18989" lon="4.76702">
        <ele>235.25700378418</ele>
        <time>2010-01-02T15:09:35Z</time>
      </trkpt>
      <trkpt lat="45.19011" lon="4.76709">
        <ele>234.03100585938</ele>
        <time>2010-01-02T15:09:37Z</time>
      </trkpt>
      <trkpt lat="45.19067" lon="4.76722">
        <ele>231.5119934082</ele>
        <time>2010-01-02T15:09:42Z</time>
      </trkpt>
      <trkpt lat="45.19122" lon="4.76725">
        <ele>228.45899963379</ele>
        <time>2010-01-02T15:09:47Z</time>
      </trkpt>
      <trkpt lat="45.19165" lon="4.76731">
        <ele>226.64500427246</ele>
        <time>2010-01-02T15:09:51Z</time>
      </trkpt>
      <trkpt lat="45.19214" lon="4.76768">
        <ele>224.30900573731</ele>
        <time>2010-01-02T15:09:56Z</time>
      </trkpt>
      <trkpt lat="45.19226" lon="4.7681">
        <ele>222.82699584961</ele>
        <time>2010-01-02T15:09:59Z</time>
      </trkpt>
      <trkpt lat="45.19226" lon="4.76826">
        <ele>222.38299560547</ele>
        <time>2010-01-02T15:10:00Z</time>
      </trkpt>
      <trkpt lat="45.19224" lon="4.76855">
        <ele>221.26400756836</ele>
        <time>2010-01-02T15:10:02Z</time>
      </trkpt>
      <trkpt lat="45.19212" lon="4.76919">
        <ele>218.5119934082</ele>
        <time>2010-01-02T15:10:06Z</time>
      </trkpt>
      <trkpt lat="45.19197" lon="4.76943">
        <ele>217.2440032959</ele>
        <time>2010-01-02T15:10:08Z</time>
      </trkpt>
      <trkpt lat="45.19168" lon="4.76994">
        <ele>214.91600036621</ele>
        <time>2010-01-02T15:10:12Z</time>
      </trkpt>
      <trkpt lat="45.19149" lon="4.77032">
        <ele>213.03999328613</ele>
        <time>2010-01-02T15:10:15Z</time>
      </trkpt>
      <trkpt lat="45.19128" lon="4.77037">
        <ele>212.68200683594</ele>
        <time>2010-01-02T15:10:17Z</time>
      </trkpt>
      <trkpt lat="45.19101" lon="4.7705">
        <ele>211.12100219727</ele>
        <time>2010-01-02T15:10:20Z</time>
      </trkpt>
      <trkpt lat="45.1908" lon="4.77081">
        <ele>210.86999511719</ele>
        <time>2010-01-02T15:10:23Z</time>
      </trkpt>
      <trkpt lat="45.19049" lon="4.77113">
        <ele>209.81599426269</ele>
        <time>2010-01-02T15:10:27Z</time>
      </trkpt>
      <trkpt lat="45.19028" lon="4.77154">
        <ele>208.66499328613</ele>
        <time>2010-01-02T15:10:31Z</time>
      </trkpt>
      <trkpt lat="45.19022" lon="4.77177">
        <ele>209.01600646973</ele>
        <time>2010-01-02T15:10:33Z</time>
      </trkpt>
      <trkpt lat="45.1902" lon="4.77201">
        <ele>208.50399780273</ele>
        <time>2010-01-02T15:10:35Z</time>
      </trkpt>
      <trkpt lat="45.19026" lon="4.77242">
        <ele>207.69200134277</ele>
        <time>2010-01-02T15:10:39Z</time>
      </trkpt>
      <trkpt lat="45.19033" lon="4.77263">
        <ele>207.18299865723</ele>
        <time>2010-01-02T15:10:41Z</time>
      </trkpt>
      <trkpt lat="45.19062" lon="4.77328">
        <ele>205.42799377441</ele>
        <time>2010-01-02T15:10:47Z</time>
      </trkpt>
      <trkpt lat="45.19091" lon="4.77394">
        <ele>203.85400390625</ele>
        <time>2010-01-02T15:10:53Z</time>
      </trkpt>
      <trkpt lat="45.19095" lon="4.77438">
        <ele>203.17100524902</ele>
        <time>2010-01-02T15:10:57Z</time>
      </trkpt>
      <trkpt lat="45.19089" lon="4.77478">
        <ele>202.1609954834</ele>
        <time>2010-01-02T15:11:00Z</time>
      </trkpt>
      <trkpt lat="45.19097" lon="4.77548">
        <ele>200.38400268555</ele>
        <time>2010-01-02T15:11:06Z</time>
      </trkpt>
      <trkpt lat="45.19119" lon="4.776">
        <ele>199.08200073242</ele>
        <time>2010-01-02T15:11:11Z</time>
      </trkpt>
      <trkpt lat="45.19158" lon="4.77668">
        <ele>196.85299682617</ele>
        <time>2010-01-02T15:11:18Z</time>
      </trkpt>
      <trkpt lat="45.19164" lon="4.77678">
        <ele>197.09899902344</ele>
        <time>2010-01-02T15:11:19Z</time>
      </trkpt>
      <trkpt lat="45.19187" lon="4.77719">
        <ele>195.27099609375</ele>
        <time>2010-01-02T15:11:23Z</time>
      </trkpt>
      <trkpt lat="45.19233" lon="4.77763">
        <ele>192.56199645996</ele>
        <time>2010-01-02T15:11:29Z</time>
      </trkpt>
      <trkpt lat="45.1926" lon="4.77803">
        <ele>190.11799621582</ele>
        <time>2010-01-02T15:11:33Z</time>
      </trkpt>
      <trkpt lat="45.19268" lon="4.77845">
        <ele>188.85099792481</ele>
        <time>2010-01-02T15:11:36Z</time>
      </trkpt>
      <trkpt lat="45.19267" lon="4.77875">
        <ele>187.47700500488</ele>
        <time>2010-01-02T15:11:38Z</time>
      </trkpt>
      <trkpt lat="45.19265" lon="4.77935">
        <ele>184.42900085449</ele>
        <time>2010-01-02T15:11:42Z</time>
      </trkpt>
      <trkpt lat="45.19269" lon="4.78012">
        <ele>180.94200134277</ele>
        <time>2010-01-02T15:11:47Z</time>
      </trkpt>
      <trkpt lat="45.19275" lon="4.78092">
        <ele>176.34599304199</ele>
        <time>2010-01-02T15:11:52Z</time>
      </trkpt>
      <trkpt lat="45.19273" lon="4.78159">
        <ele>172.55099487305</ele>
        <time>2010-01-02T15:11:56Z</time>
      </trkpt>
      <trkpt lat="45.1925" lon="4.78216">
        <ele>169.0950012207</ele>
        <time>2010-01-02T15:12:00Z</time>
      </trkpt>
      <trkpt lat="45.19234" lon="4.78241">
        <ele>166.92300415039</ele>
        <time>2010-01-02T15:12:02Z</time>
      </trkpt>
      <trkpt lat="45.19202" lon="4.78263">
        <ele>165.23100280762</ele>
        <time>2010-01-02T15:12:05Z</time>
      </trkpt>
      <trkpt lat="45.19164" lon="4.78298">
        <ele>163.48899841309</ele>
        <time>2010-01-02T15:12:09Z</time>
      </trkpt>
      <trkpt lat="45.19128" lon="4.78333">
        <ele>161.80099487305</ele>
        <time>2010-01-02T15:12:13Z</time>
      </trkpt>
      <trkpt lat="45.19107" lon="4.78363">
        <ele>160.94099426269</ele>
        <time>2010-01-02T15:12:16Z</time>
      </trkpt>
      <trkpt lat="45.19106" lon="4.78406">
        <ele>159.65100097656</ele>
        <time>2010-01-02T15:12:19Z</time>
      </trkpt>
      <trkpt lat="45.19106" lon="4.7842">
        <ele>159.33999633789</ele>
        <time>2010-01-02T15:12:20Z</time>
      </trkpt>
      <trkpt lat="45.19113" lon="4.7846">
        <ele>157.50100708008</ele>
        <time>2010-01-02T15:12:23Z</time>
      </trkpt>
      <trkpt lat="45.1912" lon="4.78486">
        <ele>157.01800537109</ele>
        <time>2010-01-02T15:12:25Z</time>
      </trkpt>
      <trkpt lat="45.19123" lon="4.78545">
        <ele>154.87899780273</ele>
        <time>2010-01-02T15:12:29Z</time>
      </trkpt>
      <trkpt lat="45.19123" lon="4.78615">
        <ele>152.78399658203</ele>
        <time>2010-01-02T15:12:34Z</time>
      </trkpt>
      <trkpt lat="45.19132" lon="4.78679">
        <ele>151.52200317383</ele>
        <time>2010-01-02T15:12:39Z</time>
      </trkpt>
      <trkpt lat="45.19147" lon="4.78725">
        <ele>150.21899414062</ele>
        <time>2010-01-02T15:12:43Z</time>
      </trkpt>
      <trkpt lat="45.19178" lon="4.78773">
        <ele>148.52299499512</ele>
        <time>2010-01-02T15:12:48Z</time>
      </trkpt>
      <trkpt lat="45.19199" lon="4.78814">
        <ele>146.97900390625</ele>
        <time>2010-01-02T15:12:52Z</time>
      </trkpt>
      <trkpt lat="45.19209" lon="4.78866">
        <ele>145.43699645996</ele>
        <time>2010-01-02T15:12:56Z</time>
      </trkpt>
      <trkpt lat="45.19204" lon="4.78931">
        <ele>144.40600585938</ele>
        <time>2010-01-02T15:13:01Z</time>
      </trkpt>
      <trkpt lat="45.19201" lon="4.78943">
        <ele>143.54800415039</ele>
        <time>2010-01-02T15:13:02Z</time>
      </trkpt>
      <trkpt lat="45.19193" lon="4.78967">
        <ele>142.64399719238</ele>
        <time>2010-01-02T15:13:04Z</time>
      </trkpt>
      <trkpt lat="45.19178" lon="4.79013">
        <ele>141.10000610352</ele>
        <time>2010-01-02T15:13:08Z</time>
      </trkpt>
      <trkpt lat="45.19173" lon="4.79038">
        <ele>140.73399353027</ele>
        <time>2010-01-02T15:13:10Z</time>
      </trkpt>
      <trkpt lat="45.19158" lon="4.79087">
        <ele>139.40800476074</ele>
        <time>2010-01-02T15:13:14Z</time>
      </trkpt>
      <trkpt lat="45.19131" lon="4.79129">
        <ele>138.81599426269</ele>
        <time>2010-01-02T15:13:18Z</time>
      </trkpt>
      <trkpt lat="45.19123" lon="4.79165">
        <ele>137.99600219727</ele>
        <time>2010-01-02T15:13:21Z</time>
      </trkpt>
      <trkpt lat="45.19117" lon="4.79247">
        <ele>134.68200683594</ele>
        <time>2010-01-02T15:13:27Z</time>
      </trkpt>
      <trkpt lat="45.19114" lon="4.7926">
        <ele>134.71699523926</ele>
        <time>2010-01-02T15:13:28Z</time>
      </trkpt>
      <trkpt lat="45.19097" lon="4.79342">
        <ele>131.91900634766</ele>
        <time>2010-01-02T15:13:34Z</time>
      </trkpt>
      <trkpt lat="45.19093" lon="4.7936">
        <ele>130.98699951172</ele>
        <time>2010-01-02T15:13:38Z</time>
      </trkpt>
      <trkpt lat="45.19076" lon="4.79459">
        <ele>129.38999938965</ele>
        <time>2010-01-02T15:13:42Z</time>
      </trkpt>
      <trkpt lat="45.19071" lon="4.79491">
        <ele>129.12199401856</ele>
        <time>2010-01-02T15:13:44Z</time>
      </trkpt>
      <trkpt lat="45.19059" lon="4.79538">
        <ele>127.96900177002</ele>
        <time>2010-01-02T15:13:47Z</time>
      </trkpt>
      <trkpt lat="45.19034" lon="4.79571">
        <ele>127.45500183106</ele>
        <time>2010-01-02T15:13:50Z</time>
      </trkpt>
      <trkpt lat="45.18997" lon="4.79609">
        <ele>126.52100372315</ele>
        <time>2010-01-02T15:13:54Z</time>
      </trkpt>
      <trkpt lat="45.18986" lon="4.7961">
        <ele>126.47499847412</ele>
        <time>2010-01-02T15:13:55Z</time>
      </trkpt>
      <trkpt lat="45.18926" lon="4.79613">
        <ele>126.66500091553</ele>
        <time>2010-01-02T15:14:01Z</time>
      </trkpt>
      <trkpt lat="45.18885" lon="4.79613">
        <ele>127.27400207519</ele>
        <time>2010-01-02T15:14:06Z</time>
      </trkpt>
      <trkpt lat="45.18863" lon="4.79613">
        <ele>127.37899780273</ele>
        <time>2010-01-02T15:14:09Z</time>
      </trkpt>
      <trkpt lat="45.18829" lon="4.79613">
        <ele>127.87599945068</ele>
        <time>2010-01-02T15:14:15Z</time>
      </trkpt>
      <trkpt lat="45.18814" lon="4.79613">
        <ele>127.88800048828</ele>
        <time>2010-01-02T15:14:18Z</time>
      </trkpt>
      <trkpt lat="45.1881" lon="4.79613">
        <ele>128.57600402832</ele>
        <time>2010-01-02T15:14:22Z</time>
      </trkpt>
      <trkpt lat="45.18756" lon="4.79613">
        <ele>129.4049987793</ele>
        <time>2010-01-02T15:14:30Z</time>
      </trkpt>
      <trkpt lat="45.18725" lon="4.79613">
        <ele>129.39300537109</ele>
        <time>2010-01-02T15:14:37Z</time>
      </trkpt>
      <trkpt lat="45.18699" lon="4.79613">
        <ele>129.39300537109</ele>
        <time>2010-01-02T15:14:44Z</time>
      </trkpt>
      <trkpt lat="45.18684" lon="4.79613">
        <ele>129.5359954834</ele>
        <time>2010-01-02T15:14:50Z</time>
      </trkpt>
      <trkpt lat="45.18678" lon="4.79613">
        <ele>129.71699523926</ele>
        <time>2010-01-02T15:14:54Z</time>
      </trkpt>
      <trkpt lat="45.18677" lon="4.79613">
        <ele>129.24899291992</ele>
        <time>2010-01-02T15:14:59Z</time>
      </trkpt>
      <trkpt lat="45.18677" lon="4.79606">
        <ele>129.24899291992</ele>
        <time>2010-01-02T15:15:00Z</time>
      </trkpt>
      <trkpt lat="45.18676" lon="4.79619">
        <ele>129.14399719238</ele>
        <time>2010-01-02T15:15:03Z</time>
      </trkpt>
      <trkpt lat="45.18674" lon="4.79628">
        <ele>128.75700378418</ele>
        <time>2010-01-02T15:15:07Z</time>
      </trkpt>
      <trkpt lat="45.18674" lon="4.79629">
        <ele>128.86000061035</ele>
        <time>2010-01-02T15:15:08Z</time>
      </trkpt>
      <trkpt lat="45.18674" lon="4.79629">
        <ele>128.82499694824</ele>
        <time>2010-01-02T15:15:10Z</time>
      </trkpt>
      <trkpt lat="45.18672" lon="4.79637">
        <ele>128.57299804688</ele>
        <time>2010-01-02T15:16:31Z</time>
      </trkpt>
      <trkpt lat="45.1867" lon="4.79648">
        <ele>128.10600280762</ele>
        <time>2010-01-02T15:16:34Z</time>
      </trkpt>
      <trkpt lat="45.18669" lon="4.79655">
        <ele>127.74900054932</ele>
        <time>2010-01-02T15:16:39Z</time>
      </trkpt>
      <trkpt lat="45.18669" lon="4.79655">
        <ele>128.13499450684</ele>
        <time>2010-01-02T15:16:44Z</time>
      </trkpt>
      <trkpt lat="45.18669" lon="4.79657">
        <ele>128.16200256348</ele>
        <time>2010-01-02T15:16:51Z</time>
      </trkpt>
      <trkpt lat="45.18668" lon="4.79679">
        <ele>127.91999816894</ele>
        <time>2010-01-02T15:16:58Z</time>
      </trkpt>
      <trkpt lat="45.18668" lon="4.79707">
        <ele>127.297996521</ele>
        <time>2010-01-02T15:17:03Z</time>
      </trkpt>
      <trkpt lat="45.18665" lon="4.79722">
        <ele>128.29100036621</ele>
        <time>2010-01-02T15:17:05Z</time>
      </trkpt>
      <trkpt lat="45.18663" lon="4.7974">
        <ele>127.73300170898</ele>
        <time>2010-01-02T15:17:08Z</time>
      </trkpt>
      <trkpt lat="45.18661" lon="4.79781">
        <ele>125.25399780273</ele>
        <time>2010-01-02T15:17:14Z</time>
      </trkpt>
      <trkpt lat="45.1866" lon="4.79832">
        <ele>124.35900115967</ele>
        <time>2010-01-02T15:17:21Z</time>
      </trkpt>
      <trkpt lat="45.1866" lon="4.79884">
        <ele>122.86499786377</ele>
        <time>2010-01-02T15:17:26Z</time>
      </trkpt>
      <trkpt lat="45.1866" lon="4.79888">
        <ele>122.42900085449</ele>
        <time>2010-01-02T15:17:27Z</time>
      </trkpt>
      <trkpt lat="45.18664" lon="4.79941">
        <ele>122.077003479</ele>
        <time>2010-01-02T15:17:32Z</time>
      </trkpt>
      <trkpt lat="45.18668" lon="4.79985">
        <ele>121.24700164795</ele>
        <time>2010-01-02T15:17:37Z</time>
      </trkpt>
      <trkpt lat="45.18668" lon="4.80004">
        <ele>121.07499694824</ele>
        <time>2010-01-02T15:17:39Z</time>
      </trkpt>
      <trkpt lat="45.18667" lon="4.80023">
        <ele>120.60399627685</ele>
        <time>2010-01-02T15:17:41Z</time>
      </trkpt>
      <trkpt lat="45.18664" lon="4.80105">
        <ele>119.66999816894</ele>
        <time>2010-01-02T15:17:50Z</time>
      </trkpt>
      <trkpt lat="45.18653" lon="4.80144">
        <ele>120.11799621582</ele>
        <time>2010-01-02T15:17:55Z</time>
      </trkpt>
      <trkpt lat="45.18633" lon="4.80192">
        <ele>121.41799926758</ele>
        <time>2010-01-02T15:18:00Z</time>
      </trkpt>
      <trkpt lat="45.18613" lon="4.80239">
        <ele>121.29100036621</ele>
        <time>2010-01-02T15:18:06Z</time>
      </trkpt>
      <trkpt lat="45.18592" lon="4.80292">
        <ele>120.82599639893</ele>
        <time>2010-01-02T15:18:12Z</time>
      </trkpt>
      <trkpt lat="45.18555" lon="4.8038">
        <ele>118.5830001831</ele>
        <time>2010-01-02T15:18:21Z</time>
      </trkpt>
      <trkpt lat="45.18535" lon="4.80426">
        <ele>118.19100189209</ele>
        <time>2010-01-02T15:18:26Z</time>
      </trkpt>
      <trkpt lat="45.1851" lon="4.80486">
        <ele>117.68800354004</ele>
        <time>2010-01-02T15:18:33Z</time>
      </trkpt>
      <trkpt lat="45.18487" lon="4.80543">
        <ele>117.952003479</ele>
        <time>2010-01-02T15:18:40Z</time>
      </trkpt>
      <trkpt lat="45.18471" lon="4.80593">
        <ele>118.0419998169</ele>
        <time>2010-01-02T15:18:46Z</time>
      </trkpt>
      <trkpt lat="45.18451" lon="4.8064">
        <ele>117.65399932861</ele>
        <time>2010-01-02T15:18:53Z</time>
      </trkpt>
      <trkpt lat="45.18423" lon="4.80705">
        <ele>118.57900238037</ele>
        <time>2010-01-02T15:19:03Z</time>
      </trkpt>
      <trkpt lat="45.18415" lon="4.80725">
        <ele>118.67900085449</ele>
        <time>2010-01-02T15:19:08Z</time>
      </trkpt>
      <trkpt lat="45.18394" lon="4.8075">
        <ele>118.5</ele>
        <time>2010-01-02T15:19:11Z</time>
      </trkpt>
      <trkpt lat="45.18385" lon="4.80773">
        <ele>118.85299682617</ele>
        <time>2010-01-02T15:19:15Z</time>
      </trkpt>
      <trkpt lat="45.18385" lon="4.80776">
        <ele>118.85399627685</ele>
        <time>2010-01-02T15:19:18Z</time>
      </trkpt>
      <trkpt lat="45.18372" lon="4.80866">
        <ele>120.71800231934</ele>
        <time>2010-01-02T15:19:26Z</time>
      </trkpt>
      <trkpt lat="45.18364" lon="4.80922">
        <ele>122.90399932861</ele>
        <time>2010-01-02T15:19:34Z</time>
      </trkpt>
      <trkpt lat="45.18371" lon="4.80985">
        <ele>124.16600036621</ele>
        <time>2010-01-02T15:19:43Z</time>
      </trkpt>
      <trkpt lat="45.18377" lon="4.81038">
        <ele>126.5419998169</ele>
        <time>2010-01-02T15:19:53Z</time>
      </trkpt>
      <trkpt lat="45.18391" lon="4.81095">
        <ele>127.52899932861</ele>
        <time>2010-01-02T15:20:01Z</time>
      </trkpt>
      <trkpt lat="45.18404" lon="4.8115">
        <ele>129.40800476074</ele>
        <time>2010-01-02T15:20:10Z</time>
      </trkpt>
      <trkpt lat="45.18413" lon="4.81208">
        <ele>129.49899291992</ele>
        <time>2010-01-02T15:20:19Z</time>
      </trkpt>
      <trkpt lat="45.18422" lon="4.81272">
        <ele>127.89399719238</ele>
        <time>2010-01-02T15:20:29Z</time>
      </trkpt>
      <trkpt lat="45.1843" lon="4.81329">
        <ele>126.54000091553</ele>
        <time>2010-01-02T15:20:37Z</time>
      </trkpt>
      <trkpt lat="45.18432" lon="4.81347">
        <ele>125.90100097656</ele>
        <time>2010-01-02T15:20:41Z</time>
      </trkpt>
      <trkpt lat="45.18432" lon="4.81347">
        <ele>125.75</ele>
        <time>2010-01-02T15:20:45Z</time>
      </trkpt>
      <trkpt lat="45.1842" lon="4.81387">
        <ele>125.28900146484</ele>
        <time>2010-01-02T15:20:48Z</time>
      </trkpt>
      <trkpt lat="45.18416" lon="4.81407">
        <ele>125.84999847412</ele>
        <time>2010-01-02T15:20:51Z</time>
      </trkpt>
      <trkpt lat="45.18397" lon="4.81408">
        <ele>125.79100036621</ele>
        <time>2010-01-02T15:20:54Z</time>
      </trkpt>
      <trkpt lat="45.18344" lon="4.81418">
        <ele>126.25800323486</ele>
        <time>2010-01-02T15:21:00Z</time>
      </trkpt>
      <trkpt lat="45.18315" lon="4.81424">
        <ele>126.42400360107</ele>
        <time>2010-01-02T15:21:04Z</time>
      </trkpt>
      <trkpt lat="45.18264" lon="4.81436">
        <ele>125.6129989624</ele>
        <time>2010-01-02T15:21:12Z</time>
      </trkpt>
      <trkpt lat="45.18221" lon="4.81447">
        <ele>125.44200134277</ele>
        <time>2010-01-02T15:21:19Z</time>
      </trkpt>
      <trkpt lat="45.18179" lon="4.81458">
        <ele>125.03299713135</ele>
        <time>2010-01-02T15:21:26Z</time>
      </trkpt>
      <trkpt lat="45.1815" lon="4.81466">
        <ele>125.15000152588</ele>
        <time>2010-01-02T15:21:31Z</time>
      </trkpt>
      <trkpt lat="45.18113" lon="4.81475">
        <ele>125.30400085449</ele>
        <time>2010-01-02T15:21:38Z</time>
      </trkpt>
      <trkpt lat="45.18102" lon="4.81478">
        <ele>125.35800170898</ele>
        <time>2010-01-02T15:21:40Z</time>
      </trkpt>
      <trkpt lat="45.18081" lon="4.81478">
        <ele>125.422996521</ele>
        <time>2010-01-02T15:21:44Z</time>
      </trkpt>
      <trkpt lat="45.18059" lon="4.81471">
        <ele>125.14399719238</ele>
        <time>2010-01-02T15:21:49Z</time>
      </trkpt>
      <trkpt lat="45.18059" lon="4.81471">
        <ele>124.86799621582</ele>
        <time>2010-01-02T15:21:51Z</time>
      </trkpt>
      <trkpt lat="45.18027" lon="4.81443">
        <ele>124.87999725342</ele>
        <time>2010-01-02T15:21:57Z</time>
      </trkpt>
      <trkpt lat="45.18006" lon="4.8143">
        <ele>124.55699920654</ele>
        <time>2010-01-02T15:22:01Z</time>
      </trkpt>
      <trkpt lat="45.17953" lon="4.81405">
        <ele>124.19000244141</ele>
        <time>2010-01-02T15:22:10Z</time>
      </trkpt>
      <trkpt lat="45.1791" lon="4.8139">
        <ele>122.24700164795</ele>
        <time>2010-01-02T15:22:17Z</time>
      </trkpt>
      <trkpt lat="45.17861" lon="4.81381">
        <ele>120.68199920654</ele>
        <time>2010-01-02T15:22:24Z</time>
      </trkpt>
      <trkpt lat="45.17826" lon="4.8139">
        <ele>120.07800292969</ele>
        <time>2010-01-02T15:22:29Z</time>
      </trkpt>
      <trkpt lat="45.17787" lon="4.81406">
        <ele>120.52799987793</ele>
        <time>2010-01-02T15:22:35Z</time>
      </trkpt>
      <trkpt lat="45.17759" lon="4.81426">
        <ele>120.69799804688</ele>
        <time>2010-01-02T15:22:41Z</time>
      </trkpt>
      <trkpt lat="45.17746" lon="4.81444">
        <ele>120.60399627685</ele>
        <time>2010-01-02T15:22:46Z</time>
      </trkpt>
      <trkpt lat="45.17727" lon="4.81461">
        <ele>120.42400360107</ele>
        <time>2010-01-02T15:22:50Z</time>
      </trkpt>
      <trkpt lat="45.17734" lon="4.81476">
        <ele>120.49199676514</ele>
        <time>2010-01-02T15:22:52Z</time>
      </trkpt>
      <trkpt lat="45.1772" lon="4.81524">
        <ele>120.0950012207</ele>
        <time>2010-01-02T15:22:58Z</time>
      </trkpt>
      <trkpt lat="45.17715" lon="4.81541">
        <ele>120.22499847412</ele>
        <time>2010-01-02T15:23:00Z</time>
      </trkpt>
      <trkpt lat="45.17712" lon="4.81572">
        <ele>119.4879989624</ele>
        <time>2010-01-02T15:23:04Z</time>
      </trkpt>
      <trkpt lat="45.17715" lon="4.8164">
        <ele>119.55100250244</ele>
        <time>2010-01-02T15:23:12Z</time>
      </trkpt>
      <trkpt lat="45.17715" lon="4.81708">
        <ele>119.74700164795</ele>
        <time>2010-01-02T15:23:20Z</time>
      </trkpt>
      <trkpt lat="45.17715" lon="4.81733">
        <ele>120.14199829102</ele>
        <time>2010-01-02T15:23:23Z</time>
      </trkpt>
      <trkpt lat="45.1771" lon="4.81767">
        <ele>120.39099884033</ele>
        <time>2010-01-02T15:23:27Z</time>
      </trkpt>
      <trkpt lat="45.17693" lon="4.81822">
        <ele>120.67099761963</ele>
        <time>2010-01-02T15:23:34Z</time>
      </trkpt>
      <trkpt lat="45.17676" lon="4.81874">
        <ele>120.55599975586</ele>
        <time>2010-01-02T15:23:41Z</time>
      </trkpt>
      <trkpt lat="45.17663" lon="4.819">
        <ele>120.69599914551</ele>
        <time>2010-01-02T15:23:45Z</time>
      </trkpt>
      <trkpt lat="45.17641" lon="4.81937">
        <ele>121.37599945068</ele>
        <time>2010-01-02T15:23:51Z</time>
      </trkpt>
      <trkpt lat="45.17612" lon="4.81987">
        <ele>121.41300201416</ele>
        <time>2010-01-02T15:23:59Z</time>
      </trkpt>
      <trkpt lat="45.1759" lon="4.8204">
        <ele>121.88800048828</ele>
        <time>2010-01-02T15:24:06Z</time>
      </trkpt>
      <trkpt lat="45.17566" lon="4.82073">
        <ele>122.21800231934</ele>
        <time>2010-01-02T15:24:12Z</time>
      </trkpt>
      <trkpt lat="45.17542" lon="4.82105">
        <ele>122.71600341797</ele>
        <time>2010-01-02T15:24:18Z</time>
      </trkpt>
      <trkpt lat="45.17527" lon="4.8212">
        <ele>122.77200317383</ele>
        <time>2010-01-02T15:24:22Z</time>
      </trkpt>
      <trkpt lat="45.17527" lon="4.8212">
        <ele>123.21700286865</ele>
        <time>2010-01-02T15:24:26Z</time>
      </trkpt>
      <trkpt lat="45.17469" lon="4.82135">
        <ele>123.89600372315</ele>
        <time>2010-01-02T15:24:32Z</time>
      </trkpt>
      <trkpt lat="45.17462" lon="4.82141">
        <ele>123.85900115967</ele>
        <time>2010-01-02T15:24:33Z</time>
      </trkpt>
      <trkpt lat="45.17419" lon="4.82184">
        <ele>124.52300262451</ele>
        <time>2010-01-02T15:24:42Z</time>
      </trkpt>
      <trkpt lat="45.17377" lon="4.82227">
        <ele>126.90399932861</ele>
        <time>2010-01-02T15:24:52Z</time>
      </trkpt>
      <trkpt lat="45.17344" lon="4.82259">
        <ele>128.32600402832</ele>
        <time>2010-01-02T15:25:00Z</time>
      </trkpt>
      <trkpt lat="45.17319" lon="4.82284">
        <ele>128.51899719238</ele>
        <time>2010-01-02T15:25:06Z</time>
      </trkpt>
      <trkpt lat="45.17308" lon="4.82327">
        <ele>127.57299804688</ele>
        <time>2010-01-02T15:25:12Z</time>
      </trkpt>
      <trkpt lat="45.17308" lon="4.8233">
        <ele>126.7080001831</ele>
        <time>2010-01-02T15:25:14Z</time>
      </trkpt>
      <trkpt lat="45.17281" lon="4.82358">
        <ele>126.46700286865</ele>
        <time>2010-01-02T15:25:17Z</time>
      </trkpt>
      <trkpt lat="45.17279" lon="4.82376">
        <ele>126.09799957275</ele>
        <time>2010-01-02T15:25:19Z</time>
      </trkpt>
      <trkpt lat="45.17316" lon="4.8239">
        <ele>125.58899688721</ele>
        <time>2010-01-02T15:25:22Z</time>
      </trkpt>
      <trkpt lat="45.17323" lon="4.82412">
        <ele>126.47799682617</ele>
        <time>2010-01-02T15:25:26Z</time>
      </trkpt>
      <trkpt lat="45.17357" lon="4.825">
        <ele>126.47799682617</ele>
        <time>2010-01-02T15:25:37Z</time>
      </trkpt>
      <trkpt lat="45.1738" lon="4.82539">
        <ele>126.8330001831</ele>
        <time>2010-01-02T15:25:43Z</time>
      </trkpt>
      <trkpt lat="45.17405" lon="4.82583">
        <ele>126.7679977417</ele>
        <time>2010-01-02T15:25:50Z</time>
      </trkpt>
      <trkpt lat="45.17408" lon="4.8259">
        <ele>126.88899993897</ele>
        <time>2010-01-02T15:25:51Z</time>
      </trkpt>
      <trkpt lat="45.17418" lon="4.82637">
        <ele>127.94400024414</ele>
        <time>2010-01-02T15:25:57Z</time>
      </trkpt>
      <trkpt lat="45.17417" lon="4.82652">
        <ele>128.14700317383</ele>
        <time>2010-01-02T15:25:59Z</time>
      </trkpt>
      <trkpt lat="45.17402" lon="4.82732">
        <ele>129.48300170898</ele>
        <time>2010-01-02T15:26:10Z</time>
      </trkpt>
      <trkpt lat="45.17389" lon="4.82776">
        <ele>130.24499511719</ele>
        <time>2010-01-02T15:26:17Z</time>
      </trkpt>
      <trkpt lat="45.17371" lon="4.82837">
        <ele>132.59300231934</ele>
        <time>2010-01-02T15:26:26Z</time>
      </trkpt>
      <trkpt lat="45.17368" lon="4.82858">
        <ele>133.28799438477</ele>
        <time>2010-01-02T15:26:29Z</time>
      </trkpt>
      <trkpt lat="45.17368" lon="4.82889">
        <ele>134.48399353027</ele>
        <time>2010-01-02T15:26:34Z</time>
      </trkpt>
      <trkpt lat="45.17383" lon="4.82935">
        <ele>135.56399536133</ele>
        <time>2010-01-02T15:26:41Z</time>
      </trkpt>
      <trkpt lat="45.17405" lon="4.82967">
        <ele>136.32800292969</ele>
        <time>2010-01-02T15:26:47Z</time>
      </trkpt>
      <trkpt lat="45.17437" lon="4.82995">
        <ele>136.2200012207</ele>
        <time>2010-01-02T15:26:54Z</time>
      </trkpt>
      <trkpt lat="45.1747" lon="4.83013">
        <ele>136.02299499512</ele>
        <time>2010-01-02T15:27:00Z</time>
      </trkpt>
      <trkpt lat="45.17475" lon="4.83014">
        <ele>136.07699584961</ele>
        <time>2010-01-02T15:27:01Z</time>
      </trkpt>
      <trkpt lat="45.17506" lon="4.83012">
        <ele>135.7140045166</ele>
        <time>2010-01-02T15:27:06Z</time>
      </trkpt>
      <trkpt lat="45.17548" lon="4.82996">
        <ele>134.50700378418</ele>
        <time>2010-01-02T15:27:12Z</time>
      </trkpt>
      <trkpt lat="45.176" lon="4.82977">
        <ele>133.81199645996</ele>
        <time>2010-01-02T15:27:19Z</time>
      </trkpt>
      <trkpt lat="45.17628" lon="4.82967">
        <ele>133.56700134277</ele>
        <time>2010-01-02T15:27:23Z</time>
      </trkpt>
      <trkpt lat="45.1766" lon="4.82965">
        <ele>133.47599792481</ele>
        <time>2010-01-02T15:27:28Z</time>
      </trkpt>
      <trkpt lat="45.17683" lon="4.82978">
        <ele>133.44900512695</ele>
        <time>2010-01-02T15:27:32Z</time>
      </trkpt>
      <trkpt lat="45.17698" lon="4.82999">
        <ele>133.66999816894</ele>
        <time>2010-01-02T15:27:36Z</time>
      </trkpt>
      <trkpt lat="45.17698" lon="4.82999">
        <ele>133.67399597168</ele>
        <time>2010-01-02T15:27:37Z</time>
      </trkpt>
      <trkpt lat="45.17719" lon="4.83119">
        <ele>133.31599426269</ele>
        <time>2010-01-02T15:27:48Z</time>
      </trkpt>
      <trkpt lat="45.17728" lon="4.83171">
        <ele>133.79899597168</ele>
        <time>2010-01-02T15:27:54Z</time>
      </trkpt>
      <trkpt lat="45.17751" lon="4.8324">
        <ele>134.47500610352</ele>
        <time>2010-01-02T15:28:02Z</time>
      </trkpt>
      <trkpt lat="45.17771" lon="4.83293">
        <ele>135.63400268555</ele>
        <time>2010-01-02T15:28:09Z</time>
      </trkpt>
      <trkpt lat="45.17785" lon="4.83313">
        <ele>135.68400573731</ele>
        <time>2010-01-02T15:28:12Z</time>
      </trkpt>
      <trkpt lat="45.17808" lon="4.83333">
        <ele>135.69000244141</ele>
        <time>2010-01-02T15:28:16Z</time>
      </trkpt>
      <trkpt lat="45.1786" lon="4.83343">
        <ele>136.34300231934</ele>
        <time>2010-01-02T15:28:24Z</time>
      </trkpt>
      <trkpt lat="45.17897" lon="4.8333">
        <ele>137.27299499512</ele>
        <time>2010-01-02T15:28:30Z</time>
      </trkpt>
      <trkpt lat="45.17937" lon="4.83314">
        <ele>139.30200195312</ele>
        <time>2010-01-02T15:28:37Z</time>
      </trkpt>
      <trkpt lat="45.17948" lon="4.83309">
        <ele>139.66600036621</ele>
        <time>2010-01-02T15:28:39Z</time>
      </trkpt>
      <trkpt lat="45.17976" lon="4.83298">
        <ele>140.83999633789</ele>
        <time>2010-01-02T15:28:44Z</time>
      </trkpt>
      <trkpt lat="45.18001" lon="4.83306">
        <ele>141.47300720215</ele>
        <time>2010-01-02T15:28:48Z</time>
      </trkpt>
      <trkpt lat="45.18006" lon="4.83311">
        <ele>141.54100036621</ele>
        <time>2010-01-02T15:28:49Z</time>
      </trkpt>
      <trkpt lat="45.18048" lon="4.83362">
        <ele>140.58999633789</ele>
        <time>2010-01-02T15:28:57Z</time>
      </trkpt>
      <trkpt lat="45.18075" lon="4.83401">
        <ele>139.12600708008</ele>
        <time>2010-01-02T15:29:02Z</time>
      </trkpt>
      <trkpt lat="45.18084" lon="4.83418">
        <ele>138.77200317383</ele>
        <time>2010-01-02T15:29:04Z</time>
      </trkpt>
      <trkpt lat="45.18098" lon="4.83461">
        <ele>137.52799987793</ele>
        <time>2010-01-02T15:29:08Z</time>
      </trkpt>
      <trkpt lat="45.18093" lon="4.83496">
        <ele>136.79699707031</ele>
        <time>2010-01-02T15:29:11Z</time>
      </trkpt>
      <trkpt lat="45.18085" lon="4.83515">
        <ele>136.66499328613</ele>
        <time>2010-01-02T15:29:13Z</time>
      </trkpt>
      <trkpt lat="45.1805" lon="4.8356">
        <ele>136.37699890137</ele>
        <time>2010-01-02T15:29:19Z</time>
      </trkpt>
      <trkpt lat="45.18013" lon="4.83606">
        <ele>136.92599487305</ele>
        <time>2010-01-02T15:29:26Z</time>
      </trkpt>
      <trkpt lat="45.17994" lon="4.83643">
        <ele>137.17199707031</ele>
        <time>2010-01-02T15:29:31Z</time>
      </trkpt>
      <trkpt lat="45.1797" lon="4.83697">
        <ele>137.70399475098</ele>
        <time>2010-01-02T15:29:38Z</time>
      </trkpt>
      <trkpt lat="45.17944" lon="4.83758">
        <ele>138.3390045166</ele>
        <time>2010-01-02T15:29:46Z</time>
      </trkpt>
      <trkpt lat="45.17928" lon="4.83814">
        <ele>139.33299255371</ele>
        <time>2010-01-02T15:29:53Z</time>
      </trkpt>
      <trkpt lat="45.17916" lon="4.83868">
        <ele>140.82099914551</ele>
        <time>2010-01-02T15:30:00Z</time>
      </trkpt>
      <trkpt lat="45.17907" lon="4.8393">
        <ele>142.19200134277</ele>
        <time>2010-01-02T15:30:07Z</time>
      </trkpt>
      <trkpt lat="45.17906" lon="4.83987">
        <ele>143.64599609375</ele>
        <time>2010-01-02T15:30:14Z</time>
      </trkpt>
      <trkpt lat="45.17907" lon="4.84004">
        <ele>144.43699645996</ele>
        <time>2010-01-02T15:30:16Z</time>
      </trkpt>
      <trkpt lat="45.17908" lon="4.84051">
        <ele>146.69799804688</ele>
        <time>2010-01-02T15:30:22Z</time>
      </trkpt>
      <trkpt lat="45.17908" lon="4.84087">
        <ele>148.14599609375</ele>
        <time>2010-01-02T15:30:27Z</time>
      </trkpt>
      <trkpt lat="45.17908" lon="4.84112">
        <ele>149.87300109863</ele>
        <time>2010-01-02T15:30:32Z</time>
      </trkpt>
      <trkpt lat="45.17908" lon="4.84133">
        <ele>151.27900695801</ele>
        <time>2010-01-02T15:30:38Z</time>
      </trkpt>
      <trkpt lat="45.17892" lon="4.84224">
        <ele>153.125</ele>
        <time>2010-01-02T15:30:45Z</time>
      </trkpt>
      <trkpt lat="45.17874" lon="4.84257">
        <ele>154.34800720215</ele>
        <time>2010-01-02T15:30:54Z</time>
      </trkpt>
      <trkpt lat="45.17874" lon="4.84257">
        <ele>154.67799377441</ele>
        <time>2010-01-02T15:30:56Z</time>
      </trkpt>
      <trkpt lat="45.17857" lon="4.8431">
        <ele>154.46600341797</ele>
        <time>2010-01-02T15:31:02Z</time>
      </trkpt>
      <trkpt lat="45.17857" lon="4.84323">
        <ele>154.2559967041</ele>
        <time>2010-01-02T15:31:04Z</time>
      </trkpt>
      <trkpt lat="45.17867" lon="4.84379">
        <ele>154.16600036621</ele>
        <time>2010-01-02T15:31:12Z</time>
      </trkpt>
      <trkpt lat="45.17879" lon="4.84437">
        <ele>153.55999755859</ele>
        <time>2010-01-02T15:31:23Z</time>
      </trkpt>
      <trkpt lat="45.17899" lon="4.84509">
        <ele>152.97300720215</ele>
        <time>2010-01-02T15:31:31Z</time>
      </trkpt>
      <trkpt lat="45.17924" lon="4.84577">
        <ele>152.68600463867</ele>
        <time>2010-01-02T15:31:41Z</time>
      </trkpt>
      <trkpt lat="45.1795" lon="4.84642">
        <ele>152.89300537109</ele>
        <time>2010-01-02T15:31:51Z</time>
      </trkpt>
      <trkpt lat="45.1797" lon="4.84694">
        <ele>153.98199462891</ele>
        <time>2010-01-02T15:32:00Z</time>
      </trkpt>
      <trkpt lat="45.17979" lon="4.8473">
        <ele>154.16000366211</ele>
        <time>2010-01-02T15:32:06Z</time>
      </trkpt>
      <trkpt lat="45.17988" lon="4.84791">
        <ele>155.02600097656</ele>
        <time>2010-01-02T15:32:16Z</time>
      </trkpt>
      <trkpt lat="45.17989" lon="4.84845">
        <ele>156.15600585938</ele>
        <time>2010-01-02T15:32:24Z</time>
      </trkpt>
      <trkpt lat="45.17986" lon="4.84888">
        <ele>156.56100463867</ele>
        <time>2010-01-02T15:32:32Z</time>
      </trkpt>
      <trkpt lat="45.17986" lon="4.84926">
        <ele>157.36599731445</ele>
        <time>2010-01-02T15:32:37Z</time>
      </trkpt>
      <trkpt lat="45.17986" lon="4.85007">
        <ele>158.22700500488</ele>
        <time>2010-01-02T15:32:48Z</time>
      </trkpt>
      <trkpt lat="45.17977" lon="4.85055">
        <ele>159.30400085449</ele>
        <time>2010-01-02T15:32:55Z</time>
      </trkpt>
      <trkpt lat="45.17958" lon="4.85095">
        <ele>161.73899841309</ele>
        <time>2010-01-02T15:33:02Z</time>
      </trkpt>
      <trkpt lat="45.1795" lon="4.85108">
        <ele>162.44900512695</ele>
        <time>2010-01-02T15:33:05Z</time>
      </trkpt>
      <trkpt lat="45.17926" lon="4.85145">
        <ele>164.35299682617</ele>
        <time>2010-01-02T15:33:13Z</time>
      </trkpt>
      <trkpt lat="45.17908" lon="4.85171">
        <ele>165.31300354004</ele>
        <time>2010-01-02T15:33:19Z</time>
      </trkpt>
      <trkpt lat="45.17885" lon="4.85211">
        <ele>166.34899902344</ele>
        <time>2010-01-02T15:33:26Z</time>
      </trkpt>
      <trkpt lat="45.17873" lon="4.8525">
        <ele>167.20899963379</ele>
        <time>2010-01-02T15:33:34Z</time>
      </trkpt>
      <trkpt lat="45.17868" lon="4.85287">
        <ele>168.3630065918</ele>
        <time>2010-01-02T15:33:41Z</time>
      </trkpt>
      <trkpt lat="45.17867" lon="4.8531">
        <ele>169.27799987793</ele>
        <time>2010-01-02T15:33:45Z</time>
      </trkpt>
      <trkpt lat="45.17866" lon="4.8533">
        <ele>170.62199401856</ele>
        <time>2010-01-02T15:33:55Z</time>
      </trkpt>
      <trkpt lat="45.1788" lon="4.85415">
        <ele>171.80200195312</ele>
        <time>2010-01-02T15:34:04Z</time>
      </trkpt>
      <trkpt lat="45.17884" lon="4.85438">
        <ele>171.68200683594</ele>
        <time>2010-01-02T15:34:08Z</time>
      </trkpt>
      <trkpt lat="45.17883" lon="4.8548">
        <ele>170.38999938965</ele>
        <time>2010-01-02T15:34:13Z</time>
      </trkpt>
      <trkpt lat="45.17883" lon="4.8548">
        <ele>170.36599731445</ele>
        <time>2010-01-02T15:34:14Z</time>
      </trkpt>
      <trkpt lat="45.17856" lon="4.85536">
        <ele>167.91299438477</ele>
        <time>2010-01-02T15:34:19Z</time>
      </trkpt>
      <trkpt lat="45.17831" lon="4.85578">
        <ele>166.24499511719</ele>
        <time>2010-01-02T15:34:24Z</time>
      </trkpt>
      <trkpt lat="45.1781" lon="4.85606">
        <ele>165.60600280762</ele>
        <time>2010-01-02T15:34:28Z</time>
      </trkpt>
      <trkpt lat="45.17781" lon="4.85637">
        <ele>164.83200073242</ele>
        <time>2010-01-02T15:34:33Z</time>
      </trkpt>
      <trkpt lat="45.17752" lon="4.85664">
        <ele>164.44299316406</ele>
        <time>2010-01-02T15:34:38Z</time>
      </trkpt>
      <trkpt lat="45.1773" lon="4.85686">
        <ele>163.91700744629</ele>
        <time>2010-01-02T15:34:42Z</time>
      </trkpt>
      <trkpt lat="45.1768" lon="4.85725">
        <ele>162.81799316406</ele>
        <time>2010-01-02T15:34:50Z</time>
      </trkpt>
      <trkpt lat="45.17638" lon="4.85752">
        <ele>161.10000610352</ele>
        <time>2010-01-02T15:34:56Z</time>
      </trkpt>
      <trkpt lat="45.17617" lon="4.85766">
        <ele>160.46299743652</ele>
        <time>2010-01-02T15:34:59Z</time>
      </trkpt>
      <trkpt lat="45.17597" lon="4.85803">
        <ele>159.18600463867</ele>
        <time>2010-01-02T15:35:04Z</time>
      </trkpt>
      <trkpt lat="45.17572" lon="4.85899">
        <ele>157.09199523926</ele>
        <time>2010-01-02T15:35:13Z</time>
      </trkpt>
      <trkpt lat="45.17548" lon="4.85953">
        <ele>158.28700256348</ele>
        <time>2010-01-02T15:35:19Z</time>
      </trkpt>
      <trkpt lat="45.17529" lon="4.8599">
        <ele>159.41999816894</ele>
        <time>2010-01-02T15:35:24Z</time>
      </trkpt>
      <trkpt lat="45.17501" lon="4.86047">
        <ele>160.27900695801</ele>
        <time>2010-01-02T15:35:32Z</time>
      </trkpt>
      <trkpt lat="45.17469" lon="4.86115">
        <ele>162.67999267578</ele>
        <time>2010-01-02T15:35:42Z</time>
      </trkpt>
      <trkpt lat="45.17438" lon="4.86153">
        <ele>163.11799621582</ele>
        <time>2010-01-02T15:35:49Z</time>
      </trkpt>
      <trkpt lat="45.17416" lon="4.86211">
        <ele>163.48100280762</ele>
        <time>2010-01-02T15:35:56Z</time>
      </trkpt>
      <trkpt lat="45.17385" lon="4.86295">
        <ele>163.61399841309</ele>
        <time>2010-01-02T15:36:06Z</time>
      </trkpt>
      <trkpt lat="45.17366" lon="4.86344">
        <ele>164.10099792481</ele>
        <time>2010-01-02T15:36:12Z</time>
      </trkpt>
      <trkpt lat="45.17339" lon="4.86415">
        <ele>164.05200195312</ele>
        <time>2010-01-02T15:36:21Z</time>
      </trkpt>
      <trkpt lat="45.1731" lon="4.86493">
        <ele>164.30499267578</ele>
        <time>2010-01-02T15:36:31Z</time>
      </trkpt>
      <trkpt lat="45.1729" lon="4.86548">
        <ele>164.96299743652</ele>
        <time>2010-01-02T15:36:38Z</time>
      </trkpt>
      <trkpt lat="45.17261" lon="4.86624">
        <ele>165.79600524902</ele>
        <time>2010-01-02T15:36:48Z</time>
      </trkpt>
      <trkpt lat="45.17239" lon="4.86684">
        <ele>166.33599853516</ele>
        <time>2010-01-02T15:36:56Z</time>
      </trkpt>
      <trkpt lat="45.17216" lon="4.86743">
        <ele>167.03300476074</ele>
        <time>2010-01-02T15:37:04Z</time>
      </trkpt>
      <trkpt lat="45.17173" lon="4.86778">
        <ele>166.88900756836</ele>
        <time>2010-01-02T15:37:11Z</time>
      </trkpt>
      <trkpt lat="45.17146" lon="4.8684">
        <ele>166.79299926758</ele>
        <time>2010-01-02T15:37:19Z</time>
      </trkpt>
      <trkpt lat="45.17116" lon="4.86912">
        <ele>165.75100708008</ele>
        <time>2010-01-02T15:37:28Z</time>
      </trkpt>
      <trkpt lat="45.17091" lon="4.86969">
        <ele>165.21699523926</ele>
        <time>2010-01-02T15:37:35Z</time>
      </trkpt>
      <trkpt lat="45.17066" lon="4.87028">
        <ele>164.49000549316</ele>
        <time>2010-01-02T15:37:42Z</time>
      </trkpt>
      <trkpt lat="45.17047" lon="4.87083">
        <ele>164.66499328613</ele>
        <time>2010-01-02T15:37:49Z</time>
      </trkpt>
      <trkpt lat="45.17027" lon="4.87133">
        <ele>165.47799682617</ele>
        <time>2010-01-02T15:37:56Z</time>
      </trkpt>
      <trkpt lat="45.1702" lon="4.87149">
        <ele>166.77099609375</ele>
        <time>2010-01-02T15:38:03Z</time>
      </trkpt>
      <trkpt lat="45.17007" lon="4.87175">
        <ele>166.81799316406</ele>
        <time>2010-01-02T15:38:07Z</time>
      </trkpt>
      <trkpt lat="45.16999" lon="4.87222">
        <ele>166.68699645996</ele>
        <time>2010-01-02T15:38:10Z</time>
      </trkpt>
      <trkpt lat="45.17004" lon="4.87287">
        <ele>166.19700622559</ele>
        <time>2010-01-02T15:38:18Z</time>
      </trkpt>
      <trkpt lat="45.17009" lon="4.87358">
        <ele>165.54299926758</ele>
        <time>2010-01-02T15:38:26Z</time>
      </trkpt>
      <trkpt lat="45.17014" lon="4.87415">
        <ele>164.71000671387</ele>
        <time>2010-01-02T15:38:32Z</time>
      </trkpt>
      <trkpt lat="45.1702" lon="4.8748">
        <ele>164.75199890137</ele>
        <time>2010-01-02T15:38:39Z</time>
      </trkpt>
      <trkpt lat="45.17023" lon="4.87566">
        <ele>163.89199829102</ele>
        <time>2010-01-02T15:38:48Z</time>
      </trkpt>
      <trkpt lat="45.17022" lon="4.87617">
        <ele>164.05499267578</ele>
        <time>2010-01-02T15:38:54Z</time>
      </trkpt>
      <trkpt lat="45.17013" lon="4.87686">
        <ele>164.78799438477</ele>
        <time>2010-01-02T15:39:02Z</time>
      </trkpt>
      <trkpt lat="45.17005" lon="4.87715">
        <ele>164.79600524902</ele>
        <time>2010-01-02T15:39:06Z</time>
      </trkpt>
      <trkpt lat="45.1699" lon="4.87742">
        <ele>164.80799865723</ele>
        <time>2010-01-02T15:39:11Z</time>
      </trkpt>
      <trkpt lat="45.16988" lon="4.87807">
        <ele>165.24299621582</ele>
        <time>2010-01-02T15:39:18Z</time>
      </trkpt>
      <trkpt lat="45.16975" lon="4.87874">
        <ele>165.96699523926</ele>
        <time>2010-01-02T15:39:26Z</time>
      </trkpt>
      <trkpt lat="45.16969" lon="4.87929">
        <ele>166.37600708008</ele>
        <time>2010-01-02T15:39:33Z</time>
      </trkpt>
      <trkpt lat="45.16966" lon="4.87985">
        <ele>166.50300598144</ele>
        <time>2010-01-02T15:39:40Z</time>
      </trkpt>
      <trkpt lat="45.16973" lon="4.88042">
        <ele>167.42799377441</ele>
        <time>2010-01-02T15:39:49Z</time>
      </trkpt>
      <trkpt lat="45.16982" lon="4.88128">
        <ele>168.28199768066</ele>
        <time>2010-01-02T15:39:58Z</time>
      </trkpt>
      <trkpt lat="45.16988" lon="4.88194">
        <ele>169.00900268555</ele>
        <time>2010-01-02T15:40:07Z</time>
      </trkpt>
      <trkpt lat="45.16986" lon="4.8826">
        <ele>170.26400756836</ele>
        <time>2010-01-02T15:40:16Z</time>
      </trkpt>
      <trkpt lat="45.16977" lon="4.88322">
        <ele>171.05000305176</ele>
        <time>2010-01-02T15:40:25Z</time>
      </trkpt>
      <trkpt lat="45.16966" lon="4.88386">
        <ele>170.77900695801</ele>
        <time>2010-01-02T15:40:33Z</time>
      </trkpt>
      <trkpt lat="45.16956" lon="4.88446">
        <ele>170.55799865723</ele>
        <time>2010-01-02T15:40:40Z</time>
      </trkpt>
      <trkpt lat="45.16944" lon="4.88512">
        <ele>172.18200683594</ele>
        <time>2010-01-02T15:40:48Z</time>
      </trkpt>
      <trkpt lat="45.16941" lon="4.88527">
        <ele>172.57600402832</ele>
        <time>2010-01-02T15:40:50Z</time>
      </trkpt>
      <trkpt lat="45.16932" lon="4.88574">
        <ele>173.56500244141</ele>
        <time>2010-01-02T15:40:57Z</time>
      </trkpt>
      <trkpt lat="45.16926" lon="4.88608">
        <ele>174.74899291992</ele>
        <time>2010-01-02T15:41:02Z</time>
      </trkpt>
      <trkpt lat="45.16919" lon="4.88648">
        <ele>176.88900756836</ele>
        <time>2010-01-02T15:41:07Z</time>
      </trkpt>
      <trkpt lat="45.16915" lon="4.88667">
        <ele>177.97700500488</ele>
        <time>2010-01-02T15:41:09Z</time>
      </trkpt>
      <trkpt lat="45.16906" lon="4.88718">
        <ele>180.42900085449</ele>
        <time>2010-01-02T15:41:14Z</time>
      </trkpt>
      <trkpt lat="45.16899" lon="4.88754">
        <ele>182.92399597168</ele>
        <time>2010-01-02T15:41:18Z</time>
      </trkpt>
      <trkpt lat="45.16895" lon="4.88771">
        <ele>183.96800231934</ele>
        <time>2010-01-02T15:41:20Z</time>
      </trkpt>
      <trkpt lat="45.16888" lon="4.88811">
        <ele>185.54699707031</ele>
        <time>2010-01-02T15:41:25Z</time>
      </trkpt>
      <trkpt lat="45.1688" lon="4.8885">
        <ele>185.86700439453</ele>
        <time>2010-01-02T15:41:32Z</time>
      </trkpt>
      <trkpt lat="45.1687" lon="4.88902">
        <ele>186.96699523926</ele>
        <time>2010-01-02T15:41:43Z</time>
      </trkpt>
      <trkpt lat="45.16866" lon="4.88938">
        <ele>187.27900695801</ele>
        <time>2010-01-02T15:41:50Z</time>
      </trkpt>
      <trkpt lat="45.16858" lon="4.88984">
        <ele>188.47799682617</ele>
        <time>2010-01-02T15:41:59Z</time>
      </trkpt>
      <trkpt lat="45.1685" lon="4.89028">
        <ele>188.93800354004</ele>
        <time>2010-01-02T15:42:08Z</time>
      </trkpt>
      <trkpt lat="45.1684" lon="4.89068">
        <ele>188.05000305176</ele>
        <time>2010-01-02T15:42:16Z</time>
      </trkpt>
      <trkpt lat="45.16825" lon="4.89096">
        <ele>188.56799316406</ele>
        <time>2010-01-02T15:42:23Z</time>
      </trkpt>
      <trkpt lat="45.16803" lon="4.89122">
        <ele>188.5059967041</ele>
        <time>2010-01-02T15:42:31Z</time>
      </trkpt>
      <trkpt lat="45.16784" lon="4.89141">
        <ele>188.66900634766</ele>
        <time>2010-01-02T15:42:38Z</time>
      </trkpt>
      <trkpt lat="45.16766" lon="4.89153">
        <ele>188.98199462891</ele>
        <time>2010-01-02T15:42:45Z</time>
      </trkpt>
      <trkpt lat="45.16745" lon="4.89162">
        <ele>189.10600280762</ele>
        <time>2010-01-02T15:42:51Z</time>
      </trkpt>
      <trkpt lat="45.16724" lon="4.89171">
        <ele>188.84300231934</ele>
        <time>2010-01-02T15:42:57Z</time>
      </trkpt>
      <trkpt lat="45.16724" lon="4.89171">
        <ele>188.92999267578</ele>
        <time>2010-01-02T15:43:02Z</time>
      </trkpt>
      <trkpt lat="45.16693" lon="4.89177">
        <ele>189.04600524902</ele>
        <time>2010-01-02T15:43:04Z</time>
      </trkpt>
      <trkpt lat="45.1666" lon="4.8919">
        <ele>188.78399658203</ele>
        <time>2010-01-02T15:43:11Z</time>
      </trkpt>
      <trkpt lat="45.16626" lon="4.89209">
        <ele>188.43099975586</ele>
        <time>2010-01-02T15:43:18Z</time>
      </trkpt>
      <trkpt lat="45.16595" lon="4.89235">
        <ele>188.31100463867</ele>
        <time>2010-01-02T15:43:24Z</time>
      </trkpt>
      <trkpt lat="45.16571" lon="4.89275">
        <ele>188.12600708008</ele>
        <time>2010-01-02T15:43:30Z</time>
      </trkpt>
      <trkpt lat="45.16558" lon="4.89325">
        <ele>187.83200073242</ele>
        <time>2010-01-02T15:43:36Z</time>
      </trkpt>
      <trkpt lat="45.16539" lon="4.89402">
        <ele>189.12600708008</ele>
        <time>2010-01-02T15:43:45Z</time>
      </trkpt>
      <trkpt lat="45.16524" lon="4.8946">
        <ele>190.76899719238</ele>
        <time>2010-01-02T15:43:53Z</time>
      </trkpt>
      <trkpt lat="45.1651" lon="4.89518">
        <ele>193.70100402832</ele>
        <time>2010-01-02T15:44:02Z</time>
      </trkpt>
      <trkpt lat="45.16508" lon="4.89524">
        <ele>194.00199890137</ele>
        <time>2010-01-02T15:44:03Z</time>
      </trkpt>
      <trkpt lat="45.16501" lon="4.89553">
        <ele>195.33000183106</ele>
        <time>2010-01-02T15:44:08Z</time>
      </trkpt>
      <trkpt lat="45.16488" lon="4.89603">
        <ele>197.20500183106</ele>
        <time>2010-01-02T15:44:17Z</time>
      </trkpt>
      <trkpt lat="45.16484" lon="4.89621">
        <ele>198.55499267578</ele>
        <time>2010-01-02T15:44:26Z</time>
      </trkpt>
      <trkpt lat="45.16465" lon="4.89702">
        <ele>200.30900573731</ele>
        <time>2010-01-02T15:44:34Z</time>
      </trkpt>
      <trkpt lat="45.16451" lon="4.89759">
        <ele>201.76300048828</ele>
        <time>2010-01-02T15:44:44Z</time>
      </trkpt>
      <trkpt lat="45.16444" lon="4.89786">
        <ele>202.94799804688</ele>
        <time>2010-01-02T15:44:49Z</time>
      </trkpt>
      <trkpt lat="45.16428" lon="4.89832">
        <ele>204.72999572754</ele>
        <time>2010-01-02T15:44:58Z</time>
      </trkpt>
      <trkpt lat="45.1642" lon="4.89849">
        <ele>206.24899291992</ele>
        <time>2010-01-02T15:45:06Z</time>
      </trkpt>
      <trkpt lat="45.164" lon="4.89899">
        <ele>207.17999267578</ele>
        <time>2010-01-02T15:45:12Z</time>
      </trkpt>
      <trkpt lat="45.16386" lon="4.89935">
        <ele>207.7200012207</ele>
        <time>2010-01-02T15:45:20Z</time>
      </trkpt>
      <trkpt lat="45.16367" lon="4.89982">
        <ele>207.30299377441</ele>
        <time>2010-01-02T15:45:29Z</time>
      </trkpt>
      <trkpt lat="45.16352" lon="4.90021">
        <ele>206.54100036621</ele>
        <time>2010-01-02T15:45:36Z</time>
      </trkpt>
      <trkpt lat="45.16326" lon="4.90066">
        <ele>206.90600585938</ele>
        <time>2010-01-02T15:45:45Z</time>
      </trkpt>
      <trkpt lat="45.16294" lon="4.90118">
        <ele>207.24200439453</ele>
        <time>2010-01-02T15:45:56Z</time>
      </trkpt>
      <trkpt lat="45.16266" lon="4.90164">
        <ele>207.99200439453</ele>
        <time>2010-01-02T15:46:06Z</time>
      </trkpt>
      <trkpt lat="45.16248" lon="4.90193">
        <ele>209.02900695801</ele>
        <time>2010-01-02T15:46:13Z</time>
      </trkpt>
      <trkpt lat="45.16225" lon="4.90233">
        <ele>209.76600646973</ele>
        <time>2010-01-02T15:46:23Z</time>
      </trkpt>
      <trkpt lat="45.16206" lon="4.90273">
        <ele>210.99499511719</ele>
        <time>2010-01-02T15:46:33Z</time>
      </trkpt>
      <trkpt lat="45.16192" lon="4.90301">
        <ele>211.62100219727</ele>
        <time>2010-01-02T15:46:40Z</time>
      </trkpt>
      <trkpt lat="45.16187" lon="4.9031">
        <ele>211.7559967041</ele>
        <time>2010-01-02T15:46:42Z</time>
      </trkpt>
      <trkpt lat="45.16167" lon="4.90352">
        <ele>213.07400512695</ele>
        <time>2010-01-02T15:46:51Z</time>
      </trkpt>
      <trkpt lat="45.16143" lon="4.904">
        <ele>214.20899963379</ele>
        <time>2010-01-02T15:47:01Z</time>
      </trkpt>
      <trkpt lat="45.16118" lon="4.90452">
        <ele>215.56900024414</ele>
        <time>2010-01-02T15:47:12Z</time>
      </trkpt>
      <trkpt lat="45.16094" lon="4.90508">
        <ele>217.46299743652</ele>
        <time>2010-01-02T15:47:24Z</time>
      </trkpt>
      <trkpt lat="45.16079" lon="4.90549">
        <ele>219.24800109863</ele>
        <time>2010-01-02T15:47:33Z</time>
      </trkpt>
      <trkpt lat="45.16065" lon="4.90594">
        <ele>221.16999816894</ele>
        <time>2010-01-02T15:47:43Z</time>
      </trkpt>
      <trkpt lat="45.16048" lon="4.90643">
        <ele>222.17100524902</ele>
        <time>2010-01-02T15:47:53Z</time>
      </trkpt>
      <trkpt lat="45.1603" lon="4.90699">
        <ele>222.53900146484</ele>
        <time>2010-01-02T15:48:03Z</time>
      </trkpt>
      <trkpt lat="45.16009" lon="4.9076">
        <ele>223.35600280762</ele>
        <time>2010-01-02T15:48:14Z</time>
      </trkpt>
      <trkpt lat="45.15999" lon="4.90789">
        <ele>225.08000183106</ele>
        <time>2010-01-02T15:48:25Z</time>
      </trkpt>
      <trkpt lat="45.15969" lon="4.90866">
        <ele>226.78900146484</ele>
        <time>2010-01-02T15:48:35Z</time>
      </trkpt>
      <trkpt lat="45.15956" lon="4.909">
        <ele>227.69599914551</ele>
        <time>2010-01-02T15:48:46Z</time>
      </trkpt>
      <trkpt lat="45.15918" lon="4.90963">
        <ele>229.11099243164</ele>
        <time>2010-01-02T15:48:56Z</time>
      </trkpt>
      <trkpt lat="45.15887" lon="4.90993">
        <ele>230.52000427246</ele>
        <time>2010-01-02T15:49:05Z</time>
      </trkpt>
      <trkpt lat="45.15856" lon="4.91018">
        <ele>232.07299804688</ele>
        <time>2010-01-02T15:49:14Z</time>
      </trkpt>
      <trkpt lat="45.15816" lon="4.91045">
        <ele>233.29600524902</ele>
        <time>2010-01-02T15:49:25Z</time>
      </trkpt>
      <trkpt lat="45.15779" lon="4.9107">
        <ele>234.60200500488</ele>
        <time>2010-01-02T15:49:35Z</time>
      </trkpt>
      <trkpt lat="45.15747" lon="4.91092">
        <ele>236.27799987793</ele>
        <time>2010-01-02T15:49:44Z</time>
      </trkpt>
      <trkpt lat="45.15714" lon="4.91114">
        <ele>237.22900390625</ele>
        <time>2010-01-02T15:49:53Z</time>
      </trkpt>
      <trkpt lat="45.15678" lon="4.91138">
        <ele>238.92900085449</ele>
        <time>2010-01-02T15:50:03Z</time>
      </trkpt>
      <trkpt lat="45.15652" lon="4.91159">
        <ele>240.3450012207</ele>
        <time>2010-01-02T15:50:11Z</time>
      </trkpt>
      <trkpt lat="45.15632" lon="4.91175">
        <ele>241.35200500488</ele>
        <time>2010-01-02T15:50:18Z</time>
      </trkpt>
      <trkpt lat="45.15608" lon="4.91195">
        <ele>242.53900146484</ele>
        <time>2010-01-02T15:50:26Z</time>
      </trkpt>
      <trkpt lat="45.15591" lon="4.91209">
        <ele>243.34399414062</ele>
        <time>2010-01-02T15:50:32Z</time>
      </trkpt>
      <trkpt lat="45.15575" lon="4.91229">
        <ele>243.73300170898</ele>
        <time>2010-01-02T15:50:38Z</time>
      </trkpt>
      <trkpt lat="45.15556" lon="4.91252">
        <ele>243.82699584961</ele>
        <time>2010-01-02T15:50:45Z</time>
      </trkpt>
      <trkpt lat="45.15534" lon="4.91278">
        <ele>243.45500183106</ele>
        <time>2010-01-02T15:50:53Z</time>
      </trkpt>
      <trkpt lat="45.15515" lon="4.91301">
        <ele>242.06500244141</ele>
        <time>2010-01-02T15:50:59Z</time>
      </trkpt>
      <trkpt lat="45.15496" lon="4.91324">
        <ele>241.25399780273</ele>
        <time>2010-01-02T15:51:04Z</time>
      </trkpt>
      <trkpt lat="45.15474" lon="4.91351">
        <ele>240.12800598144</ele>
        <time>2010-01-02T15:51:09Z</time>
      </trkpt>
      <trkpt lat="45.15458" lon="4.91369">
        <ele>238.79299926758</ele>
        <time>2010-01-02T15:51:12Z</time>
      </trkpt>
      <trkpt lat="45.15441" lon="4.91389">
        <ele>237.25700378418</ele>
        <time>2010-01-02T15:51:16Z</time>
      </trkpt>
      <trkpt lat="45.15406" lon="4.91377">
        <ele>237.08500671387</ele>
        <time>2010-01-02T15:51:19Z</time>
      </trkpt>
      <trkpt lat="45.15402" lon="4.91359">
        <ele>236.63299560547</ele>
        <time>2010-01-02T15:51:21Z</time>
      </trkpt>
      <trkpt lat="45.15397" lon="4.9134">
        <ele>236.17399597168</ele>
        <time>2010-01-02T15:51:23Z</time>
      </trkpt>
      <trkpt lat="45.15381" lon="4.91299">
        <ele>235.72500610352</ele>
        <time>2010-01-02T15:51:30Z</time>
      </trkpt>
      <trkpt lat="45.15381" lon="4.91299">
        <ele>235.49600219727</ele>
        <time>2010-01-02T15:51:31Z</time>
      </trkpt>
      <trkpt lat="45.1533" lon="4.91254">
        <ele>234.12899780273</ele>
        <time>2010-01-02T15:51:38Z</time>
      </trkpt>
      <trkpt lat="45.15304" lon="4.91239">
        <ele>233.5890045166</ele>
        <time>2010-01-02T15:51:44Z</time>
      </trkpt>
      <trkpt lat="45.15247" lon="4.91209">
        <ele>232.33500671387</ele>
        <time>2010-01-02T15:51:52Z</time>
      </trkpt>
      <trkpt lat="45.15216" lon="4.91193">
        <ele>231.29200744629</ele>
        <time>2010-01-02T15:51:57Z</time>
      </trkpt>
      <trkpt lat="45.15188" lon="4.91177">
        <ele>229.98599243164</ele>
        <time>2010-01-02T15:52:02Z</time>
      </trkpt>
      <trkpt lat="45.15163" lon="4.91201">
        <ele>229.17500305176</ele>
        <time>2010-01-02T15:52:05Z</time>
      </trkpt>
      <trkpt lat="45.15148" lon="4.91203">
        <ele>228.23399353027</ele>
        <time>2010-01-02T15:52:07Z</time>
      </trkpt>
      <trkpt lat="45.15091" lon="4.91213">
        <ele>226.41900634766</ele>
        <time>2010-01-02T15:52:14Z</time>
      </trkpt>
      <trkpt lat="45.15024" lon="4.91225">
        <ele>224.24800109863</ele>
        <time>2010-01-02T15:52:22Z</time>
      </trkpt>
      <trkpt lat="45.14973" lon="4.91234">
        <ele>222.81500244141</ele>
        <time>2010-01-02T15:52:28Z</time>
      </trkpt>
      <trkpt lat="45.14891" lon="4.91248">
        <ele>221.20799255371</ele>
        <time>2010-01-02T15:52:38Z</time>
      </trkpt>
      <trkpt lat="45.14814" lon="4.91262">
        <ele>219.89199829102</ele>
        <time>2010-01-02T15:52:48Z</time>
      </trkpt>
      <trkpt lat="45.14761" lon="4.91286">
        <ele>218.8390045166</ele>
        <time>2010-01-02T15:52:56Z</time>
      </trkpt>
      <trkpt lat="45.14697" lon="4.91314">
        <ele>217.24699401856</ele>
        <time>2010-01-02T15:53:06Z</time>
      </trkpt>
      <trkpt lat="45.14649" lon="4.91335">
        <ele>216.74499511719</ele>
        <time>2010-01-02T15:53:14Z</time>
      </trkpt>
      <trkpt lat="45.14605" lon="4.9135">
        <ele>215.97900390625</ele>
        <time>2010-01-02T15:53:22Z</time>
      </trkpt>
      <trkpt lat="45.14565" lon="4.91361">
        <ele>215.70500183106</ele>
        <time>2010-01-02T15:53:29Z</time>
      </trkpt>
      <trkpt lat="45.14511" lon="4.9137">
        <ele>215.08999633789</ele>
        <time>2010-01-02T15:53:37Z</time>
      </trkpt>
      <trkpt lat="45.14475" lon="4.91376">
        <ele>215.08099365234</ele>
        <time>2010-01-02T15:53:42Z</time>
      </trkpt>
      <trkpt lat="45.1444" lon="4.91383">
        <ele>215.10200500488</ele>
        <time>2010-01-02T15:53:47Z</time>
      </trkpt>
      <trkpt lat="45.14397" lon="4.9139">
        <ele>215.83700561523</ele>
        <time>2010-01-02T15:53:53Z</time>
      </trkpt>
      <trkpt lat="45.14343" lon="4.91399">
        <ele>216.3450012207</ele>
        <time>2010-01-02T15:54:01Z</time>
      </trkpt>
      <trkpt lat="45.14284" lon="4.91409">
        <ele>217.03700256348</ele>
        <time>2010-01-02T15:54:10Z</time>
      </trkpt>
      <trkpt lat="45.14228" lon="4.91429">
        <ele>217.92100524902</ele>
        <time>2010-01-02T15:54:19Z</time>
      </trkpt>
      <trkpt lat="45.14195" lon="4.91451">
        <ele>218.39799499512</ele>
        <time>2010-01-02T15:54:25Z</time>
      </trkpt>
      <trkpt lat="45.14172" lon="4.9149">
        <ele>218.95100402832</ele>
        <time>2010-01-02T15:54:31Z</time>
      </trkpt>
      <trkpt lat="45.14157" lon="4.91516">
        <ele>218.37899780273</ele>
        <time>2010-01-02T15:54:35Z</time>
      </trkpt>
      <trkpt lat="45.14126" lon="4.91574">
        <ele>218.53900146484</ele>
        <time>2010-01-02T15:54:43Z</time>
      </trkpt>
      <trkpt lat="45.14099" lon="4.91624">
        <ele>219.49600219727</ele>
        <time>2010-01-02T15:54:50Z</time>
      </trkpt>
      <trkpt lat="45.14075" lon="4.91666">
        <ele>220.15299987793</ele>
        <time>2010-01-02T15:54:57Z</time>
      </trkpt>
      <trkpt lat="45.14049" lon="4.91715">
        <ele>221.22799682617</ele>
        <time>2010-01-02T15:55:05Z</time>
      </trkpt>
      <trkpt lat="45.14021" lon="4.91767">
        <ele>222.0299987793</ele>
        <time>2010-01-02T15:55:13Z</time>
      </trkpt>
      <trkpt lat="45.13996" lon="4.91812">
        <ele>222.76400756836</ele>
        <time>2010-01-02T15:55:20Z</time>
      </trkpt>
      <trkpt lat="45.13958" lon="4.91865">
        <ele>223.34800720215</ele>
        <time>2010-01-02T15:55:29Z</time>
      </trkpt>
      <trkpt lat="45.13917" lon="4.91906">
        <ele>223.48100280762</ele>
        <time>2010-01-02T15:55:37Z</time>
      </trkpt>
      <trkpt lat="45.13871" lon="4.91934">
        <ele>224.51499938965</ele>
        <time>2010-01-02T15:55:45Z</time>
      </trkpt>
      <trkpt lat="45.13809" lon="4.91957">
        <ele>224.99299621582</ele>
        <time>2010-01-02T15:55:55Z</time>
      </trkpt>
      <trkpt lat="45.13753" lon="4.91978">
        <ele>225.9049987793</ele>
        <time>2010-01-02T15:56:04Z</time>
      </trkpt>
      <trkpt lat="45.1369" lon="4.92001">
        <ele>226.71099853516</ele>
        <time>2010-01-02T15:56:14Z</time>
      </trkpt>
      <trkpt lat="45.13632" lon="4.92026">
        <ele>225.97200012207</ele>
        <time>2010-01-02T15:56:23Z</time>
      </trkpt>
      <trkpt lat="45.13576" lon="4.9205">
        <ele>225.47300720215</ele>
        <time>2010-01-02T15:56:32Z</time>
      </trkpt>
      <trkpt lat="45.1352" lon="4.92076">
        <ele>225.49099731445</ele>
        <time>2010-01-02T15:56:41Z</time>
      </trkpt>
      <trkpt lat="45.1347" lon="4.92116">
        <ele>224.93800354004</ele>
        <time>2010-01-02T15:56:49Z</time>
      </trkpt>
      <trkpt lat="45.13427" lon="4.92153">
        <ele>223.97399902344</ele>
        <time>2010-01-02T15:56:56Z</time>
      </trkpt>
      <trkpt lat="45.13398" lon="4.92179">
        <ele>223.06900024414</ele>
        <time>2010-01-02T15:57:01Z</time>
      </trkpt>
      <trkpt lat="45.13351" lon="4.92219">
        <ele>221.78100585938</ele>
        <time>2010-01-02T15:57:08Z</time>
      </trkpt>
      <trkpt lat="45.13311" lon="4.92232">
        <ele>221.16299438477</ele>
        <time>2010-01-02T15:57:13Z</time>
      </trkpt>
      <trkpt lat="45.13251" lon="4.92239">
        <ele>219.86099243164</ele>
        <time>2010-01-02T15:57:20Z</time>
      </trkpt>
      <trkpt lat="45.13165" lon="4.92243">
        <ele>218.53300476074</ele>
        <time>2010-01-02T15:57:30Z</time>
      </trkpt>
      <trkpt lat="45.13117" lon="4.92251">
        <ele>217.98100280762</ele>
        <time>2010-01-02T15:57:36Z</time>
      </trkpt>
      <trkpt lat="45.13085" lon="4.92256">
        <ele>217.38299560547</ele>
        <time>2010-01-02T15:57:41Z</time>
      </trkpt>
      <trkpt lat="45.13018" lon="4.92277">
        <ele>216.46899414062</ele>
        <time>2010-01-02T15:57:50Z</time>
      </trkpt>
      <trkpt lat="45.12978" lon="4.92295">
        <ele>214.93099975586</ele>
        <time>2010-01-02T15:57:56Z</time>
      </trkpt>
      <trkpt lat="45.12928" lon="4.92344">
        <ele>213.85800170898</ele>
        <time>2010-01-02T15:58:03Z</time>
      </trkpt>
      <trkpt lat="45.12878" lon="4.92394">
        <ele>212.41499328613</ele>
        <time>2010-01-02T15:58:10Z</time>
      </trkpt>
      <trkpt lat="45.12832" lon="4.92441">
        <ele>211.99000549316</ele>
        <time>2010-01-02T15:58:16Z</time>
      </trkpt>
      <trkpt lat="45.12816" lon="4.92456">
        <ele>211.88299560547</ele>
        <time>2010-01-02T15:58:18Z</time>
      </trkpt>
      <trkpt lat="45.1276" lon="4.92513">
        <ele>212.57400512695</ele>
        <time>2010-01-02T15:58:25Z</time>
      </trkpt>
      <trkpt lat="45.12721" lon="4.92551">
        <ele>213.15699768066</ele>
        <time>2010-01-02T15:58:30Z</time>
      </trkpt>
      <trkpt lat="45.12706" lon="4.92566">
        <ele>213.05599975586</ele>
        <time>2010-01-02T15:58:32Z</time>
      </trkpt>
      <trkpt lat="45.1264" lon="4.92639">
        <ele>214.60600280762</ele>
        <time>2010-01-02T15:58:41Z</time>
      </trkpt>
      <trkpt lat="45.12568" lon="4.92719">
        <ele>216.47700500488</ele>
        <time>2010-01-02T15:58:51Z</time>
      </trkpt>
      <trkpt lat="45.12537" lon="4.92756">
        <ele>218.40199279785</ele>
        <time>2010-01-02T15:58:56Z</time>
      </trkpt>
      <trkpt lat="45.1251" lon="4.92792">
        <ele>219.75399780273</ele>
        <time>2010-01-02T15:59:02Z</time>
      </trkpt>
      <trkpt lat="45.12495" lon="4.92825">
        <ele>220.51699829102</ele>
        <time>2010-01-02T15:59:08Z</time>
      </trkpt>
      <trkpt lat="45.12483" lon="4.92856">
        <ele>220.72599792481</ele>
        <time>2010-01-02T15:59:14Z</time>
      </trkpt>
      <trkpt lat="45.12467" lon="4.92895">
        <ele>220</ele>
        <time>2010-01-02T15:59:22Z</time>
      </trkpt>
      <trkpt lat="45.1245" lon="4.92927">
        <ele>219.31300354004</ele>
        <time>2010-01-02T15:59:29Z</time>
      </trkpt>
      <trkpt lat="45.12436" lon="4.92953">
        <ele>218.43099975586</ele>
        <time>2010-01-02T15:59:34Z</time>
      </trkpt>
      <trkpt lat="45.12423" lon="4.92978">
        <ele>217.58399963379</ele>
        <time>2010-01-02T15:59:38Z</time>
      </trkpt>
      <trkpt lat="45.12398" lon="4.93027">
        <ele>216.34399414062</ele>
        <time>2010-01-02T15:59:45Z</time>
      </trkpt>
      <trkpt lat="45.12376" lon="4.93071">
        <ele>214.74600219727</ele>
        <time>2010-01-02T15:59:51Z</time>
      </trkpt>
      <trkpt lat="45.12352" lon="4.93124">
        <ele>213.05700683594</ele>
        <time>2010-01-02T15:59:58Z</time>
      </trkpt>
      <trkpt lat="45.12317" lon="4.93208">
        <ele>212.30700683594</ele>
        <time>2010-01-02T16:00:09Z</time>
      </trkpt>
      <trkpt lat="45.12286" lon="4.93284">
        <ele>212.17500305176</ele>
        <time>2010-01-02T16:00:19Z</time>
      </trkpt>
      <trkpt lat="45.12259" lon="4.93338">
        <ele>212.53500366211</ele>
        <time>2010-01-02T16:00:27Z</time>
      </trkpt>
      <trkpt lat="45.12249" lon="4.93357">
        <ele>212.08200073242</ele>
        <time>2010-01-02T16:00:30Z</time>
      </trkpt>
      <trkpt lat="45.12236" lon="4.93383">
        <ele>212.67100524902</ele>
        <time>2010-01-02T16:00:34Z</time>
      </trkpt>
      <trkpt lat="45.1221" lon="4.93436">
        <ele>213.00500488281</ele>
        <time>2010-01-02T16:00:43Z</time>
      </trkpt>
      <trkpt lat="45.1218" lon="4.93488">
        <ele>214.03799438477</ele>
        <time>2010-01-02T16:00:52Z</time>
      </trkpt>
      <trkpt lat="45.12157" lon="4.93519">
        <ele>215.19599914551</ele>
        <time>2010-01-02T16:00:59Z</time>
      </trkpt>
      <trkpt lat="45.12131" lon="4.93545">
        <ele>216.01600646973</ele>
        <time>2010-01-02T16:01:06Z</time>
      </trkpt>
      <trkpt lat="45.12103" lon="4.93571">
        <ele>217.33299255371</ele>
        <time>2010-01-02T16:01:14Z</time>
      </trkpt>
      <trkpt lat="45.12073" lon="4.93597">
        <ele>217.64300537109</ele>
        <time>2010-01-02T16:01:22Z</time>
      </trkpt>
      <trkpt lat="45.1204" lon="4.93629">
        <ele>218.50999450684</ele>
        <time>2010-01-02T16:01:31Z</time>
      </trkpt>
      <trkpt lat="45.12016" lon="4.93663">
        <ele>218.97599792481</ele>
        <time>2010-01-02T16:01:38Z</time>
      </trkpt>
      <trkpt lat="45.11992" lon="4.93708">
        <ele>218.56799316406</ele>
        <time>2010-01-02T16:01:46Z</time>
      </trkpt>
      <trkpt lat="45.11989" lon="4.93714">
        <ele>219.1549987793</ele>
        <time>2010-01-02T16:01:47Z</time>
      </trkpt>
      <trkpt lat="45.11972" lon="4.93748">
        <ele>218.32099914551</ele>
        <time>2010-01-02T16:01:53Z</time>
      </trkpt>
      <trkpt lat="45.11958" lon="4.93773">
        <ele>216.59300231934</ele>
        <time>2010-01-02T16:01:57Z</time>
      </trkpt>
      <trkpt lat="45.11948" lon="4.93788">
        <ele>215.53100585938</ele>
        <time>2010-01-02T16:02:02Z</time>
      </trkpt>
      <trkpt lat="45.11898" lon="4.93851">
        <ele>213.50900268555</ele>
        <time>2010-01-02T16:02:09Z</time>
      </trkpt>
      <trkpt lat="45.11865" lon="4.93895">
        <ele>212.53900146484</ele>
        <time>2010-01-02T16:02:15Z</time>
      </trkpt>
      <trkpt lat="45.11843" lon="4.93938">
        <ele>211.05099487305</ele>
        <time>2010-01-02T16:02:20Z</time>
      </trkpt>
      <trkpt lat="45.11832" lon="4.93985">
        <ele>210.50700378418</ele>
        <time>2010-01-02T16:02:25Z</time>
      </trkpt>
      <trkpt lat="45.11823" lon="4.94033">
        <ele>211.08599853516</ele>
        <time>2010-01-02T16:02:31Z</time>
      </trkpt>
      <trkpt lat="45.1181" lon="4.94084">
        <ele>211.45799255371</ele>
        <time>2010-01-02T16:02:39Z</time>
      </trkpt>
      <trkpt lat="45.11797" lon="4.94144">
        <ele>211.02600097656</ele>
        <time>2010-01-02T16:02:45Z</time>
      </trkpt>
      <trkpt lat="45.11789" lon="4.94192">
        <ele>211.41900634766</ele>
        <time>2010-01-02T16:02:50Z</time>
      </trkpt>
      <trkpt lat="45.11787" lon="4.94207">
        <ele>212.59700012207</ele>
        <time>2010-01-02T16:02:52Z</time>
      </trkpt>
      <trkpt lat="45.11782" lon="4.94277">
        <ele>210.19700622559</ele>
        <time>2010-01-02T16:03:00Z</time>
      </trkpt>
      <trkpt lat="45.11781" lon="4.94294">
        <ele>210.03399658203</ele>
        <time>2010-01-02T16:03:02Z</time>
      </trkpt>
      <trkpt lat="45.1178" lon="4.94318">
        <ele>210.17700195312</ele>
        <time>2010-01-02T16:03:05Z</time>
      </trkpt>
      <trkpt lat="45.11773" lon="4.94345">
        <ele>210.3450012207</ele>
        <time>2010-01-02T16:03:09Z</time>
      </trkpt>
      <trkpt lat="45.11767" lon="4.94359">
        <ele>210.03500366211</ele>
        <time>2010-01-02T16:03:11Z</time>
      </trkpt>
      <trkpt lat="45.11743" lon="4.94396">
        <ele>210.47599792481</ele>
        <time>2010-01-02T16:03:17Z</time>
      </trkpt>
      <trkpt lat="45.11725" lon="4.94414">
        <ele>211.56100463867</ele>
        <time>2010-01-02T16:03:21Z</time>
      </trkpt>
      <trkpt lat="45.11716" lon="4.94417">
        <ele>212.32000732422</ele>
        <time>2010-01-02T16:03:23Z</time>
      </trkpt>
      <trkpt lat="45.11705" lon="4.9442">
        <ele>212.33700561523</ele>
        <time>2010-01-02T16:03:25Z</time>
      </trkpt>
      <trkpt lat="45.11681" lon="4.94426">
        <ele>213.37199401856</ele>
        <time>2010-01-02T16:03:31Z</time>
      </trkpt>
      <trkpt lat="45.11663" lon="4.94433">
        <ele>214.80200195312</ele>
        <time>2010-01-02T16:03:36Z</time>
      </trkpt>
      <trkpt lat="45.11645" lon="4.94442">
        <ele>216.33399963379</ele>
        <time>2010-01-02T16:03:41Z</time>
      </trkpt>
      <trkpt lat="45.11621" lon="4.94456">
        <ele>218.54299926758</ele>
        <time>2010-01-02T16:03:49Z</time>
      </trkpt>
      <trkpt lat="45.11604" lon="4.94472">
        <ele>220.29299926758</ele>
        <time>2010-01-02T16:03:56Z</time>
      </trkpt>
      <trkpt lat="45.11591" lon="4.94487">
        <ele>221.87199401856</ele>
        <time>2010-01-02T16:04:02Z</time>
      </trkpt>
      <trkpt lat="45.11575" lon="4.94508">
        <ele>223.23100280762</ele>
        <time>2010-01-02T16:04:09Z</time>
      </trkpt>
      <trkpt lat="45.11565" lon="4.94525">
        <ele>224.14999389648</ele>
        <time>2010-01-02T16:04:15Z</time>
      </trkpt>
      <trkpt lat="45.11564" lon="4.94529">
        <ele>224.43200683594</ele>
        <time>2010-01-02T16:04:19Z</time>
      </trkpt>
      <trkpt lat="45.11562" lon="4.94533">
        <ele>224.53900146484</ele>
        <time>2010-01-02T16:05:41Z</time>
      </trkpt>
      <trkpt lat="45.11561" lon="4.94548">
        <ele>224.93499755859</ele>
        <time>2010-01-02T16:05:46Z</time>
      </trkpt>
      <trkpt lat="45.11559" lon="4.9458">
        <ele>224.93099975586</ele>
        <time>2010-01-02T16:05:52Z</time>
      </trkpt>
      <trkpt lat="45.11556" lon="4.94612">
        <ele>225.21299743652</ele>
        <time>2010-01-02T16:05:58Z</time>
      </trkpt>
      <trkpt lat="45.11554" lon="4.94625">
        <ele>225.91999816894</ele>
        <time>2010-01-02T16:06:01Z</time>
      </trkpt>
      <trkpt lat="45.11557" lon="4.94656">
        <ele>225.38800048828</ele>
        <time>2010-01-02T16:06:07Z</time>
      </trkpt>
      <trkpt lat="45.11557" lon="4.94689">
        <ele>226.38000488281</ele>
        <time>2010-01-02T16:06:13Z</time>
      </trkpt>
      <trkpt lat="45.11557" lon="4.9472">
        <ele>226.26699829102</ele>
        <time>2010-01-02T16:06:19Z</time>
      </trkpt>
      <trkpt lat="45.11557" lon="4.94745">
        <ele>226.71299743652</ele>
        <time>2010-01-02T16:06:24Z</time>
      </trkpt>
      <trkpt lat="45.11565" lon="4.94788">
        <ele>227.79400634766</ele>
        <time>2010-01-02T16:06:32Z</time>
      </trkpt>
      <trkpt lat="45.11569" lon="4.94811">
        <ele>228.46899414062</ele>
        <time>2010-01-02T16:06:37Z</time>
      </trkpt>
      <trkpt lat="45.1157" lon="4.94815">
        <ele>228.58700561523</ele>
        <time>2010-01-02T16:06:38Z</time>
      </trkpt>
      <trkpt lat="45.11574" lon="4.9484">
        <ele>229.25199890137</ele>
        <time>2010-01-02T16:06:44Z</time>
      </trkpt>
      <trkpt lat="45.1158" lon="4.94874">
        <ele>230.08500671387</ele>
        <time>2010-01-02T16:06:52Z</time>
      </trkpt>
      <trkpt lat="45.11589" lon="4.94917">
        <ele>230.65199279785</ele>
        <time>2010-01-02T16:07:01Z</time>
      </trkpt>
      <trkpt lat="45.11601" lon="4.94962">
        <ele>231.23899841309</ele>
        <time>2010-01-02T16:07:10Z</time>
      </trkpt>
      <trkpt lat="45.11624" lon="4.95016">
        <ele>230.25100708008</ele>
        <time>2010-01-02T16:07:20Z</time>
      </trkpt>
      <trkpt lat="45.11641" lon="4.95054">
        <ele>229.56799316406</ele>
        <time>2010-01-02T16:07:26Z</time>
      </trkpt>
      <trkpt lat="45.11665" lon="4.95111">
        <ele>227.69500732422</ele>
        <time>2010-01-02T16:07:34Z</time>
      </trkpt>
      <trkpt lat="45.11685" lon="4.95183">
        <ele>226.75</ele>
        <time>2010-01-02T16:07:42Z</time>
      </trkpt>
      <trkpt lat="45.1171" lon="4.95249">
        <ele>225.30099487305</ele>
        <time>2010-01-02T16:07:50Z</time>
      </trkpt>
      <trkpt lat="45.11717" lon="4.95266">
        <ele>224.12800598144</ele>
        <time>2010-01-02T16:07:52Z</time>
      </trkpt>
      <trkpt lat="45.11724" lon="4.95304">
        <ele>222.41600036621</ele>
        <time>2010-01-02T16:07:56Z</time>
      </trkpt>
      <trkpt lat="45.11723" lon="4.95315">
        <ele>221.73899841309</ele>
        <time>2010-01-02T16:07:57Z</time>
      </trkpt>
      <trkpt lat="45.11718" lon="4.95349">
        <ele>220.4049987793</ele>
        <time>2010-01-02T16:08:00Z</time>
      </trkpt>
      <trkpt lat="45.1172" lon="4.95398">
        <ele>217.79299926758</ele>
        <time>2010-01-02T16:08:04Z</time>
      </trkpt>
      <trkpt lat="45.11735" lon="4.95414">
        <ele>215.83000183106</ele>
        <time>2010-01-02T16:08:06Z</time>
      </trkpt>
      <trkpt lat="45.11752" lon="4.95422">
        <ele>214.36700439453</ele>
        <time>2010-01-02T16:08:08Z</time>
      </trkpt>
      <trkpt lat="45.11782" lon="4.9543">
        <ele>210.96499633789</ele>
        <time>2010-01-02T16:08:11Z</time>
      </trkpt>
      <trkpt lat="45.11804" lon="4.95436">
        <ele>210.29699707031</ele>
        <time>2010-01-02T16:08:13Z</time>
      </trkpt>
      <trkpt lat="45.11819" lon="4.95454">
        <ele>208.15400695801</ele>
        <time>2010-01-02T16:08:15Z</time>
      </trkpt>
      <trkpt lat="45.11827" lon="4.95464">
        <ele>208.23100280762</ele>
        <time>2010-01-02T16:08:16Z</time>
      </trkpt>
      <trkpt lat="45.11829" lon="4.95492">
        <ele>207.92199707031</ele>
        <time>2010-01-02T16:08:18Z</time>
      </trkpt>
      <trkpt lat="45.11819" lon="4.95514">
        <ele>208.92100524902</ele>
        <time>2010-01-02T16:08:20Z</time>
      </trkpt>
      <trkpt lat="45.1181" lon="4.95531">
        <ele>210.10000610352</ele>
        <time>2010-01-02T16:08:22Z</time>
      </trkpt>
      <trkpt lat="45.11798" lon="4.9556">
        <ele>212.59700012207</ele>
        <time>2010-01-02T16:08:27Z</time>
      </trkpt>
      <trkpt lat="45.11798" lon="4.95565">
        <ele>213.04600524902</ele>
        <time>2010-01-02T16:08:28Z</time>
      </trkpt>
      <trkpt lat="45.11801" lon="4.95593">
        <ele>214.66999816894</ele>
        <time>2010-01-02T16:08:34Z</time>
      </trkpt>
      <trkpt lat="45.118" lon="4.9561">
        <ele>215.5359954834</ele>
        <time>2010-01-02T16:08:38Z</time>
      </trkpt>
      <trkpt lat="45.11791" lon="4.95621">
        <ele>216.88900756836</ele>
        <time>2010-01-02T16:08:42Z</time>
      </trkpt>
      <trkpt lat="45.11772" lon="4.95628">
        <ele>218.43400573731</ele>
        <time>2010-01-02T16:08:48Z</time>
      </trkpt>
      <trkpt lat="45.11753" lon="4.95638">
        <ele>220.04600524902</ele>
        <time>2010-01-02T16:08:54Z</time>
      </trkpt>
      <trkpt lat="45.11746" lon="4.95658">
        <ele>221.49499511719</ele>
        <time>2010-01-02T16:08:59Z</time>
      </trkpt>
      <trkpt lat="45.11745" lon="4.95678">
        <ele>222.71299743652</ele>
        <time>2010-01-02T16:09:03Z</time>
      </trkpt>
      <trkpt lat="45.11744" lon="4.95701">
        <ele>224.51300048828</ele>
        <time>2010-01-02T16:09:07Z</time>
      </trkpt>
      <trkpt lat="45.11743" lon="4.95742">
        <ele>226.86000061035</ele>
        <time>2010-01-02T16:09:15Z</time>
      </trkpt>
      <trkpt lat="45.11742" lon="4.95774">
        <ele>228.07499694824</ele>
        <time>2010-01-02T16:09:21Z</time>
      </trkpt>
      <trkpt lat="45.11748" lon="4.95809">
        <ele>227.97099304199</ele>
        <time>2010-01-02T16:09:27Z</time>
      </trkpt>
      <trkpt lat="45.11754" lon="4.95841">
        <ele>227.48599243164</ele>
        <time>2010-01-02T16:09:33Z</time>
      </trkpt>
      <trkpt lat="45.11763" lon="4.95885">
        <ele>226.24499511719</ele>
        <time>2010-01-02T16:09:40Z</time>
      </trkpt>
      <trkpt lat="45.11772" lon="4.95928">
        <ele>224.61700439453</ele>
        <time>2010-01-02T16:09:46Z</time>
      </trkpt>
      <trkpt lat="45.11783" lon="4.95991">
        <ele>221.76800537109</ele>
        <time>2010-01-02T16:09:53Z</time>
      </trkpt>
      <trkpt lat="45.11784" lon="4.96001">
        <ele>221.49600219727</ele>
        <time>2010-01-02T16:09:54Z</time>
      </trkpt>
      <trkpt lat="45.11796" lon="4.96078">
        <ele>218.0890045166</ele>
        <time>2010-01-02T16:10:01Z</time>
      </trkpt>
      <trkpt lat="45.118" lon="4.96114">
        <ele>216.39399719238</ele>
        <time>2010-01-02T16:10:04Z</time>
      </trkpt>
      <trkpt lat="45.11802" lon="4.96127">
        <ele>216.20399475098</ele>
        <time>2010-01-02T16:10:05Z</time>
      </trkpt>
      <trkpt lat="45.11806" lon="4.96166">
        <ele>214.06199645996</ele>
        <time>2010-01-02T16:10:08Z</time>
      </trkpt>
      <trkpt lat="45.11809" lon="4.96192">
        <ele>211.91600036621</ele>
        <time>2010-01-02T16:10:10Z</time>
      </trkpt>
      <trkpt lat="45.1181" lon="4.96206">
        <ele>210.85800170898</ele>
        <time>2010-01-02T16:10:11Z</time>
      </trkpt>
      <trkpt lat="45.11812" lon="4.96234">
        <ele>209.68800354004</ele>
        <time>2010-01-02T16:10:13Z</time>
      </trkpt>
      <trkpt lat="45.11825" lon="4.96285">
        <ele>206.94599914551</ele>
        <time>2010-01-02T16:10:17Z</time>
      </trkpt>
      <trkpt lat="45.1183" lon="4.96314">
        <ele>205.47099304199</ele>
        <time>2010-01-02T16:10:19Z</time>
      </trkpt>
      <trkpt lat="45.11834" lon="4.96343">
        <ele>204.23300170898</ele>
        <time>2010-01-02T16:10:21Z</time>
      </trkpt>
      <trkpt lat="45.11837" lon="4.96373">
        <ele>202.65100097656</ele>
        <time>2010-01-02T16:10:23Z</time>
      </trkpt>
      <trkpt lat="45.11853" lon="4.96425">
        <ele>199.97200012207</ele>
        <time>2010-01-02T16:10:27Z</time>
      </trkpt>
      <trkpt lat="45.1186" lon="4.96436">
        <ele>199.55599975586</ele>
        <time>2010-01-02T16:10:28Z</time>
      </trkpt>
      <trkpt lat="45.11867" lon="4.96447">
        <ele>198.89900207519</ele>
        <time>2010-01-02T16:10:29Z</time>
      </trkpt>
      <trkpt lat="45.11878" lon="4.96473">
        <ele>197.85400390625</ele>
        <time>2010-01-02T16:10:31Z</time>
      </trkpt>
      <trkpt lat="45.1188" lon="4.96512">
        <ele>197.26800537109</ele>
        <time>2010-01-02T16:10:34Z</time>
      </trkpt>
      <trkpt lat="45.11879" lon="4.96525">
        <ele>196.85600280762</ele>
        <time>2010-01-02T16:10:35Z</time>
      </trkpt>
      <trkpt lat="45.11875" lon="4.9655">
        <ele>197.07899475098</ele>
        <time>2010-01-02T16:10:37Z</time>
      </trkpt>
      <trkpt lat="45.11873" lon="4.96562">
        <ele>197.23599243164</ele>
        <time>2010-01-02T16:10:38Z</time>
      </trkpt>
      <trkpt lat="45.11871" lon="4.96574">
        <ele>196.99099731445</ele>
        <time>2010-01-02T16:10:39Z</time>
      </trkpt>
      <trkpt lat="45.11869" lon="4.96585">
        <ele>196.82499694824</ele>
        <time>2010-01-02T16:10:40Z</time>
      </trkpt>
      <trkpt lat="45.11868" lon="4.96595">
        <ele>196.47900390625</ele>
        <time>2010-01-02T16:10:41Z</time>
      </trkpt>
      <trkpt lat="45.11865" lon="4.96607">
        <ele>196.21299743652</ele>
        <time>2010-01-02T16:10:42Z</time>
      </trkpt>
      <trkpt lat="45.11858" lon="4.96628">
        <ele>196.29400634766</ele>
        <time>2010-01-02T16:10:44Z</time>
      </trkpt>
      <trkpt lat="45.11852" lon="4.96649">
        <ele>195.61999511719</ele>
        <time>2010-01-02T16:10:46Z</time>
      </trkpt>
      <trkpt lat="45.11832" lon="4.96711">
        <ele>194.55799865723</ele>
        <time>2010-01-02T16:10:52Z</time>
      </trkpt>
      <trkpt lat="45.11821" lon="4.96728">
        <ele>193.58599853516</ele>
        <time>2010-01-02T16:10:54Z</time>
      </trkpt>
      <trkpt lat="45.1179" lon="4.96762">
        <ele>192.375</ele>
        <time>2010-01-02T16:10:59Z</time>
      </trkpt>
      <trkpt lat="45.11784" lon="4.96767">
        <ele>192.49099731445</ele>
        <time>2010-01-02T16:11:00Z</time>
      </trkpt>
      <trkpt lat="45.11766" lon="4.96783">
        <ele>192.16400146484</ele>
        <time>2010-01-02T16:11:03Z</time>
      </trkpt>
      <trkpt lat="45.11753" lon="4.96804">
        <ele>191.33500671387</ele>
        <time>2010-01-02T16:11:08Z</time>
      </trkpt>
      <trkpt lat="45.11751" lon="4.96817">
        <ele>191.42199707031</ele>
        <time>2010-01-02T16:11:12Z</time>
      </trkpt>
      <trkpt lat="45.11751" lon="4.96817">
        <ele>191.3690032959</ele>
        <time>2010-01-02T16:11:14Z</time>
      </trkpt>
      <trkpt lat="45.11751" lon="4.96819">
        <ele>191.41799926758</ele>
        <time>2010-01-02T16:11:26Z</time>
      </trkpt>
      <trkpt lat="45.11738" lon="4.96831">
        <ele>191.44400024414</ele>
        <time>2010-01-02T16:11:31Z</time>
      </trkpt>
      <trkpt lat="45.11737" lon="4.96831">
        <ele>191.31300354004</ele>
        <time>2010-01-02T16:11:33Z</time>
      </trkpt>
      <trkpt lat="45.11705" lon="4.9679">
        <ele>191.37199401856</ele>
        <time>2010-01-02T16:11:39Z</time>
      </trkpt>
      <trkpt lat="45.11683" lon="4.96755">
        <ele>191.02299499512</ele>
        <time>2010-01-02T16:11:45Z</time>
      </trkpt>
      <trkpt lat="45.11657" lon="4.96696">
        <ele>190.53799438477</ele>
        <time>2010-01-02T16:11:53Z</time>
      </trkpt>
      <trkpt lat="45.11633" lon="4.96633">
        <ele>189.83799743652</ele>
        <time>2010-01-02T16:12:01Z</time>
      </trkpt>
      <trkpt lat="45.11621" lon="4.96603">
        <ele>189.7799987793</ele>
        <time>2010-01-02T16:12:09Z</time>
      </trkpt>
      <trkpt lat="45.11594" lon="4.96539">
        <ele>189.38200378418</ele>
        <time>2010-01-02T16:12:16Z</time>
      </trkpt>
      <trkpt lat="45.11576" lon="4.965">
        <ele>189.64399719238</ele>
        <time>2010-01-02T16:12:24Z</time>
      </trkpt>
      <trkpt lat="45.11567" lon="4.96486">
        <ele>190.61700439453</ele>
        <time>2010-01-02T16:12:29Z</time>
      </trkpt>
      <trkpt lat="45.11581" lon="4.96454">
        <ele>191.03799438477</ele>
        <time>2010-01-02T16:12:33Z</time>
      </trkpt>
      <trkpt lat="45.11581" lon="4.96445">
        <ele>190.70300292969</ele>
        <time>2010-01-02T16:12:39Z</time>
      </trkpt>
      <trkpt lat="45.11581" lon="4.96445">
        <ele>190.98100280762</ele>
        <time>2010-01-02T16:12:40Z</time>
      </trkpt>
      <trkpt lat="45.11581" lon="4.96448">
        <ele>190.91700744629</ele>
        <time>2010-01-02T16:13:11Z</time>
      </trkpt>
      <trkpt lat="45.11554" lon="4.96465">
        <ele>190.48699951172</ele>
        <time>2010-01-02T16:13:15Z</time>
      </trkpt>
      <trkpt lat="45.11544" lon="4.9645">
        <ele>191.35800170898</ele>
        <time>2010-01-02T16:13:21Z</time>
      </trkpt>
      <trkpt lat="45.11544" lon="4.96449">
        <ele>191.81399536133</ele>
        <time>2010-01-02T16:13:27Z</time>
      </trkpt>
      <trkpt lat="45.11544" lon="4.96449">
        <ele>191.92599487305</ele>
        <time>2010-01-02T16:13:29Z</time>
      </trkpt>
      <trkpt lat="45.11544" lon="4.96449">
        <ele>191.72799682617</ele>
        <time>2010-01-02T16:13:35Z</time>
      </trkpt>
      <trkpt lat="45.11544" lon="4.96449">
        <ele>191.7200012207</ele>
        <time>2010-01-02T16:13:36Z</time>
      </trkpt>
      <trkpt lat="45.11544" lon="4.96449">
        <ele>191.78399658203</ele>
        <time>2010-01-02T16:13:50Z</time>
      </trkpt>
      <trkpt lat="45.11544" lon="4.96449">
        <ele>191.89100646973</ele>
        <time>2010-01-02T16:13:57Z</time>
      </trkpt>
    </trkseg>
  </trk>
</gpx>